[[{"header":{"parameterUnit":"m.s-1","parameterCategory":1,"la1":30.6,"la2":28.766,"lo1":-90.7593,"lo2":-88.6598,"dy":0.0162,"dx":0.0183,"nx":116,"ny":114,"refTime":"2023-11-16T06:00:00:Z","depth":0,"parameterNumber":2,"parameterNumberName":"U-component_of_WINDS"},"data":[0.0,0.0,0.0,0.0,0.0,0.0,0.0,0.0,0.0,0.0,0.0,0.0,0.0,0.0,0.0,0.0,0.0,0.0,0.0,0.0,0.0,0.0,0.0,0.0,0.0,0.0,0.0,0.0,0.0,0.0,0.0,0.0,0.0,0.0,0.0,0.0,0.0,0.0,0.0,0.0,0.0,0.0,0.0,0.0,0.0,0.0,0.0,0.0,0.0,0.0,0.0,0.0,0.0,0.0,0.0,0.0,0.0,0.0,0.0,0.0,0.0,0.0,0.0,0.0,0.0,0.0,0.0,0.0,0.0,0.0,0.0,0.0,0.0,0.0,0.0,0.0,0.0,0.0,0.0,0.0,0.0,0.0,0.0,0.0,0.0,0.0,0.0,0.0,0.0,0.0,0.0,0.0,0.0,0.0,0.0,0.0,0.0,0.0,0.0,0.0,0.0,0.0,0.0,0.0,0.0,0.0,0.0,0.0,0.0,0.0,0.0,0.0,0.0,0.0,0.0,0.0,0.0,0.0,0.0,0.0,0.0,0.0,0.0,0.0,0.0,0.0,0.0,0.0,0.0,0.0,0.0,0.0,0.0,0.0,0.0,0.0,0.0,0.0,0.0,0.0,0.0,0.0,0.0,0.0,0.0,0.0,0.0,0.0,0.0,0.0,0.0,0.0,0.0,0.0,0.0,0.0,0.0,0.0,0.0,0.0,0.0,0.0,0.0,0.0,0.0,0.0,0.0,0.0,0.0,0.0,0.0,0.0,0.0,0.0,0.0,0.0,0.0,0.0,0.0,0.0,0.0,0.0,0.0,0.0,0.0,0.0,0.0,0.0,0.0,0.0,0.0,0.0,0.0,0.0,0.0,0.0,0.0,0.0,0.0,0.0,0.0,0.0,0.0,0.0,0.0,0.0,0.0,0.0,0.0,0.0,0.0,0.0,0.0,0.0,0.0,0.0,0.0,0.0,0.0,0.0,0.0,0.0,0.0,0.0,0.0,0.0,0.0,0.0,0.0,0.0,0.0,0.0,0.0,0.0,0.0,0.0,0.0,0.0,0.0,0.0,0.0,0.0,0.0,0.0,0.0,0.0,0.0,0.0,0.0,0.0,0.0,0.0,0.0,0.0,0.0,0.0,0.0,0.0,0.0,0.0,0.0,0.0,0.0,0.0,0.0,0.0,0.0,0.0,0.0,0.0,0.0,0.0,0.0,0.0,0.0,0.0,0.0,0.0,0.0,0.0,0.0,0.0,0.0,0.0,0.0,0.0,0.0,0.0,0.0,0.0,0.0,0.0,0.0,0.0,0.0,0.0,0.0,0.0,0.0,0.0,0.0,0.0,0.0,0.0,0.0,0.0,0.0,0.0,0.0,0.0,0.0,0.0,0.0,0.0,0.0,0.0,0.0,0.0,0.0,0.0,0.0,0.0,0.0,0.0,0.0,0.0,0.0,0.0,0.0,0.0,0.0,0.0,0.0,0.0,0.0,0.0,0.0,0.0,0.0,0.0,0.0,0.0,0.0,0.0,0.0,0.0,0.0,0.0,0.0,0.0,0.0,0.0,0.0,0.0,0.0,0.0,0.0,0.0,0.0,0.0,0.0,0.0,0.0,0.0,0.0,0.0,0.0,0.0,0.0,0.0,0.0,0.0,0.0,0.0,0.0,0.0,0.0,0.0,0.0,0.0,0.0,0.0,0.0,0.0,0.0,0.0,0.0,0.0,0.0,0.0,0.0,0.0,0.0,0.0,0.0,0.0,0.0,0.0,0.0,0.0,0.0,0.0,0.0,0.0,0.0,0.0,0.0,0.0,0.0,0.0,0.0,0.0,0.0,0.0,0.0,0.0,0.0,0.0,0.0,0.0,0.0,0.0,0.0,0.0,0.0,0.0,0.0,0.0,0.0,0.0,0.0,0.0,0.0,0.0,0.0,0.0,0.0,0.0,0.0,0.0,0.0,0.0,0.0,0.0,0.0,0.0,0.0,0.0,0.0,0.0,0.0,0.0,0.0,0.0,0.0,0.0,0.0,0.0,0.0,0.0,0.0,0.0,0.0,0.0,0.0,0.0,0.0,0.0,0.0,0.0,0.0,0.0,0.0,0.0,0.0,0.0,0.0,0.0,0.0,0.0,0.0,0.0,0.0,0.0,0.0,0.0,0.0,0.0,0.0,0.0,0.0,0.0,0.0,0.0,0.0,0.0,0.0,0.0,0.0,0.0,0.0,0.0,0.0,0.0,0.0,0.0,0.0,0.0,0.0,0.0,0.0,0.0,0.0,0.0,0.0,0.0,0.0,0.0,0.0,0.0,0.0,0.0,0.0,0.0,0.0,0.0,0.0,0.0,0.0,0.0,0.0,0.0,0.0,0.0,0.0,0.0,0.0,0.0,0.0,0.0,0.0,0.0,0.0,0.0,0.0,0.0,0.0,0.0,0.0,0.0,0.0,0.0,0.0,0.0,0.0,0.0,0.0,0.0,0.0,0.0,0.0,0.0,0.0,0.0,0.0,0.0,0.0,0.0,0.0,0.0,0.0,0.0,0.0,0.0,0.0,0.0,0.0,0.0,0.0,0.0,0.0,0.0,0.0,0.0,0.0,0.0,0.0,0.0,0.0,0.0,0.0,0.0,0.0,0.0,0.0,0.0,0.0,0.0,0.0,0.0,0.0,0.0,0.0,0.0,0.0,0.0,0.0,0.0,0.0,0.0,0.0,0.0,0.0,0.0,0.0,0.0,0.0,0.0,0.0,0.0,0.0,0.0,0.0,0.0,0.0,0.0,0.0,0.0,0.0,0.0,0.0,0.0,0.0,0.0,0.0,0.0,0.0,0.0,0.0,0.0,0.0,0.0,0.0,0.0,0.0,0.0,0.0,0.0,0.0,0.0,0.0,0.0,0.0,0.0,0.0,0.0,0.0,0.0,0.0,0.0,0.0,0.0,0.0,0.0,0.0,0.0,0.0,0.0,0.0,0.0,0.0,0.0,0.0,0.0,0.0,0.0,0.0,0.0,0.0,0.0,0.0,0.0,0.0,0.0,0.0,0.0,0.0,0.0,0.0,0.0,0.0,0.0,0.0,0.0,0.0,0.0,0.0,0.0,0.0,0.0,0.0,0.0,0.0,0.0,0.0,0.0,0.0,0.0,0.0,0.0,0.0,0.0,0.0,0.0,0.0,0.0,0.0,0.0,0.0,0.0,0.0,0.0,0.0,0.0,0.0,0.0,0.0,0.0,0.0,0.0,0.0,0.0,0.0,0.0,0.0,0.0,0.0,0.0,0.0,0.0,0.0,0.0,0.0,0.0,0.0,0.0,0.0,0.0,0.0,0.0,0.0,0.0,0.0,0.0,0.0,0.0,0.0,0.0,0.0,0.0,0.0,0.0,0.0,0.0,0.0,0.0,0.0,0.0,0.0,0.0,0.0,0.0,0.0,0.0,0.0,0.0,0.0,0.0,0.0,0.0,0.0,0.0,0.0,0.0,0.0,0.0,0.0,0.0,0.0,0.0,0.0,0.0,0.0,0.0,0.0,0.0,0.0,0.0,0.0,0.0,0.0,0.0,0.0,0.0,0.0,0.0,0.0,0.0,0.0,0.0,0.0,0.0,0.0,0.0,0.0,0.0,0.0,0.0,0.0,0.0,0.0,0.0,0.0,0.0,0.0,0.0,0.0,0.0,0.0,0.0,0.0,0.0,0.0,0.0,0.0,0.0,0.0,0.0,0.0,0.0,0.0,0.0,0.0,0.0,0.0,0.0,0.0,0.0,0.0,0.0,0.0,0.0,0.0,0.0,0.0,0.0,0.0,0.0,0.0,0.0,0.0,0.0,0.0,0.0,0.0,0.0,0.0,0.0,0.0,0.0,0.0,0.0,0.0,0.0,0.0,0.0,0.0,0.0,0.0,0.0,0.0,0.0,0.0,0.0,0.0,0.0,0.0,0.0,0.0,0.0,0.0,0.0,0.0,0.0,0.0,0.0,0.0,0.0,0.0,0.0,0.0,0.0,0.0,0.0,0.0,0.0,0.0,0.0,0.0,0.0,0.0,0.0,0.0,0.0,0.0,0.0,0.0,0.0,0.0,0.0,0.0,0.0,0.0,0.0,0.0,0.0,0.0,0.0,0.0,0.0,0.0,0.0,0.0,0.0,0.0,0.0,0.0,0.0,0.0,0.0,0.0,0.0,0.0,0.0,0.0,0.0,0.0,0.0,0.0,0.0,0.0,0.0,0.0,0.0,0.0,0.0,0.0,0.0,0.0,0.0,0.0,0.0,0.0,0.0,0.0,0.0,0.0,0.0,0.0,0.0,0.0,0.0,0.0,0.0,0.0,0.0,0.0,0.0,0.0,0.0,0.0,0.0,0.0,0.0,0.0,0.0,0.0,0.0,0.0,0.0,0.0,0.0,0.0,0.0,0.0,0.0,0.0,0.0,0.0,0.0,0.0,0.0,0.0,0.0,0.0,0.0,0.0,0.0,0.0,0.0,0.0,0.0,0.0,0.0,0.0,0.0,0.0,0.0,0.0,0.0,0.0,0.0,0.0,0.0,0.0,0.0,0.0,0.0,0.0,0.0,0.0,0.0,0.0,0.0,0.0,0.0,0.0,0.0,0.0,0.0,0.0,0.0,0.0,0.0,0.0,0.0,0.0,0.0,0.0,0.0,0.0,0.0,0.0,0.0,0.0,0.0,0.0,0.0,0.0,0.0,0.0,0.0,0.0,0.0,0.0,0.0,0.0,0.0,0.0,0.0,0.0,0.0,0.0,0.0,0.0,0.0,0.0,0.0,0.0,0.0,0.0,0.0,0.0,0.0,0.0,0.0,0.0,0.0,0.0,0.0,0.0,0.0,0.0,0.0,0.0,0.0,0.0,0.0,0.0,0.0,0.0,0.0,0.0,0.0,0.0,0.0,0.0,0.0,0.0,0.0,0.0,0.0,0.0,0.0,0.0,0.0,0.0,0.0,0.0,0.0,0.0,0.0,0.0,0.0,0.0,0.0,0.0,0.0,0.0,0.0,0.0,0.0,0.0,0.0,0.0,0.0,0.0,0.0,0.0,0.0,0.0,0.0,0.0,0.0,0.0,0.0,0.0,0.0,0.0,0.0,0.0,0.0,0.0,0.0,0.0,0.0,0.0,0.0,0.0,0.0,0.0,0.0,0.0,0.0,0.0,0.0,0.0,0.0,0.0,0.0,0.0,0.0,0.0,0.0,0.0,0.0,0.0,0.0,0.0,0.0,0.0,0.0,0.0,0.0,0.0,0.0,0.0,0.0,0.0,0.0,0.0,0.0,0.0,0.0,0.0,0.0,0.0,0.0,0.0,0.0,0.0,0.0,0.0,0.0,0.0,0.0,0.0,0.0,0.0,0.0,0.0,0.0,0.0,0.0,0.0,0.0,0.0,0.0,0.0,0.0,0.0,0.0,0.0,0.0,0.0,0.0,0.0,0.0,0.0,0.0,0.0,0.0,0.0,0.0,0.0,0.0,0.0,0.0,0.0,0.0,0.0,0.0,0.0,0.0,0.0,0.0,0.0,0.0,0.0,0.0,0.0,0.0,0.0,0.0,0.0,0.0,0.0,0.0,0.0,0.0,0.0,0.0,0.0,0.0,0.0,0.0,0.0,0.0,0.0,0.0,0.0,0.0,0.0,0.0,0.0,0.0,0.0,0.0,0.0,0.0,0.0,0.0,0.0,0.0,0.0,0.0,0.0,0.0,0.0,0.0,0.0,0.0,0.0,0.0,0.0,0.0,0.0,0.0,0.0,0.0,0.0,0.0,0.0,0.0,0.0,0.0,0.0,0.0,0.0,0.0,0.0,0.0,0.0,0.0,0.0,0.0,0.0,0.0,0.0,0.0,0.0,0.0,0.0,0.0,0.0,0.0,0.0,0.0,0.0,0.0,0.0,0.0,0.0,0.0,0.0,0.0,0.0,0.0,0.0,0.0,0.0,0.0,0.0,0.0,0.0,0.0,0.0,0.0,0.0,0.0,0.0,0.0,0.0,0.0,0.0,0.0,0.0,0.0,0.0,0.0,0.0,0.0,0.0,0.0,0.0,0.0,0.0,0.0,0.0,0.0,0.0,0.0,0.0,0.0,0.0,0.0,0.0,0.0,0.0,0.0,1.6974,1.7001,0.0,0.0,0.0,0.0,0.0,0.0,0.0,0.0,0.0,0.0,0.0,0.0,0.0,0.0,0.0,0.0,0.0,0.0,0.0,0.0,0.0,0.0,0.0,0.0,0.0,0.0,0.0,0.0,0.0,0.0,0.0,0.0,0.0,0.0,0.0,0.0,0.0,0.8426,0.8781,0.9576,1.0768,1.1474,1.2391,1.3461,0.0,0.0,0.0,0.0,0.0,0.0,0.0,0.0,0.0,0.0,0.0,0.0,0.0,0.0,0.0,0.0,0.0,0.0,0.0,0.0,0.0,0.0,0.0,0.0,0.0,0.0,0.0,0.0,0.0,0.0,0.0,0.0,0.0,0.0,0.0,0.0,0.0,0.0,0.0,0.0,0.0,0.0,0.0,0.0,0.0,0.0,0.0,0.0,0.0,0.0,0.0,0.0,0.0,0.0,0.0,0.0,0.0,0.0,0.0,0.0,0.0,0.0,0.0,0.0,0.0,0.0,0.0,0.0,0.0,0.0,1.8404,1.7825,0.0,0.0,0.0,0.0,0.0,0.0,0.0,0.0,0.0,0.0,0.0,0.0,0.0,0.0,0.0,0.0,0.0,0.0,0.0,0.0,0.0,0.0,0.0,0.4001,0.4406,0.5325,0.5419,0.5737,0.6451,0.0,0.0,0.0,0.0,0.0,0.7388,0.7645,0.8145,0.8845,0.9324,1.0535,1.2404,1.3438,1.4256,1.4885,1.4368,0.0,0.0,0.0,0.0,0.0,0.0,0.0,0.0,0.0,0.0,0.0,0.0,0.0,0.0,0.0,0.0,0.0,0.0,0.0,0.0,0.0,0.0,0.0,0.0,0.0,0.0,0.0,0.0,0.0,0.0,0.0,0.0,0.0,0.0,0.0,0.0,0.0,0.0,0.0,0.0,0.0,0.0,0.0,0.0,0.0,0.0,0.0,0.0,0.0,0.0,0.0,0.0,0.0,0.0,0.0,0.0,0.0,0.0,0.0,0.0,0.0,0.0,0.0,2.1022,2.167,2.2143,2.2143,2.2183,2.2124,2.0071,1.8829,1.8246,1.8411,0.0,0.0,0.0,0.0,0.0,0.0,0.0,0.0,0.0,0.0,0.0,0.0,0.0,0.0,0.0,0.0,0.0,0.0,0.0,0.3421,0.3708,0.4253,0.5129,0.6457,0.6222,0.6474,0.7594,0.0,0.0,0.0,0.0,0.7169,0.7388,0.7894,0.8433,0.9066,1.1445,1.3363,1.4793,1.6357,1.732,1.7651,1.4784,1.4159,1.5219,0.0,0.0,0.0,0.0,0.0,0.0,0.0,0.0,0.0,0.0,0.0,0.0,0.0,0.0,0.0,0.0,0.0,0.0,0.0,0.0,0.0,0.0,0.0,0.0,0.0,0.0,0.0,0.0,0.0,0.0,0.0,0.0,0.0,0.0,0.0,0.0,0.0,0.0,0.0,0.0,0.0,1.6909,1.6972,0.0,0.0,0.0,0.0,0.0,0.0,0.0,0.0,0.0,0.0,0.0,0.0,0.0,2.0106,1.9465,2.0875,2.1214,2.0564,2.141,2.186,2.1937,2.1937,2.2132,2.2425,2.1743,0.0,1.9518,1.8128,0.0,0.0,0.0,0.0,0.0,0.0,0.0,0.0,0.0,0.0,0.0,0.0,0.0,0.0,0.0,0.0,0.0,0.0,0.0,0.0,0.0,0.5608,0.676,0.7572,0.9666,1.0505,0.949,0.9935,0.0,0.0,0.7917,0.7825,0.7955,0.852,0.9636,1.1298,1.352,1.509,1.606,1.7068,1.7741,1.806,1.6394,1.5755,1.5898,1.4727,0.0,0.0,0.0,0.0,0.0,0.0,0.0,0.0,0.0,0.0,0.0,0.0,0.0,0.0,0.0,0.0,0.0,0.0,0.0,0.0,0.0,0.0,0.0,0.0,0.0,0.0,0.0,0.0,0.0,0.0,0.0,0.0,0.0,0.0,0.0,0.0,0.0,0.0,0.0,1.7254,1.807,1.7623,1.8757,1.9162,0.0,0.0,0.0,0.0,0.0,0.0,0.0,0.0,0.0,2.1026,2.217,2.252,2.2022,2.3134,2.3499,2.3149,2.375,2.404,2.402,2.3789,2.3792,2.3948,2.3496,2.2852,2.1974,2.0247,1.9627,1.97,0.0,0.0,0.0,0.0,1.8237,1.847,0.0,0.0,0.0,0.0,0.0,0.0,0.0,0.0,0.0,0.0,0.0,0.0,0.5584,0.735,0.8854,0.9775,1.2361,1.3208,1.1495,1.1971,1.1377,0.9319,0.8784,0.8485,0.8385,0.9563,1.1302,1.3618,1.5421,1.6723,1.7542,1.7988,1.8418,1.8791,1.8396,1.7712,1.6785,1.5394,1.4859,1.4892,0.0,0.0,0.0,0.0,0.0,0.0,0.0,0.0,0.0,0.0,0.0,0.0,0.0,0.0,0.0,0.0,0.0,0.0,0.0,0.0,0.0,0.0,0.0,0.0,0.0,0.0,0.0,0.0,0.0,0.0,0.0,0.0,0.0,0.0,0.0,0.0,0.0,1.8385,1.9086,1.8304,1.9976,2.0577,0.0,0.0,0.0,0.0,0.0,0.0,2.1298,2.255,2.3219,2.3175,2.4313,2.4766,2.4453,2.5004,2.5317,2.5434,2.5742,2.5932,2.603,2.5723,2.5378,2.5,2.4531,2.3933,2.3219,2.2026,2.1428,2.1234,2.0481,2.0557,2.0945,1.9674,1.9131,1.8928,0.0,0.0,0.0,0.0,0.0,0.0,0.0,0.0,0.0,0.0,0.0,0.603,0.7589,0.9303,1.1363,1.3873,1.272,1.2335,1.3478,1.1417,0.9819,0.9041,0.9106,0.8885,0.8316,1.1071,1.3433,1.5273,1.7031,1.8516,1.9747,2.0214,2.0644,2.1015,2.0625,1.9617,1.8148,1.7113,1.6602,1.6488,1.6385,0.0,0.0,0.0,0.0,0.0,0.0,0.0,0.0,0.0,0.0,0.0,0.0,0.0,0.0,0.0,0.0,0.0,0.0,0.0,0.0,0.0,0.0,0.0,0.0,0.0,0.0,0.0,0.0,0.0,0.0,0.0,0.0,0.0,0.0,0.0,0.0,0.0,0.0,1.8603,2.0687,0.0,0.0,0.0,0.0,2.2532,2.2654,2.3137,2.4127,2.4878,2.5334,2.5523,2.6035,2.6269,2.6275,2.5854,2.5893,2.6328,2.6348,2.6562,2.6928,2.6908,2.6135,2.4791,2.4324,2.3305,2.2017,2.2318,2.2441,2.2363,2.1936,2.1265,2.048,1.9949,1.9204,1.832,0.0,0.0,0.0,0.0,0.0,0.0,0.0,0.0,0.3967,0.4056,0.577,0.7395,0.8485,1.1667,1.4129,1.5144,1.6703,1.7017,1.5593,1.4473,1.2956,1.0879,0.9818,0.9915,1.1291,1.3578,1.5793,1.791,1.91,2.0195,2.1191,2.1368,2.1524,2.1641,2.1505,2.0958,2.0042,1.8038,1.7048,1.6751,1.5519,1.5221,0.0,0.0,0.0,0.0,0.0,0.0,0.0,0.0,0.0,0.0,0.0,0.0,0.0,0.0,0.0,0.0,0.0,0.0,0.0,0.0,0.0,0.0,0.0,0.0,0.0,0.0,0.0,0.0,0.0,0.0,0.0,0.0,0.0,0.0,0.0,0.0,0.0,2.0757,2.2757,0.0,2.2384,2.2777,2.355,2.4604,2.4447,2.4476,2.4891,2.5422,2.5404,2.4688,2.5071,2.5318,2.5318,2.5123,2.5123,2.529,2.5128,2.5121,2.5253,2.4763,2.4268,2.3752,2.3272,2.2761,2.229,2.2434,2.2056,2.1368,2.0957,2.0657,2.0361,1.9899,1.9193,1.8421,0.0,0.0,0.0,0.0,0.0,0.0,0.0,0.3651,0.3993,0.4621,0.6811,0.8964,1.0706,1.4148,1.6613,1.7287,1.866,1.8693,1.6834,1.5375,1.3701,1.167,1.0363,1.1013,1.3876,1.5471,1.7409,1.9745,2.0605,2.1407,2.209,2.209,2.209,2.209,2.209,2.1855,2.1308,1.9473,1.8226,1.7443,1.6099,1.5859,1.6152,0.0,0.0,0.0,0.0,0.0,0.0,0.0,0.0,0.0,0.0,0.0,0.0,0.0,0.0,0.0,0.0,0.0,0.0,0.0,0.0,0.0,0.0,0.0,0.0,0.0,0.0,0.0,0.0,0.0,0.0,0.0,0.0,0.0,0.0,2.1653,2.3002,2.2734,2.4668,2.5638,2.4535,2.4894,2.5575,2.6504,2.5969,2.5666,2.5828,2.574,2.5338,2.4527,2.4756,2.49,2.49,2.4756,2.4707,2.4691,2.4519,2.4396,2.4265,2.3787,2.3231,2.2632,2.2339,2.1916,2.1438,2.1438,2.0952,2.0203,2.0765,2.0707,2.0271,2.0045,1.927,1.8357,0.0,0.0,0.0,0.0,0.0,0.0,0.3323,0.3405,0.4076,0.5687,0.7915,1.0697,1.4219,1.6651,1.873,2.0429,1.8203,1.6798,1.7025,1.3742,1.1616,1.119,1.0757,1.2165,1.5697,1.6604,1.8211,2.0605,2.1444,2.2108,2.2539,2.2539,2.2539,2.2539,2.2539,2.2305,2.1915,2.1464,2.0274,1.8689,1.8441,1.7594,1.6495,0.0,0.0,0.0,0.0,0.0,0.0,0.0,0.0,0.0,0.0,0.0,0.0,0.0,0.0,0.0,0.0,0.0,0.0,0.0,0.0,0.0,0.0,0.0,0.0,0.0,0.0,0.0,0.0,0.0,0.0,0.0,0.0,0.0,2.1587,2.3268,2.4538,2.4444,2.6394,2.7226,2.5878,2.6916,2.7811,2.8186,2.7133,2.6621,2.6968,2.5894,2.5218,2.5188,2.5188,2.5188,2.5188,2.4786,2.4594,2.4594,2.4577,2.4456,2.4171,2.42,2.3235,2.1559,2.1544,2.0745,1.9415,1.9401,1.9199,1.9159,2.1484,2.1437,2.0074,2.0332,1.9408,1.8049,0.0,0.0,0.0,0.0,0.0,0.0,0.3257,0.3257,0.3916,0.5668,0.8723,1.174,1.4388,1.7237,1.9258,2.0019,1.801,1.6441,1.5834,1.3198,1.1339,1.0647,1.2332,1.39,1.5178,1.7204,1.9047,2.066,2.0903,2.1685,2.2947,2.2947,2.2947,2.2947,2.2947,2.2869,2.2771,2.2633,2.2126,2.1289,1.9656,1.8694,1.8145,0.0,0.0,0.0,0.0,0.0,0.0,0.0,0.0,0.0,0.0,0.0,0.0,0.0,0.0,0.0,0.0,0.0,0.0,0.0,0.0,0.0,0.0,0.0,0.0,0.0,0.0,0.0,0.0,0.0,0.0,0.0,2.2734,2.368,2.3206,2.4947,2.6486,2.7111,2.8322,2.8449,2.6866,2.7059,2.6939,2.618,2.605,2.5558,2.4617,2.4425,2.3695,2.2307,2.2262,2.2262,2.2262,2.2145,2.2072,2.2072,2.1876,2.1765,2.1665,2.1438,2.1058,2.0557,2.0366,2.0049,1.9666,1.9481,1.9348,1.9298,1.9738,1.9486,1.8961,1.9016,1.8755,1.8384,0.0,0.0,0.0,0.0,0.0,0.0,0.3216,0.3224,0.4093,0.647,0.964,1.2511,1.4708,1.7132,1.8502,1.836,1.6757,1.5308,1.4291,1.2412,1.1317,1.1239,1.2913,1.4783,1.6787,1.8165,1.9816,2.1718,2.1718,2.1939,2.2359,2.2862,2.2558,2.161,2.212,2.2072,2.165,2.2348,2.2492,2.2233,2.1669,2.0954,2.0158,1.9424,1.9384,1.9629,1.9147,1.9448,1.9903,1.8203,0.0,0.0,0.0,0.0,0.0,0.0,0.0,0.0,0.0,0.0,0.0,0.0,0.0,0.0,0.0,0.0,0.0,0.0,0.0,0.0,0.0,0.0,0.0,0.0,2.4471,2.5701,2.5905,2.6992,2.8068,2.8992,2.9106,2.8714,2.7741,2.7135,2.647,2.5654,2.5352,2.4735,2.3651,2.3226,2.2412,2.1154,2.1109,2.1109,2.1109,2.1109,2.1109,2.1109,2.0935,2.0802,2.0699,2.0494,2.0317,2.0197,2.0024,1.9987,1.9973,1.98,1.9733,1.9693,0.0,0.0,0.0,0.0,1.8758,1.8893,0.0,0.0,0.0,0.0,0.0,0.0,0.3159,0.3208,0.4356,0.7458,1.0189,1.2672,1.4786,1.6355,1.6919,1.6096,1.4818,1.3635,1.2599,1.1571,1.1466,1.2522,1.3137,1.5177,1.886,1.8933,2.012,2.2492,2.2492,2.2009,2.1105,2.2186,2.1543,1.9542,2.0642,2.0546,1.9648,2.1164,2.1803,2.1954,2.3419,2.3325,2.2251,2.1767,2.1765,2.1977,2.1421,2.1004,2.0528,1.9239,0.0,0.0,0.0,0.0,0.0,0.0,0.0,0.0,0.0,0.0,0.0,0.0,0.0,0.0,0.0,0.0,0.0,0.0,0.0,0.0,0.0,0.0,0.0,0.0,2.6246,2.7923,2.891,2.9074,2.9414,3.0176,2.917,2.8337,2.8212,2.6945,2.5964,2.5565,2.4664,2.3907,2.3442,2.228,0.0,0.0,0.0,2.1109,2.1109,2.1109,2.1109,2.1109,2.1109,2.0975,2.0753,2.0753,2.0588,2.0304,2.0264,2.025,2.025,2.0224,2.0197,2.0157,1.9666,1.9305,1.9036,1.901,1.9185,1.9441,0.0,0.0,0.0,0.0,0.0,0.0,0.297,0.2919,0.3893,0.6671,0.8589,1.0603,1.3014,1.4376,1.5032,1.4848,1.3127,1.188,1.1432,1.1147,1.1761,1.3463,1.4909,1.5848,1.6173,1.7362,1.821,1.8734,1.8734,1.9108,1.9844,2.0087,1.9951,1.9519,1.9979,2.0042,1.9849,2.0464,2.071,2.0767,2.1385,2.2395,2.3457,2.3356,2.315,2.2868,2.2284,2.2862,2.3658,2.1817,2.1874,2.2496,2.1506,2.0527,0.0,0.0,0.0,0.0,0.0,0.0,0.0,0.0,0.0,0.0,0.0,0.0,0.0,0.0,0.0,0.0,0.0,0.0,0.0,2.6085,2.7612,2.8905,2.9833,3.0273,3.0566,3.0742,2.9356,2.7995,2.6904,2.5375,2.4,2.285,2.2585,2.2416,2.2307,2.187,2.1555,2.1502,2.1229,2.1109,2.1109,2.1109,2.1109,2.1109,2.1109,0.0,2.1029,2.1029,2.0989,2.0891,2.0695,2.0588,2.0575,2.0304,2.0197,2.0197,2.0077,1.9997,1.9917,1.972,1.9666,1.9679,0.0,0.0,0.0,0.0,0.0,0.0,0.3003,0.3002,0.3768,0.592,0.7504,0.8973,1.0354,1.1236,1.1537,1.0989,1.0308,1.0334,1.133,1.1607,1.2475,1.4078,1.5228,1.6063,1.6545,1.7446,1.8206,1.8801,1.8801,1.8871,1.9004,1.9339,1.8985,1.8124,1.8719,1.874,1.8368,1.9361,1.9796,1.9877,2.0931,2.1904,2.2823,2.3484,2.3916,2.4094,2.3541,2.3619,2.3732,2.2356,2.2393,2.2836,2.189,2.1362,2.0895,0.0,0.0,0.0,0.0,0.0,0.0,0.0,0.0,0.0,0.0,0.0,0.0,0.0,0.0,2.3128,2.3788,0.0,2.652,2.7787,2.8873,2.9863,3.0742,3.1055,3.0896,2.9998,2.8414,2.689,2.5534,2.4054,2.2883,2.2043,2.2291,2.2331,2.2037,2.1991,2.1957,2.181,2.163,2.155,2.155,2.155,2.155,2.155,2.1403,2.1368,2.1323,2.1176,2.1109,2.1096,2.0962,2.0895,2.0882,2.0735,2.0637,2.0637,2.0637,2.0464,2.0184,2.0037,1.9983,2.0,0.0,0.0,0.0,0.0,0.0,0.0,0.3027,0.3101,0.3679,0.5187,0.6476,0.7408,0.7796,0.8284,0.8178,0.7234,0.8011,0.939,1.1379,1.227,1.3352,1.4781,1.5311,1.6191,1.7477,1.7726,1.83,1.9273,1.9273,1.8879,1.8149,1.8681,1.8156,1.675,1.7558,1.752,1.6977,1.8371,1.9005,1.9181,2.0451,2.1146,2.1487,2.2465,2.3474,2.4298,2.399,2.3336,2.2515,2.2068,2.211,2.2258,2.1656,2.1776,2.1983,2.0919,2.1113,0.0,0.0,0.0,0.0,0.0,0.0,0.0,0.0,2.2308,2.3219,2.277,2.3666,2.483,2.5784,2.7117,2.8344,2.9146,2.9944,3.0703,3.1396,3.1283,3.0472,2.8763,2.7342,2.5991,2.4638,2.3222,2.2352,2.2198,2.2572,2.2626,2.2211,2.2271,2.2258,2.2071,2.2017,2.1991,2.1991,2.1991,2.1991,2.201,2.1783,2.1662,2.1662,2.1336,2.1189,2.1189,2.1136,2.1109,2.1109,2.1109,2.1109,2.1109,2.1109,2.0784,2.037,2.0304,2.029,2.0277,0.0,0.0,0.0,0.0,0.0,0.0,0.0,0.0,0.3339,0.4478,0.5032,0.5647,0.6499,0.6868,0.6834,0.63,0.8205,0.985,1.075,1.2473,1.4266,1.6029,1.6163,1.6386,1.6792,1.6833,1.6921,1.707,1.707,1.6984,1.69,1.6982,1.6907,1.6714,1.7118,1.7362,1.7528,1.7942,1.8306,1.8564,1.8455,1.9161,2.0238,1.9852,2.0502,2.1677,2.1977,2.1536,2.0892,2.1646,2.1866,2.1949,2.2791,2.2778,2.2311,2.1537,2.1555,2.1605,2.0445,2.1532,2.302,2.3105,2.3609,2.4428,0.0,2.6262,2.6342,2.6166,2.6871,2.7366,2.6943,2.7904,2.8976,2.9474,3.0585,3.1406,3.1474,3.0478,2.9124,2.7498,2.7119,2.644,2.4982,2.3348,2.2512,2.2773,2.2579,2.2552,2.2786,2.2331,2.2138,2.2365,2.2124,2.1991,2.1991,2.1991,2.1991,2.1991,2.1984,2.197,2.1957,2.1662,2.1542,2.1529,2.1229,2.1109,2.1109,2.1109,2.1109,2.1109,2.1109,2.1069,2.0975,2.0722,2.0628,2.0588,0.0,0.0,0.0,0.0,0.0,0.0,0.0,0.0,0.3232,0.3838,0.4072,0.4397,0.4951,0.5284,0.5448,0.5407,0.7551,0.943,1.0672,1.2863,1.4767,1.623,1.6458,1.658,1.67,1.7048,1.7221,1.7221,1.7382,1.7555,1.7742,1.7382,1.7408,1.7742,1.7689,1.7836,1.8116,1.825,1.837,1.8464,1.8143,1.8251,1.8601,1.8192,1.8135,1.8542,2.0465,2.1047,0.0,2.078,2.0703,2.072,2.1188,2.1195,2.0978,2.0672,2.1249,2.2084,2.2322,2.3029,2.3675,2.3684,2.4541,2.5474,2.5776,2.6476,2.7052,2.6895,2.7563,2.8229,2.8486,2.9141,2.9902,3.0586,3.1152,3.1253,3.0557,2.9971,2.856,2.5755,2.5531,2.5087,2.36,2.2807,2.2539,2.288,2.2786,2.276,2.2893,2.2666,2.2586,2.2672,2.2586,2.2532,2.2532,2.2532,2.2532,2.2532,2.2325,2.2231,2.2231,2.197,2.1743,2.1569,2.1243,2.1109,2.1109,2.1109,2.1109,2.1109,2.1109,2.1109,2.1096,2.0975,2.0922,2.0909,0.0,0.0,0.0,0.0,0.0,0.0,0.0,0.0,0.0,0.0,0.3733,0.3889,0.4112,0.4403,0.4711,0.5011,0.6859,0.8751,1.0476,1.2681,1.4581,1.6086,1.6605,1.6901,1.7074,1.7569,1.7862,1.7862,1.8036,1.8263,1.8477,1.8036,1.8063,1.8477,1.8236,1.8384,1.8731,1.8651,1.8704,1.8811,1.8329,1.7956,1.7648,1.7086,1.6838,1.7069,1.9249,1.9963,1.987,1.983,1.9766,1.972,1.9919,2.0176,2.0392,2.0187,2.109,2.2445,2.3666,2.4463,2.4921,2.4743,2.5873,2.682,2.6075,2.6788,2.7574,2.7373,2.8047,2.8894,2.9637,3.0098,3.0644,3.1377,3.1494,3.1071,2.9854,2.923,2.7668,2.4483,2.3767,2.3121,2.213,2.2271,2.2512,2.2726,2.2853,2.2893,2.2893,2.2974,2.2987,2.2893,2.2974,2.2987,2.2893,2.2893,2.2893,2.2893,2.2645,2.2539,2.2525,2.2245,2.1951,2.1689,2.1443,2.1309,2.1229,2.1229,2.1189,2.1046,2.0557,2.0386,2.0322,1.9846,1.9973,2.0386,0.0,0.0,0.0,0.0,0.0,0.0,0.0,0.0,0.0,0.0,0.4156,0.4334,0.4479,0.4671,0.4951,0.5354,0.6399,0.7898,0.9898,1.1552,1.3474,1.5728,1.6698,1.7434,1.7942,1.8303,1.8464,1.8464,1.8477,1.8477,1.849,1.8477,1.8477,1.849,1.8477,1.8826,1.9348,1.9038,1.9239,1.9679,1.8824,1.8303,1.7836,1.6518,1.6959,1.824,1.8345,1.759,1.6864,1.8919,1.9393,1.9253,1.9964,2.0823,2.14,2.0625,2.1337,2.2606,2.3641,2.5619,2.7347,2.7076,2.815,2.9062,2.8116,2.8299,2.8572,2.8305,2.8973,2.9696,3.0098,3.0547,3.1016,3.1416,3.1494,3.1071,2.9854,2.7961,2.5997,2.4053,2.2038,2.0891,2.1122,2.1891,2.2385,2.2398,2.2733,2.2893,2.2893,2.3153,2.318,2.2907,2.3153,2.3166,2.2893,2.2893,2.2893,2.2893,2.2893,2.288,2.288,2.2539,2.2245,2.201,2.1964,2.1836,2.1569,2.1569,2.1395,2.0919,1.9259,1.8576,1.8372,1.6689,1.7141,1.8576,0.0,0.0,0.0,0.0,0.0,0.0,0.0,0.0,0.0,0.0,0.0,0.0,0.0,0.0,0.0,0.0,0.651,0.7758,0.9564,1.1383,1.3073,1.4616,1.5909,1.6779,1.7129,1.7635,1.7983,1.8169,1.8397,1.849,1.849,1.8691,1.8784,1.8784,1.9013,1.9214,1.9374,1.9052,1.889,1.8851,1.7983,1.769,1.7651,1.6944,1.7119,1.7865,0.0,1.8335,1.7719,1.8029,1.8054,1.802,1.8364,1.9056,1.999,2.1237,2.217,2.3092,2.4456,2.6212,2.7526,2.713,2.8181,2.9199,2.8707,2.8947,2.9284,2.9192,2.9043,2.8967,2.9124,2.9059,2.9305,3.0283,3.0605,3.0373,2.941,2.7727,2.5709,2.3339,2.1664,2.0641,2.0504,2.1117,2.179,2.2378,2.2512,2.2659,2.288,2.3153,2.318,2.2907,2.3166,2.318,2.2893,2.2893,2.2893,2.2893,2.2893,2.2893,2.288,2.2352,2.2178,2.2258,2.1903,2.1783,2.1877,2.1877,2.1703,2.1371,2.0779,1.9708,1.8276,1.6528,1.5524,1.5232,0.0,0.0,0.0,0.0,0.0,0.0,0.0,0.0,0.0,0.0,0.0,0.0,0.0,0.0,0.0,0.0,0.0,0.7204,0.8852,1.0403,1.1832,1.3152,1.4442,1.5334,1.5768,1.6265,1.6693,1.7006,1.7417,1.7673,1.7726,1.8104,1.829,1.8303,1.8625,1.8812,1.8865,1.8464,1.8291,1.8225,1.7592,1.739,1.7421,1.7217,1.7305,0.0,1.8366,1.8578,1.8483,1.8011,1.7793,1.778,1.8107,1.899,2.0238,2.1932,2.3356,2.4667,2.5798,2.7613,2.8991,2.8036,2.8865,2.974,2.9061,2.9141,2.9188,2.8662,2.8595,2.8514,2.8113,2.8289,2.8818,2.9786,3.0026,2.9794,2.8972,2.7181,2.521,2.3097,2.1577,2.0641,2.0517,2.0851,2.139,2.2058,2.2405,2.2659,2.288,2.3354,2.3447,2.3081,2.3327,2.3287,2.2893,2.2893,2.2893,2.2893,2.2893,2.2893,2.288,2.2505,2.2439,2.2552,2.2211,2.2104,2.2138,2.2138,2.1602,2.0739,2.0804,1.9197,1.6681,1.5629,1.4084,1.2778,0.0,0.0,0.0,0.0,0.0,0.0,0.0,0.0,0.0,0.0,0.0,0.0,0.0,0.0,0.0,0.0,0.0,0.0,0.7858,0.8711,0.9836,1.1414,1.2396,1.326,1.3959,1.4347,1.4723,1.5133,1.5718,1.6074,1.6242,1.6842,1.7121,1.7162,1.7418,1.7701,1.7916,1.7392,1.7426,1.7836,1.7593,1.7383,1.7215,1.7278,1.7513,1.7838,1.782,1.8304,1.8938,1.8769,1.8574,1.8511,1.9152,2.0539,2.2044,2.2707,2.4814,2.7028,2.7435,2.9616,3.1367,2.974,3.013,3.0582,2.9206,2.8887,2.8486,2.7041,2.7759,2.8263,2.7195,2.8239,2.9368,2.9876,2.9769,2.938,2.8667,2.6489,2.455,2.3414,2.179,2.0886,2.1122,2.1162,2.1296,2.1622,2.2412,2.2893,2.2934,2.3728,2.3941,2.3332,2.3634,2.3549,2.2947,2.2947,2.2934,2.292,2.292,2.2907,2.2893,2.288,2.288,2.2893,2.288,2.2686,2.2445,2.2445,2.1175,1.9244,1.9366,1.712,1.3806,1.3951,1.2795,1.1393,0.0,0.0,0.0,0.0,0.0,0.0,0.0,0.0,0.0,0.0,0.0,0.0,0.0,0.0,0.0,0.0,0.0,0.0,0.7388,0.8049,0.8813,0.9766,1.1059,1.1952,1.2447,1.3176,1.3718,1.4019,1.4466,1.4857,1.5197,1.5647,1.6012,1.6323,1.6593,1.6908,1.7213,1.6895,1.6926,1.7156,1.6506,1.6722,1.7406,1.7206,1.7701,1.8518,1.896,1.8901,1.8662,1.8845,1.9274,1.9769,2.0091,2.098,2.221,2.3812,2.507,2.6285,2.7823,2.908,2.988,2.9615,2.9742,2.9766,2.9066,2.882,2.8543,2.7809,2.7462,2.7245,2.7088,2.6887,2.7243,2.8789,2.8822,2.9129,3.0497,2.7998,2.5919,2.5725,2.3325,2.1716,2.175,2.1951,2.2205,2.2546,2.2525,2.2819,2.3536,2.3955,2.4035,2.3674,2.3941,2.3915,2.3576,2.3576,2.3469,2.3207,2.3207,2.3086,2.2893,2.2632,2.2645,2.288,2.2632,2.2619,2.2786,2.2786,2.1467,1.9502,1.9535,1.7198,1.3806,1.384,1.2727,1.1255,0.0,0.0,0.0,0.0,0.0,0.0,0.0,0.0,0.0,0.0,0.0,0.0,0.0,0.0,0.0,0.0,0.0,0.0,0.0,0.7667,0.8171,0.8659,0.9627,1.0321,1.0699,1.1504,1.2097,1.247,1.3052,1.3454,1.3716,1.4119,1.4496,1.4873,1.5113,1.5503,1.5972,1.5667,1.5786,0.0,0.0,1.6227,1.6852,1.7188,1.7577,1.7982,1.8604,1.8826,1.8946,1.953,2.0526,2.1503,2.1369,2.2653,2.4385,2.5145,2.6366,2.768,2.8606,2.9559,3.024,2.9944,2.9598,2.9231,2.8906,2.8623,2.812,2.717,2.7042,2.6802,2.576,2.6023,2.6615,2.72,2.7889,2.8634,2.9439,2.7586,2.5995,2.5676,2.3716,2.2452,2.2565,2.2726,2.2993,2.3455,2.33,2.3367,2.379,2.4325,2.4396,2.3968,2.4115,2.4062,2.3803,2.3647,2.3554,2.3514,2.3247,2.31,2.306,2.2752,2.2699,2.288,2.2686,2.2746,2.2825,2.2022,2.0452,1.8555,1.8555,1.6223,1.2916,1.3772,1.2916,1.1355,0.0,0.0,0.0,0.0,0.0,0.0,0.0,0.0,0.0,0.0,0.0,0.0,0.0,0.0,0.0,0.0,0.0,0.0,0.0,0.0,0.7736,0.7876,0.8351,0.877,0.9111,0.9864,1.0476,1.0918,1.1671,1.2115,1.227,1.2584,1.2952,1.3326,1.3498,1.3951,1.4584,1.4295,1.4548,1.5174,1.5609,1.584,1.6033,0.0,1.7209,1.6983,1.7658,1.8434,1.9329,2.0411,2.1809,2.3039,2.2688,2.4573,2.6829,2.643,2.7883,2.9572,2.9466,3.0396,3.1223,3.0331,2.9473,2.8743,2.8507,2.812,2.7393,2.598,2.6645,2.673,2.4353,2.5754,2.6905,2.5881,2.7247,2.8185,2.7389,2.6445,2.5544,2.464,2.3638,2.31,2.3372,2.3439,2.3692,2.4275,2.4356,2.4235,2.3901,2.4686,2.4823,2.4275,2.4262,2.4142,2.3924,2.3634,2.3607,2.3857,2.3335,2.314,2.3278,2.3121,2.2974,2.2893,2.2934,2.2796,2.24,2.0756,1.8809,1.6875,1.6875,1.4741,1.1854,1.3456,1.3034,1.1653,0.0,0.0,0.0,0.0,0.0,0.0,0.0,0.0,0.0,0.0,0.0,0.0,0.0,0.0,0.0,0.0,0.0,0.0,0.0,0.0,0.0,0.7334,0.7842,0.8307,0.8696,0.9536,1.0142,1.0504,1.0927,1.1447,1.2042,1.1893,1.2199,1.2922,1.2929,1.3399,1.4109,1.4073,1.4543,1.5349,1.5283,1.5525,1.6013,1.6386,1.6687,0.0,1.8023,1.8462,1.8844,2.0597,2.1828,2.2716,2.3247,2.4361,2.5725,2.7047,2.7742,2.8376,2.9695,3.0241,3.0311,2.983,2.907,2.8075,2.6843,2.6685,2.6527,2.5788,2.6476,2.688,2.5721,2.6615,2.7388,2.6895,2.7905,2.8614,2.8221,2.6989,2.5929,2.5366,2.433,2.3763,2.4022,2.4239,2.4519,2.4903,2.5144,2.505,2.4479,2.4863,2.4917,2.4532,2.4519,2.4492,2.4452,2.4399,2.4279,2.4128,2.4022,2.3741,2.3305,2.3527,2.3375,2.2907,2.314,2.2219,2.0548,2.0236,1.8135,1.5138,1.5138,1.3868,1.2046,1.2202,1.2164,1.2002,0.0,0.0,0.0,0.0,0.0,0.0,0.0,0.0,0.0,0.0,0.5417,0.0,0.0,0.0,0.0,0.0,0.0,0.0,0.0,0.0,0.0,0.7555,0.8116,0.8521,0.8751,0.9654,1.0201,1.0388,0.0,1.119,1.1689,1.1493,1.1851,1.2685,1.2551,1.3018,1.3945,1.3834,1.4245,1.4989,1.5062,1.5369,1.5762,1.6087,1.6574,0.0,1.8169,1.8677,1.9187,2.0868,2.2003,2.2899,2.4036,2.5315,2.657,2.7437,2.8008,2.8545,2.9597,3.0209,3.0449,3.0,2.875,2.7475,2.6954,2.6095,2.5506,2.5888,2.6433,2.6539,2.5559,2.6368,2.6976,2.6421,2.6742,2.6963,2.6569,2.557,2.4718,2.4199,2.394,2.3941,2.4382,2.4519,2.4756,2.5064,2.5344,2.5317,2.489,2.485,2.4783,2.4599,2.4599,2.4599,2.4599,2.4452,2.4422,2.4386,2.4128,2.3915,2.3781,2.3768,2.3063,2.1757,2.1894,2.0757,1.877,1.7806,1.6355,1.4709,1.3735,1.2838,1.2091,1.1979,1.2036,1.2091,0.0,0.0,0.0,0.0,0.0,0.0,0.0,0.4898,0.5258,0.5413,0.598,0.6211,0.5825,0.5658,0.0,0.0,0.0,0.0,0.0,0.0,0.0,0.0,0.8468,0.8856,0.9022,0.0,0.0,1.0503,1.0791,0.0,0.0,0.0,0.0,0.0,1.2366,1.2876,1.3826,1.3626,1.3923,0.0,0.0,1.5174,1.5356,0.0,0.0,0.0,0.0,1.8781,1.9424,2.0987,2.2001,2.2891,2.4436,2.608,2.7432,2.7572,2.8301,2.9137,2.9514,3.0247,3.0742,3.0078,2.8398,2.6889,2.6962,2.5573,2.4613,2.5873,2.6349,2.6217,2.5296,2.6272,2.6887,2.5908,2.6009,2.5897,2.4861,2.4318,2.3732,2.291,2.3388,2.3995,2.4546,2.4599,2.4746,2.5144,2.5384,2.5411,2.5184,2.4799,2.4599,2.4599,2.4599,2.4599,2.4599,2.4372,2.4372,2.4586,2.4168,2.4048,2.4195,2.4035,2.2773,2.0682,2.0777,1.9413,1.6992,1.5497,1.4675,1.4205,1.2737,1.2166,1.2186,1.2159,1.2166,1.2186,0.0,0.0,0.0,0.0,0.0,0.0,0.0,0.505,0.5434,0.611,0.6211,0.6337,0.6652,0.6345,0.0,0.0,0.0,0.0,0.0,0.0,0.0,0.0,0.0,0.0,0.0,0.0,0.0,1.0859,1.0769,0.0,0.0,0.0,0.0,0.0,0.0,1.3027,1.3619,1.3414,0.0,0.0,0.0,0.0,0.0,0.0,0.0,0.0,0.0,1.8428,1.8861,2.0561,2.1366,2.1955,2.3857,2.555,2.6865,2.7238,2.8386,2.9546,2.9597,3.0242,3.0586,2.9328,2.7734,2.6245,2.5478,2.4573,2.4176,2.534,2.6074,2.6351,2.5884,2.7309,2.7982,2.6418,2.7566,2.7699,2.484,2.4841,2.4485,2.2665,2.3233,2.3995,2.4546,2.4599,2.4826,2.5424,2.5504,2.5504,2.5478,2.4906,2.4599,2.4599,2.4599,2.4599,2.4599,2.4572,2.4572,2.4599,2.4546,2.4399,2.4209,2.4412,2.3143,2.073,2.1,1.8869,1.5129,1.4982,1.3984,1.2529,1.2347,1.2345,1.2447,1.2318,1.2352,1.244,0.0,0.0,0.0,0.0,0.0,0.0,0.0,0.5308,0.5773,0.634,0.6749,0.6961,0.6929,0.6842,0.0,0.0,0.0,0.0,0.0,0.0,0.0,0.0,0.0,0.0,0.0,0.0,1.0447,1.0726,1.0834,0.0,0.0,0.0,0.0,0.0,0.0,1.3467,1.4239,1.4055,0.0,0.0,0.0,0.0,0.0,0.0,0.0,0.0,0.0,0.0,1.9945,2.1162,2.1912,2.2584,2.3904,2.5125,2.6122,2.6664,2.7558,2.8512,2.9039,2.9641,2.9931,2.9094,2.7246,2.5642,2.5738,2.4526,2.3909,2.5788,2.6337,2.6562,2.682,2.7371,2.7524,2.6688,2.6272,2.5332,2.3255,2.255,2.203,2.1452,2.2151,2.314,2.4262,2.469,2.5077,2.5478,2.5518,2.5438,2.5264,2.4826,2.4599,2.4599,2.4599,2.4599,2.4599,2.4599,2.4599,2.4599,2.4599,2.4532,2.4426,2.4546,2.2695,1.9436,1.9559,1.7265,1.3452,1.3452,1.3039,1.242,1.242,1.2454,1.2494,1.244,1.2454,1.2494,0.0,0.0,0.0,0.0,0.0,0.0,0.5115,0.5551,0.6011,0.6501,0.6957,0.7211,0.7155,0.7112,0.6969,0.6668,0.0,0.0,0.0,0.0,0.0,0.0,0.0,0.0,0.0,0.0,1.0554,1.0801,1.1,1.1273,0.0,0.0,1.2244,1.3065,0.0,0.0,0.0,0.0,0.0,0.0,0.0,0.0,0.0,0.0,0.0,0.0,0.0,0.0,0.0,0.0,0.0,2.307,2.4103,2.4949,2.5608,2.6119,2.7038,2.7962,2.8309,2.8911,2.9201,2.8354,2.6704,2.537,2.5849,2.4724,2.4183,2.6323,2.6648,2.6771,2.7377,2.7469,2.7295,2.6888,2.5784,2.4545,2.3263,2.1793,2.1239,2.2165,2.2032,2.2632,2.4549,2.5036,2.5224,2.5213,2.5411,2.5344,2.497,2.4719,2.4599,2.4599,2.4599,2.4599,2.4599,2.4599,2.4599,2.4599,2.4599,2.4599,2.4599,2.4599,2.2397,1.861,1.861,1.6265,1.2501,1.2501,1.2501,1.2501,1.2501,1.2501,1.2501,1.2501,1.2501,1.2501,0.0,0.0,0.0,0.0,0.0,0.0,0.0,0.5765,0.6087,0.6627,0.6644,0.6831,0.7431,0.7089,0.6904,0.7165,0.0,0.0,0.0,0.0,0.0,0.0,0.0,0.0,0.0,0.0,1.0896,1.1291,1.131,1.1366,1.1508,1.1844,1.2191,1.2508,0.0,0.0,0.0,0.0,0.0,0.0,0.0,0.0,1.6666,0.0,0.0,0.0,0.0,0.0,0.0,0.0,0.0,0.0,0.0,2.5037,2.536,2.562,2.707,2.8383,2.7467,2.8091,2.86,2.6872,2.6012,2.5561,2.5424,2.5048,2.5135,2.6749,2.6925,2.693,2.7397,2.7766,2.7722,2.6931,2.7024,2.681,2.571,2.3773,2.3338,2.5662,2.338,2.2738,2.5691,2.5676,2.5264,2.4653,2.5146,2.5251,2.4639,2.4599,2.4599,2.4599,2.4599,2.4599,2.4599,2.4599,2.4599,2.4599,2.4599,2.4599,2.4599,2.4599,2.2397,1.861,1.861,1.6265,1.2501,1.2501,1.2501,1.2501,1.2501,1.2501,1.2501,1.2501,1.2501,1.2501,0.0,0.0,0.0,0.0,0.0,0.0,0.0,0.6046,0.6292,0.6649,0.7004,0.7225,0.722,0.7092,0.7033,0.7133,0.0,0.0,0.0,0.0,0.0,0.0,0.0,0.0,0.0,0.0,0.0,1.1717,1.1854,1.1936,1.1973,1.2086,1.2387,1.2848,1.3009,1.3433,0.0,0.0,0.0,0.0,1.6399,1.6812,1.6812,0.0,0.0,0.0,0.0,0.0,0.0,0.0,0.0,0.0,0.0,0.0,0.0,2.6159,2.678,2.7251,2.7265,2.7478,2.757,2.702,2.5992,2.5165,2.5374,2.4986,2.5081,2.6652,2.6982,2.7151,2.7686,2.7714,2.7546,2.7151,2.6879,2.6172,2.4573,2.3141,2.2489,2.3163,2.3346,2.3907,2.5248,2.5303,2.5144,2.4957,2.5117,2.505,2.4626,2.4599,2.4599,2.4599,2.4599,2.4599,2.4599,2.4599,2.4599,2.4599,2.4599,2.4599,2.4599,2.4599,2.3153,2.0579,1.9214,1.7056,1.4437,1.3074,1.2501,1.2501,1.2501,1.2501,1.2501,1.2501,1.2501,1.2501,0.0,0.0,0.0,0.0,0.0,0.0,0.0,0.6208,0.6435,0.6693,0.6987,0.7205,0.7313,0.7192,0.7175,0.7377,0.0,0.0,0.0,0.0,0.0,0.0,0.0,0.0,0.0,0.0,0.0,0.0,0.0,1.1981,1.2016,1.2271,1.2584,1.2961,1.31,1.3462,0.0,0.0,0.0,0.0,1.645,1.6831,1.6677,0.0,0.0,0.0,0.0,0.0,0.0,0.0,0.0,0.0,0.0,0.0,0.0,0.0,2.6501,2.6474,2.6823,2.6958,2.6899,2.6537,2.5829,2.5289,2.5522,2.537,2.5424,2.6359,2.6768,2.6982,2.7088,2.688,2.6746,2.7041,2.6498,2.5956,2.5649,2.3856,2.245,2.2098,2.3719,2.4861,2.4786,2.5002,2.5037,2.4917,2.5024,2.4957,2.4613,2.4599,2.4599,2.4599,2.4599,2.4599,2.4599,2.4599,2.4599,2.4599,2.4599,2.4599,2.4599,2.4599,2.3079,2.0429,1.993,1.7701,0.0,1.383,1.319,1.2501,1.2501,1.2501,1.2501,1.2501,1.2501,1.2501,0.0,0.0,0.0,0.0,0.0,0.0,0.0,0.0,0.0,0.0,0.6751,0.6947,0.7614,0.7379,0.7385,0.0,0.0,0.0,0.0,0.0,0.0,0.0,0.0,0.0,0.0,0.0,0.0,1.0884,1.1418,1.1728,1.1811,0.0,1.2815,1.2922,1.3138,1.3528,0.0,0.0,0.0,0.0,1.6081,1.6481,0.0,0.0,0.0,0.0,0.0,0.0,0.0,0.0,0.0,0.0,0.0,0.0,0.0,0.0,0.0,0.0,0.0,2.6528,2.6574,2.5681,2.56,2.5738,2.5857,2.5975,0.0,2.6051,2.6411,2.6563,2.6057,2.5655,2.5714,2.6842,2.6089,2.6088,2.8152,2.5591,2.3154,2.2334,2.4399,2.5487,2.438,2.4763,2.493,2.4599,2.4877,2.4917,2.4586,2.4572,2.4572,2.4599,2.4559,2.4559,2.4599,2.4599,2.4599,2.4599,2.4599,2.4599,2.4599,2.4599,2.2546,1.9139,2.0841,1.8383,1.3267,1.4859,1.4399,1.2695,1.2579,1.2501,1.2501,1.2501,1.2501,1.2501,0.0,0.0,0.0,0.0,0.0,0.0,0.0,0.0,0.0,0.0,0.0,0.7616,0.7481,0.7751,0.0,0.0,0.0,0.0,0.0,0.0,0.0,0.0,0.0,0.0,0.0,0.0,0.0,1.1721,1.226,1.2603,1.2767,1.2969,0.0,0.0,1.3336,0.0,0.0,0.0,0.0,0.0,1.6931,1.7209,0.0,0.0,0.0,0.0,1.8248,1.8772,0.0,0.0,0.0,0.0,0.0,0.0,0.0,0.0,2.6,2.6275,2.6071,0.0,2.6426,2.6087,2.5942,2.5828,0.0,2.5695,2.5907,2.655,2.6785,2.6999,2.7548,2.6776,2.6541,2.8048,2.7026,2.6331,2.703,2.5395,2.3978,2.3757,2.4428,2.4675,2.3986,2.4392,2.4586,2.4329,2.4583,2.4572,2.4315,2.4302,2.4409,2.4586,2.4209,2.4195,2.4599,2.4599,2.4599,2.4599,2.4599,2.4599,2.4599,2.4599,2.4068,2.3116,2.2049,2.0804,1.9252,1.6599,1.5234,1.4629,1.3112,1.2501,1.2501,1.2501,1.2501,1.2501,0.0,0.0,0.0,0.0,0.0,0.0,0.0,0.0,0.0,0.0,0.0,0.0,0.0,0.0,0.0,0.0,0.0,0.0,0.0,0.0,0.0,0.0,0.0,0.0,0.0,0.0,0.0,0.0,0.0,1.2837,0.0,0.0,0.0,0.0,0.0,0.0,0.0,0.0,1.523,1.5387,1.6729,0.0,0.0,0.0,0.0,0.0,1.8521,1.9057,0.0,2.1316,2.2139,2.2707,0.0,0.0,0.0,0.0,2.5715,2.6107,2.6023,2.6249,2.6508,2.6361,2.6119,2.5875,2.5746,2.58,2.5889,2.6078,2.6576,2.706,2.7248,2.6678,2.6539,2.7701,2.6402,2.5212,2.5076,2.4485,2.4059,2.4019,2.4157,2.4168,2.3981,2.4249,2.4315,2.4022,2.4155,2.4168,2.4008,2.4008,2.4075,2.4235,2.3928,2.4048,2.4586,2.4466,2.4466,2.4599,2.4599,2.4599,2.4599,2.4599,2.4105,2.319,2.3042,2.1403,1.8723,1.7436,1.5807,1.4022,1.2919,1.2501,1.2501,1.2501,1.2501,1.2501,0.0,0.0,0.0,0.0,0.0,0.0,0.0,0.0,0.0,0.0,0.0,0.0,0.0,0.0,0.0,0.0,0.0,0.0,0.0,0.0,0.0,0.0,0.0,0.0,0.0,0.0,0.0,0.0,0.0,0.0,0.0,0.0,1.4576,0.0,0.0,0.0,0.0,1.4604,1.5024,1.5641,1.6303,0.0,0.0,0.0,0.0,0.0,0.0,0.0,0.0,2.1246,2.2128,2.279,2.3497,0.0,0.0,0.0,0.0,0.0,2.5923,2.6272,2.6527,2.6311,2.599,2.5735,2.5773,2.5835,2.5812,2.5588,2.6421,2.6935,2.6112,2.6023,2.6071,2.6225,2.4884,2.3781,2.3568,2.3664,2.3777,2.3917,2.3894,2.3901,2.4048,2.4115,2.4022,2.3728,2.3777,2.379,2.3736,2.3701,2.3763,2.3803,2.371,2.3915,2.4466,2.4262,2.4289,2.4532,2.4532,2.4559,2.4599,2.4599,2.3685,2.2161,2.387,2.1478,1.6523,1.8005,1.6371,1.2919,1.2617,1.2501,1.2501,1.2501,1.2501,1.2501,0.0,0.0,0.0,0.0,0.0,0.0,0.0,0.0,0.0,0.0,0.0,0.0,0.0,0.0,0.0,0.0,0.0,0.0,0.0,0.0,0.0,0.0,0.0,0.0,0.0,0.0,0.0,0.0,0.0,0.0,1.4698,1.4726,1.4875,1.5075,0.0,0.0,0.0,1.5342,1.5722,1.6002,1.6963,0.0,0.0,0.0,0.0,0.0,0.0,0.0,0.0,2.1127,2.2259,2.3058,2.3675,0.0,0.0,0.0,0.0,0.0,2.5363,2.5728,2.5912,2.5355,2.5063,2.4963,2.523,2.5062,2.525,2.6755,2.7396,2.7111,2.5199,2.5632,2.5632,2.3643,2.3254,2.3731,2.5311,2.4299,2.3685,2.4455,2.4302,2.3955,2.3465,2.3688,2.3714,2.342,2.3634,2.3696,2.3372,2.3394,2.3514,2.3803,2.3308,2.3322,2.3937,2.3897,2.3981,2.4262,2.4262,2.4396,2.4599,2.4599,2.4438,2.4142,2.4488,2.3116,2.0579,1.9176,1.7208,1.4859,1.3151,1.2501,1.2501,1.2501,1.2501,1.2501,0.0,0.0,0.0,0.0,0.0,0.0,0.0,0.0,0.0,0.0,0.0,0.0,0.0,0.0,0.0,0.0,0.0,0.0,0.0,0.0,0.0,0.0,0.0,0.0,0.0,0.0,0.0,0.0,0.0,1.4568,1.5381,1.5354,1.5443,1.5559,0.0,0.0,1.4789,1.5568,1.6116,1.6505,0.0,0.0,0.0,0.0,0.0,0.0,0.0,0.0,0.0,0.0,2.2135,2.307,2.342,0.0,0.0,0.0,0.0,0.0,2.5586,2.5968,2.5977,2.4422,2.4479,2.4788,2.4386,2.4753,2.5389,2.5976,2.6458,2.6301,2.4723,2.4899,2.4646,2.2689,2.2317,2.2511,2.3245,2.2783,2.273,2.3628,2.3598,2.3447,2.3305,2.3447,2.3407,2.31,2.3241,2.3255,2.3086,2.3073,2.314,2.3308,2.3041,2.3027,2.3308,2.3308,2.3549,2.3968,2.4128,2.4275,2.4372,2.4532,2.4031,2.2967,2.2967,2.1216,1.8222,1.7322,1.5731,1.3799,1.2842,1.2501,1.2501,1.2501,1.2501,1.2501,0.0,0.0,0.0,0.0,0.0,0.0,0.0,0.0,0.0,0.0,0.0,0.0,0.0,0.0,0.0,0.0,0.0,0.0,0.0,0.0,0.0,0.0,0.0,0.0,0.0,0.0,1.2834,1.3377,1.433,1.5229,1.604,1.5999,1.6026,0.0,0.0,1.4926,1.5169,1.59,1.6527,1.7075,0.0,0.0,0.0,0.0,0.0,0.0,0.0,0.0,0.0,0.0,0.0,0.0,0.0,0.0,0.0,2.5051,2.5338,2.5574,2.5726,2.5996,2.5851,2.4155,2.4094,2.4329,2.3831,2.4459,2.5231,2.5657,2.605,2.5916,2.4471,2.3767,2.316,2.2461,2.1944,2.1554,2.1427,2.1737,2.2251,2.292,2.3,2.306,2.3265,2.3158,2.302,2.2813,2.2786,2.276,2.2693,2.2827,2.284,2.2693,2.276,2.276,2.2693,2.2693,2.3027,2.371,2.3888,2.4035,2.4115,2.3907,2.2942,2.147,2.1081,1.8826,1.5501,1.5501,1.433,1.2501,1.2501,1.2501,1.2501,1.2501,1.2501,1.2501,0.0,0.0,0.0,0.0,0.0,0.0,0.0,0.0,0.0,0.0,0.0,0.0,0.0,0.0,0.0,0.0,0.0,0.0,0.0,0.0,0.0,0.0,0.0,0.0,0.0,1.3479,1.3949,1.5034,1.4865,1.5451,1.6725,1.6555,1.6592,1.6786,1.6119,1.6002,1.6381,1.6698,1.7227,1.7807,1.7598,0.0,0.0,0.0,0.0,0.0,0.0,0.0,0.0,0.0,0.0,0.0,0.0,0.0,2.4577,2.4431,2.4584,2.4864,2.5249,2.5134,2.5004,2.5258,2.3895,2.284,2.4116,2.3884,2.4253,2.7248,2.7804,2.6965,2.4322,2.1952,2.0993,2.2843,2.2253,2.1781,2.2245,2.2798,2.3185,2.3252,2.3265,2.3265,2.3292,2.2785,2.2472,2.2458,2.2458,2.2338,2.2091,2.2599,2.2653,2.2071,2.2311,2.2325,2.2091,2.2044,2.2485,2.3332,2.3345,2.3527,2.3772,2.2165,2.1359,2.115,1.9532,1.755,1.5501,1.5501,1.433,1.2501,1.2501,1.2501,1.2501,1.2501,1.2501,1.2501,0.0,0.0,0.0,0.0,0.0,0.0,0.0,0.0,0.0,0.0,0.0,0.0,0.0,0.0,0.0,0.0,0.0,0.0,0.0,0.0,0.0,0.0,0.0,1.359,1.4228,1.4132,1.4306,1.484,1.5574,1.6382,1.7207,1.6479,0.0,0.0,1.5993,1.6013,1.6724,1.7208,1.7492,1.7673,1.7889,1.7777,0.0,0.0,0.0,0.0,0.0,0.0,0.0,0.0,2.1959,2.303,2.2924,2.3576,2.4457,2.4624,2.4923,2.5225,2.529,2.5293,2.5151,2.4484,2.3536,2.3129,2.4401,2.4723,2.5132,2.6512,2.6923,2.6326,2.4094,2.1154,1.9876,2.226,2.2075,2.1783,2.2338,2.2779,2.3033,2.3033,2.3033,2.2966,2.2745,2.2518,2.2338,2.2164,2.2151,2.2098,2.2024,2.2224,2.2251,2.2024,2.2098,2.2098,2.1991,2.0928,2.0547,2.0869,2.117,2.0849,1.9996,1.9511,1.8587,1.7384,1.6815,1.5408,1.3504,1.36,1.319,1.2501,1.2501,1.2501,1.2501,1.2501,1.2501,1.2501,0.0,0.0,0.0,0.0,0.0,0.0,0.0,0.0,0.0,0.0,0.0,0.0,0.0,0.0,0.0,0.0,0.0,0.0,0.0,0.0,0.0,0.0,0.0,1.3564,1.4131,1.4428,1.474,1.507,1.6234,1.6913,1.7186,0.0,0.0,0.0,1.6254,1.6387,1.729,1.7814,1.7897,1.7672,1.7991,1.7757,0.0,0.0,0.0,0.0,0.0,0.0,0.0,0.0,2.1946,2.2991,2.2844,2.3451,2.4283,2.4525,2.4807,2.5075,2.4971,2.4915,2.4774,2.4263,2.3644,2.3591,2.5331,2.553,2.5483,2.5894,2.6031,2.5485,2.356,2.1916,2.1107,2.1947,2.2225,2.2327,2.2284,2.2539,2.2719,2.2626,2.2706,2.2605,2.2311,2.2205,2.2058,2.189,2.1877,2.1836,2.171,2.1884,2.1897,2.171,2.1836,2.1804,2.171,2.0006,1.8878,1.8361,1.8122,1.7815,1.745,1.7168,1.6286,1.4951,1.4505,1.3544,1.2298,1.2393,1.2461,1.2494,1.2454,1.2461,1.2501,1.2501,1.2501,1.2501,0.0,0.0,0.0,0.0,0.0,0.0,0.0,0.0,0.0,0.0,0.0,0.0,0.0,0.0,0.0,0.0,0.0,0.0,0.0,0.0,0.0,0.0,0.0,1.3463,1.3412,1.446,1.535,1.6101,1.685,1.6946,1.6504,1.615,0.0,0.0,1.7045,1.7441,1.821,1.8548,1.8429,1.7978,1.7777,1.757,1.737,0.0,0.0,0.0,0.0,0.0,0.0,0.0,2.2098,2.2991,2.2844,2.3394,2.4067,2.3935,2.4027,2.4185,2.4188,2.3732,2.3601,2.4929,2.4219,2.3999,2.6999,2.6095,2.4854,2.5729,2.555,2.4634,2.2714,2.4283,2.4974,2.2113,2.2979,2.3534,2.22,2.2231,2.2311,2.2017,2.2231,2.2298,2.2004,2.1756,2.1582,2.1614,2.1614,2.1448,2.1122,2.1657,2.171,2.1122,2.1422,2.1435,2.1077,1.9355,1.766,1.6048,1.4297,1.467,1.689,1.5355,1.4683,1.4583,1.2838,1.2186,1.2284,1.2284,1.2372,1.2488,1.2345,1.2379,1.2501,1.2501,1.2501,1.2501,0.0,0.0,0.0,0.0,0.0,0.0,0.0,0.0,0.0,0.0,0.0,0.0,0.0,0.0,0.0,0.0,0.0,0.0,0.0,0.0,0.0,0.0,0.0,0.0,0.0,0.0,1.535,1.6101,1.6659,1.6847,0.0,0.0,0.0,1.785,0.0,0.0,1.8418,1.8656,1.8453,1.7988,1.7828,1.757,1.724,0.0,0.0,0.0,0.0,0.0,0.0,0.0,0.0,0.0,2.2941,2.3543,2.4115,2.3522,2.3406,2.3391,2.2928,2.2385,2.2244,2.3451,2.3896,2.4522,2.6383,2.6056,2.567,2.668,2.6614,2.6362,2.6322,2.5625,2.5167,2.5415,2.4479,2.364,2.3438,2.2664,2.2084,2.1991,2.2058,2.2004,2.1743,2.1636,2.1502,2.1256,2.1243,2.1203,2.1109,2.1269,2.1283,2.1122,2.1189,2.0604,1.9291,1.7538,1.5824,1.4125,1.245,1.2152,1.306,1.2604,1.243,1.2511,1.2056,1.1925,1.1979,1.2088,1.2254,1.2345,1.2305,1.2379,1.2501,1.2501,1.2501,1.2501,0.0,0.0,0.0,0.0,0.0,0.0,0.0,0.0,0.0,0.0,1.3699,1.3699,0.0,0.0,0.0,0.0,0.0,0.0,0.0,0.0,0.0,0.0,0.0,0.0,0.0,1.4787,1.5263,0.0,0.0,0.0,0.0,0.0,1.6563,1.7795,0.0,1.7898,1.8416,1.8839,1.874,1.8228,1.8078,1.788,1.7676,0.0,0.0,0.0,0.0,0.0,0.0,0.0,0.0,0.0,2.3055,2.3548,2.3917,2.3387,2.2837,2.2395,2.2253,2.1654,2.145,2.2982,2.4025,2.5061,2.6538,2.6536,2.6473,2.7186,2.7153,2.7004,2.7035,2.6814,2.6406,2.5632,2.496,2.4146,2.2993,2.2263,2.1796,2.1657,2.177,2.1729,2.1435,2.1408,2.1328,2.1122,2.1109,2.1109,2.1109,2.1109,2.1109,2.1109,2.1109,2.0589,1.9546,1.7108,1.5362,1.4297,1.1966,1.0948,1.1219,1.1335,1.1443,1.1538,1.1705,1.1793,1.18,1.1932,1.206,1.2234,1.2234,1.2291,1.2427,1.2481,1.2501,1.2501,0.0,0.0,0.0,0.0,0.0,0.0,0.0,0.0,0.0,0.0,1.3932,1.3941,0.0,0.0,0.0,0.0,0.0,0.0,0.0,0.0,0.0,0.0,0.0,0.0,0.0,0.0,0.0,0.0,0.0,0.0,0.0,0.0,1.6573,1.7431,0.0,1.8528,1.8343,1.906,1.9032,1.8558,1.8436,1.8393,1.8403,1.8167,0.0,0.0,0.0,0.0,0.0,0.0,0.0,0.0,2.3111,2.3439,2.3556,2.3421,2.24,2.1436,2.2031,2.15,2.1253,2.3288,2.4637,2.5882,2.7532,2.7648,2.7452,2.7456,2.7434,2.7135,2.6181,2.7914,2.8187,2.4229,2.4817,2.4732,2.1758,2.1464,2.1448,2.1149,2.1381,2.1435,2.1136,2.1109,2.1109,2.1109,2.1109,2.1109,2.1109,2.1109,2.1109,2.1109,2.1109,2.1014,2.0843,1.757,1.5816,1.5622,1.2281,1.0759,1.0907,1.1219,1.1369,1.1409,1.1651,1.1773,1.1773,1.1773,1.1904,1.2077,1.2077,1.2179,1.2305,1.2433,1.2488,1.2501,0.0,0.0,0.0,0.0,0.0,0.0,0.0,0.0,0.0,0.0,0.0,0.0,0.0,0.0,0.0,0.0,0.0,0.0,0.0,0.0,0.0,0.0,0.0,0.0,0.0,0.0,0.0,0.0,0.0,0.0,0.0,0.0,0.0,1.8822,0.0,1.859,1.9069,1.9086,1.8786,1.8285,1.8265,1.8436,1.8643,1.8131,1.8644,0.0,0.0,0.0,0.0,0.0,0.0,0.0,2.2478,2.2945,2.3421,2.3264,2.2729,2.2161,2.2201,2.2118,2.2311,2.3507,2.5972,2.8462,2.987,3.0123,2.9668,2.8184,2.906,2.9851,2.9087,2.8807,2.8339,2.7402,2.5495,2.3869,2.317,2.2002,2.1176,2.1122,2.1162,2.1176,2.1122,2.1109,2.1109,2.1109,2.1109,2.1109,2.1109,2.1109,2.1109,2.1109,2.1109,2.043,1.9056,1.6958,1.52,1.384,1.1696,1.0704,1.0745,1.0928,1.1137,1.1402,1.1586,1.1631,1.1631,1.1631,1.1712,1.184,1.184,1.2047,1.2291,1.2325,1.2406,1.2501,0.0,0.0,0.0,0.0,0.0,0.0,0.0,0.0,0.0,0.0,0.0,0.0,0.0,0.0,0.0,0.0,0.0,0.0,0.0,0.0,0.0,0.0,0.0,0.0,0.0,0.0,0.0,0.0,0.0,0.0,0.0,0.0,0.0,1.9295,0.0,1.9161,1.8868,1.9439,1.9461,1.918,1.9384,1.9602,1.9751,1.9374,1.9581,2.0062,1.9806,0.0,0.0,0.0,0.0,0.0,0.0,0.0,2.3263,2.3394,2.2734,2.2011,2.224,2.236,2.2859,2.4858,2.7148,2.9172,3.0312,3.0566,3.0345,2.9542,3.0199,3.0791,3.044,2.9294,2.814,2.7374,2.5208,2.3325,2.2529,2.1664,2.1109,2.1109,2.1109,2.1109,2.1109,2.0989,2.0909,2.0909,2.0909,2.0909,2.0909,2.1029,2.1109,2.1109,2.1109,2.0652,1.9737,1.802,1.6269,1.4525,1.2767,1.1505,1.0691,1.0846,1.1076,1.1396,1.1477,1.1552,1.1584,1.1584,1.1624,1.1698,1.1766,1.1895,1.2081,1.2155,1.2277,1.24,0.0,0.0,0.0,0.0,0.0,0.0,0.0,0.0,0.0,0.0,0.0,0.0,0.0,0.0,0.0,0.0,0.0,0.0,0.0,0.0,0.0,0.0,0.0,0.0,0.0,0.0,0.0,0.0,0.0,1.6854,1.8072,1.853,0.0,1.9648,0.0,1.9967,1.8817,1.9974,2.0373,2.0206,2.0573,2.0765,2.0836,2.0617,2.0572,2.0618,2.0252,2.0323,2.0588,2.0875,0.0,0.0,0.0,0.0,2.3124,2.3585,2.287,2.2045,2.2528,2.2726,2.3467,2.6305,2.793,2.9015,2.9883,3.0098,3.0195,3.0586,3.081,3.0898,3.0898,2.9324,2.7572,2.6227,2.4363,2.263,2.1218,2.0989,2.0931,2.0931,2.0931,2.0931,2.0931,2.0735,2.0601,2.0601,2.0601,2.0601,2.0601,2.0828,2.0975,2.1029,2.1029,2.1056,2.1109,1.9056,1.7345,1.5881,1.384,1.2084,1.0691,1.0819,1.1022,1.1314,1.1341,1.1436,1.1579,1.1579,1.1592,1.1597,1.1712,1.1773,1.1807,1.1972,1.2159,1.2257,0.0,0.0,0.0,0.0,0.0,0.0,0.0,0.0,0.0,0.0,1.4369,1.4592,0.0,0.0,0.0,0.0,0.0,0.0,1.4968,0.0,0.0,1.5299,1.5096,1.505,0.0,0.0,0.0,0.0,1.6219,1.7676,1.9511,1.8923,1.9421,2.0875,2.0966,2.0857,2.0581,2.0736,2.0522,2.0009,1.996,2.0261,2.0671,0.0,0.0,2.1211,2.0582,2.0686,2.1034,2.0613,2.1118,0.0,0.0,0.0,2.2902,2.3587,2.3724,2.3656,2.3705,2.4054,2.4819,2.6554,2.7695,2.8594,2.9481,2.9676,2.9696,2.9755,3.0351,3.0898,3.0898,2.8397,2.6258,2.6029,2.3228,2.1014,2.0766,2.0508,2.0317,2.0317,2.0317,2.0317,2.0317,2.0277,2.0264,2.0264,2.0264,2.0264,2.0264,2.0304,2.0437,2.0722,2.0766,2.0855,2.1109,1.7859,1.614,1.5848,1.261,1.0916,1.0684,1.0711,1.0813,1.0982,1.1138,1.1315,1.1423,1.1423,1.1497,1.1584,1.1604,1.1685,1.1793,1.182,1.1959,1.2145,0.0,0.0,0.0,0.0,0.0,0.0,0.0,0.0,0.0,0.0,0.0,1.4564,0.0,0.0,0.0,1.5185,1.5223,1.5178,1.4998,1.5073,1.5171,1.5343,1.5208,1.5178,1.5283,0.0,0.0,1.5688,1.6484,1.7781,1.9534,2.0108,2.1121,2.2373,2.2263,2.1738,0.0,2.1484,2.1142,2.0318,2.0954,2.1164,0.0,0.0,0.0,0.0,0.0,2.1692,2.1992,2.1686,2.1956,2.2416,2.2089,0.0,0.0,0.0,2.3976,2.3827,2.4329,2.4619,2.5054,2.6205,2.6859,2.7519,2.864,2.9043,2.9277,2.954,2.9911,2.9909,2.9058,2.6953,2.5106,2.4286,2.2054,2.0428,2.0428,2.0277,2.0197,2.0197,2.0197,2.0197,2.0197,2.005,1.9987,1.9987,1.9987,1.9987,1.9987,2.0117,2.0264,2.0428,2.0428,2.0575,2.0869,1.8305,1.6118,1.4286,1.1848,1.0684,1.0684,1.0684,1.0772,1.0887,1.0982,1.1124,1.1302,1.1355,1.143,1.1497,1.1586,1.1624,1.1678,1.1678,1.1857,1.2111,0.0,0.0,0.0,0.0,0.0,0.0,0.0,0.0,0.0,0.0,0.0,0.0,0.0,0.0,0.0,0.0,1.52,1.517,1.508,1.52,1.5276,1.5321,1.5291,1.5355,1.5514,0.0,1.5693,1.6252,1.6778,1.7893,1.9546,2.0938,2.2324,2.3679,2.3561,2.2722,2.1472,2.2326,2.201,2.1054,2.2085,0.0,0.0,0.0,0.0,0.0,0.0,2.2729,2.2679,2.2534,2.2705,2.2943,2.2608,2.2735,0.0,0.0,0.0,2.3927,2.4692,2.49,2.4997,2.5545,2.6004,2.6552,2.7428,2.802,2.8555,2.9031,2.9207,2.8804,2.7286,2.5846,2.4532,2.3431,2.1485,2.009,2.009,2.0024,2.0013,2.0013,2.0013,2.0013,2.0013,1.9813,1.9693,1.9693,1.9693,1.9693,1.9693,1.9893,2.001,2.009,2.009,2.0041,1.9993,1.7738,1.5212,1.2371,1.1203,1.0663,1.0663,1.0671,1.0745,1.086,1.086,1.0941,1.1118,1.1233,1.1321,1.1402,1.1518,1.1586,1.1584,1.1584,1.1762,1.1996,0.0,0.0,0.0,0.0,0.0,0.0,0.0,0.0,0.0,0.0,0.0,0.0,0.0,1.4871,1.5017,1.5261,1.523,1.5215,1.5276,1.5366,1.5389,1.5389,1.5448,0.0,1.6062,1.6046,1.6264,1.6657,1.7133,1.834,2.0157,2.0709,2.2204,2.4464,2.456,2.3837,2.2574,2.338,2.3138,2.2263,2.2756,0.0,0.0,0.0,2.3023,2.2282,2.3762,2.3587,2.2671,2.2454,2.2784,2.3091,2.2005,2.2663,2.3854,0.0,0.0,0.0,2.4834,2.4951,2.4904,2.4658,2.5356,2.6061,2.5883,2.6498,2.7246,2.7702,2.8112,2.791,2.6445,2.5457,2.4866,2.4778,2.1995,1.9826,1.9826,1.9586,1.9441,1.9441,1.9441,1.9441,1.9441,1.9428,1.9415,1.9415,1.9415,1.9415,1.9415,1.9428,1.9562,1.9813,1.9826,1.9245,1.8067,1.48,1.2256,1.0449,1.0497,1.0507,1.0507,1.0656,1.0691,1.0698,1.0698,1.0786,1.0928,1.0934,1.1103,1.1389,1.1402,1.1491,1.1584,1.1584,1.1597,1.1681,0.0,0.0,0.0,0.0,0.0,0.0,0.0,0.0,0.0,0.0,0.0,0.0,0.0,1.4866,1.5027,1.5208,1.5606,1.6027,1.648,1.6514,1.6579,1.6735,1.6647,1.6609,1.6595,1.6624,1.6746,1.7024,1.7852,1.8822,1.9987,2.1314,2.2189,2.2756,2.4042,2.4341,2.3935,2.4695,2.4196,2.2948,2.3815,2.3579,2.2834,2.3576,2.3531,2.3056,2.3132,2.3128,2.2996,2.236,2.2773,2.3454,2.2989,2.3456,2.427,2.4457,2.5185,2.5744,2.5082,2.4965,2.4984,2.4588,2.5027,2.5611,2.5884,2.6419,2.6996,2.743,2.7277,2.6795,2.5817,2.4844,2.389,2.2936,2.0974,1.9548,1.9548,1.9468,1.9401,1.9401,1.9401,1.9401,1.9401,1.9401,1.9401,1.9401,1.9401,1.9401,1.9401,1.9401,1.9441,1.9548,1.8555,1.6793,1.4287,1.3363,1.2028,1.0315,1.0426,1.0541,1.0636,1.0697,1.0684,1.0684,1.0684,1.0718,1.0779,1.0874,1.1063,1.1288,1.1355,1.1484,1.1584,1.1584,1.1644,1.1746,0.0,0.0,0.0,0.0,0.0,0.0,0.0,0.0,0.0,0.0,0.0,0.0,0.0,0.0,1.5735,1.5827,1.6279,1.6717,1.7177,1.7172,1.726,1.7416,1.7298,1.7208,1.7165,1.7183,1.7316,1.7538,1.8264,1.9065,1.9949,2.103,2.1772,2.2223,2.3536,2.4107,2.4108,2.4647,2.4225,2.325,2.4378,2.4166,2.329,2.426,2.419,2.3525,2.3287,2.3109,2.2822,2.1981,2.245,2.3306,2.2983,2.3637,2.4584,2.4878,2.5632,2.6219,2.5375,2.5298,2.5325,2.4953,2.5139,2.5513,2.5732,2.6083,2.6496,2.6864,2.6665,2.6267,2.5815,2.447,2.3017,2.1796,2.0371,1.9361,1.9267,1.9225,1.9214,1.912,1.9107,1.9134,1.9212,1.9225,1.9294,1.9388,1.9401,1.9401,1.9401,1.9401,1.9145,1.8564,1.6475,1.4341,1.2145,1.1947,1.1269,1.0127,1.0276,1.0426,1.0575,1.0622,1.067,1.0684,1.0684,1.0684,1.0691,1.0792,1.0928,1.1104,1.1253,1.1409,1.1552,1.1563,1.1644,1.1753,0.0,0.0,0.0,0.0,0.0,0.0,0.0,0.0,0.0,0.0,0.0,0.0,0.0,0.0,0.0,1.7112,1.7201,1.7226,1.7264,1.7323,1.7348,1.7357,1.7348,1.7485,1.7709,1.7802,1.7965,1.822,1.8466,1.9131,2.021,1.9844,2.0862,2.3029,2.3114,2.3095,2.2995,2.3255,2.3318,2.3269,2.4446,2.4365,2.3727,2.5408,2.4975,2.3571,2.4275,2.3551,2.218,2.1331,2.1827,2.263,2.1954,2.3142,2.4881,2.5191,2.5547,2.5759,0.0,0.0,0.0,2.5627,2.5723,2.5734,2.5295,2.5328,2.5603,2.5976,2.6212,2.6328,2.6278,2.4291,2.2419,2.1675,2.0329,1.9267,1.8973,1.8905,1.8783,1.8517,1.849,1.8597,1.885,1.8876,1.9038,1.9361,1.9388,1.9388,1.9388,1.9359,1.8535,1.6786,1.3769,1.2094,1.1938,1.0523,0.9792,0.9798,0.9947,1.0103,1.0322,1.0426,1.0575,1.0684,1.0684,1.0684,1.0684,1.0684,1.0779,1.0928,1.1104,1.1288,1.1409,1.1565,1.1584,1.166,0.0,0.0,0.0,0.0,0.0,0.0,0.0,0.0,0.0,0.0,0.0,0.0,0.0,0.0,0.0,1.7838,1.7832,1.8005,1.854,1.8562,1.8562,1.8597,1.8571,1.8444,1.8275,1.8389,1.8536,1.8707,1.9496,2.0152,2.0706,2.0941,2.1226,2.1603,2.1957,2.2248,2.2538,2.4286,2.5074,2.5116,2.5121,2.4826,2.4371,2.4461,2.39,2.3036,2.269,2.2467,2.2102,2.0709,2.1884,2.4049,2.472,2.5018,0.0,2.5248,2.5324,2.5387,2.5398,0.0,0.0,0.0,0.0,0.0,2.4576,2.4751,2.4944,2.4765,2.4854,2.4611,2.3544,2.2322,2.1148,2.0185,1.9304,1.9054,1.9927,1.9223,1.8584,1.8504,1.849,1.8517,1.8597,1.8611,1.8731,1.9025,1.9052,1.9052,1.9052,1.7925,1.657,1.4979,1.3147,1.1621,1.041,1.0007,0.9846,0.9954,0.9994,1.015,1.0432,1.0473,1.0575,1.0684,1.0684,1.0684,1.0684,1.0684,1.0779,1.0928,1.1104,1.1288,1.1409,1.1565,1.1584,1.1647,0.0,0.0,0.0,0.0,0.0,0.0,0.0,0.0,0.0,0.0,0.0,0.0,0.0,0.0,0.0,0.0,1.9315,1.9469,1.9924,1.9894,1.9855,1.9885,1.9767,1.9588,1.9339,1.9276,1.9189,1.9059,1.9861,2.0323,2.055,2.1195,2.1597,2.178,2.2141,2.2558,2.3095,2.4434,2.4971,2.4881,2.5244,2.5127,2.4766,2.4682,2.4303,2.3679,2.2514,2.2211,2.213,2.0466,2.1371,2.3532,2.5434,2.552,2.4912,2.4996,2.5175,0.0,0.0,0.0,2.5351,2.4996,0.0,0.0,2.5055,2.4923,2.4549,2.3712,2.4143,2.4151,2.2353,2.1993,2.1711,2.0976,1.9606,1.8788,1.9234,1.8631,1.8116,1.8116,1.8116,1.8156,1.829,1.8276,1.8396,1.8718,1.8744,1.877,1.889,1.6679,1.5042,1.4171,1.2174,1.0651,0.9639,0.9731,0.9832,0.9927,0.9988,1.0143,1.0405,1.0466,1.0575,1.0684,1.0684,1.0684,1.0684,1.0684,1.0738,1.084,1.1118,1.1254,1.1321,1.1538,1.1584,1.1604,0.0,0.0,0.0,0.0,0.0,0.0,0.0,0.0,0.0,0.0,0.0,0.0,0.0,0.0,0.0,0.0,2.0957,2.1009,2.1151,2.1029,0.0,0.0,0.0,2.0641,2.0525,2.0215,1.9895,1.9538,1.9908,2.0136,2.0197,2.1053,2.1864,2.2671,2.3046,2.3493,2.4023,2.4148,2.3941,2.3627,2.4884,2.5152,2.4828,2.5202,2.5116,2.4597,2.3052,2.2518,2.2362,2.0996,2.0973,2.2021,2.4917,2.5183,2.4478,2.455,2.5048,0.0,0.0,0.0,0.0,2.5786,2.5589,0.0,2.5821,2.5344,2.4392,2.2881,2.3875,2.4333,2.2227,2.2476,2.2912,2.2648,2.0359,1.8412,1.7826,1.758,1.7502,1.7555,1.7528,1.7609,1.7889,1.7916,1.8049,1.837,1.8424,1.8557,1.8783,1.566,1.393,1.4063,1.1145,0.9551,0.9429,0.9693,0.9792,0.9792,0.9947,1.0103,1.0283,1.0426,1.0575,1.0684,1.0684,1.0684,1.0684,1.0684,1.0684,1.0718,1.1084,1.12,1.1234,1.1504,1.1584,1.164,0.0,0.0,0.0,0.0,0.0,0.0,0.0,0.0,0.0,0.0,0.0,0.0,0.0,0.0,0.0,0.0,0.0,2.0768,0.0,0.0,0.0,0.0,0.0,2.0807,2.0641,2.0483,2.0616,2.1083,2.0846,2.0907,2.1297,2.1643,2.1782,2.1786,2.278,2.3295,2.3509,2.4431,2.4625,2.4266,2.4077,2.3989,2.3961,2.3352,2.3077,2.297,2.2621,2.2713,2.3162,2.4215,2.3242,2.2081,2.5037,2.5146,2.4216,2.4385,2.4811,2.5209,2.5287,2.549,2.5571,2.5189,2.489,0.0,2.4137,2.4433,2.4352,2.2817,2.3464,2.3836,2.2399,2.1585,2.1066,2.0836,1.9004,1.7808,1.8389,1.7566,1.6993,1.7259,1.7046,1.6994,1.7327,1.7354,1.7474,1.7742,1.7996,1.8129,1.8155,1.5254,1.3628,1.377,1.1065,0.9652,0.9734,0.9765,0.9792,0.9792,0.9947,1.0103,1.0283,1.0426,1.0575,1.0684,1.0684,1.0684,1.0684,1.0684,1.0684,1.0718,1.1084,1.12,1.1234,1.1504,1.1584,1.1584,0.0,0.0,0.0,0.0,0.0,0.0,0.0,0.0,0.0,0.0,0.0,0.0,0.0,0.0,0.0,0.0,0.0,0.0,0.0,0.0,2.1753,2.1852,2.1787,2.1681,2.1549,2.1293,2.1136,2.1108,2.1132,2.1023,2.0773,2.1843,2.2194,2.2008,2.326,2.4035,2.4466,2.4555,2.4675,2.4804,2.4707,2.4585,2.4336,2.3709,2.3468,2.3435,2.2963,2.2674,2.273,2.4326,2.369,2.2573,2.4422,2.4813,2.4598,2.4583,2.4931,2.5338,2.5463,2.5617,2.5675,2.5317,2.5041,0.0,0.0,2.468,2.4429,2.2424,2.3384,2.3923,2.1714,2.1762,2.1815,2.0767,1.9576,1.8745,1.857,1.7382,1.6593,1.6926,1.6794,1.6767,1.6939,1.6953,1.702,1.7128,1.7422,1.7662,1.7782,1.4989,1.3533,1.3798,1.1007,0.9564,0.9713,0.9758,0.9832,0.9907,1.0062,1.0243,1.0392,1.0541,1.0649,1.0684,1.0684,1.0684,1.0684,1.0684,1.0684,1.0718,1.1084,1.12,1.1234,1.1504,1.1584,1.1597,1.6738,0.0,0.0,0.0,0.0,0.0,0.0,0.0,0.0,0.0,0.0,0.0,0.0,0.0,0.0,0.0,0.0,0.0,0.0,2.264,2.2598,2.2834,2.2632,2.2465,2.2321,2.1971,2.1502,2.0879,2.118,2.093,2.0248,2.1929,2.2616,2.2541,2.3831,2.4759,2.53,2.4626,2.4588,2.4953,2.5326,2.5211,2.4787,2.4319,2.4269,2.4296,2.342,2.2635,2.2245,2.3615,2.3457,2.2878,2.3899,2.4484,2.4815,2.487,2.5147,2.5441,2.5535,2.5642,2.5634,2.5424,2.5232,2.5039,0.0,0.0,0.0,2.2372,2.3442,2.3975,2.1415,2.2258,2.281,2.1244,2.0518,1.9743,1.8657,1.7355,1.6601,1.6889,1.6889,1.6826,1.672,1.6645,1.6647,1.67,1.6953,1.7104,1.7108,1.4623,1.3269,1.3399,1.0758,0.9422,0.9605,0.969,0.9825,0.9974,1.0188,1.0369,1.046,1.0636,1.0684,1.0684,1.0684,1.0684,1.0684,1.0684,1.0684,1.0718,1.1084,1.12,1.1234,1.1504,1.1584,1.1604,1.75,1.7625,0.0,0.0,0.0,0.0,0.0,0.0,0.0,0.0,0.0,0.0,2.2396,2.2963,2.3153,2.2684,2.2668,2.2588,2.2382,2.2228,0.0,2.2204,2.2222,2.217,2.2041,2.1876,2.1706,2.1508,2.1188,2.1134,2.1328,2.2088,2.2553,2.2788,2.3921,2.4389,2.4389,2.476,2.4687,2.4295,2.4355,2.4305,2.4115,2.3496,2.3631,2.406,2.3335,2.281,2.2615,2.3919,2.3303,2.2356,2.4344,2.4389,2.3879,2.4851,2.5186,2.5306,2.574,2.5442,2.4932,2.4634,2.4561,2.441,2.3752,0.0,2.4384,2.3682,0.0,2.3442,2.2893,0.0,0.0,2.1425,2.0303,1.9372,1.8984,1.7928,1.7311,1.7645,1.7627,1.7355,1.6776,1.6473,1.6458,1.6687,1.674,1.6342,1.5357,1.3762,1.2475,1.1612,1.0041,0.9349,0.9605,0.9625,0.9707,0.9819,1.0141,1.0322,1.0349,1.0595,1.0684,1.0684,1.0684,1.0684,1.0684,1.0684,1.0684,1.0718,1.1084,1.12,1.1234,1.1504,1.1584,1.1604,1.8147,1.8115,1.8242,0.0,0.0,0.0,0.0,0.0,0.0,2.2825,0.0,2.3482,2.4594,2.4137,2.4045,2.4782,2.3723,2.3045,2.3168,2.244,0.0,2.2717,2.2473,2.2376,2.2519,2.2056,2.1913,2.2188,2.1737,2.1601,2.1754,2.2515,2.3072,2.3463,2.3732,2.4283,2.4913,2.4212,2.4257,2.4744,2.4306,2.4354,2.4572,2.3499,2.3277,2.3483,2.3188,2.2849,2.2576,2.3125,2.309,2.2911,2.3434,2.3888,2.4274,2.4322,2.4411,2.4411,2.4033,2.3635,2.3368,2.3546,2.3606,2.3751,2.4175,2.4508,2.4562,2.3924,0.0,0.0,0.0,0.0,0.0,0.0,2.068,2.0041,1.9897,1.9252,1.8498,1.7606,1.7431,1.7156,1.6685,1.6259,1.6011,1.5998,1.5565,1.5033,1.4412,1.2591,1.1469,1.1175,0.9767,0.9211,0.9605,0.9612,0.9697,0.9927,1.0175,1.0356,1.0412,1.0622,1.0684,1.0684,1.0684,1.0684,1.0684,1.0684,1.0684,1.0718,1.1084,1.12,1.1234,1.1504,1.1584,1.1604,1.8912,1.8755,1.8843,1.9233,2.0005,0.0,0.0,2.2147,2.2992,2.3474,2.3562,2.4286,2.6213,2.561,2.5588,2.6952,2.5296,2.4102,2.402,2.2872,2.2315,2.2613,2.2548,2.2487,2.2459,2.2279,2.2275,2.2448,2.2291,2.2254,2.2375,2.3003,2.3632,2.4212,2.4157,2.4502,2.5065,2.3988,2.3969,2.4583,2.4041,2.4119,2.4461,2.3664,2.326,2.3101,2.3101,2.2906,2.2654,2.2654,2.2996,2.3338,2.2975,2.3586,2.4298,2.3621,2.3439,2.3259,2.231,2.1931,2.1849,2.2034,2.249,2.3044,2.3727,2.4155,2.4273,2.3884,2.3646,0.0,0.0,0.0,2.1955,2.149,0.0,2.0452,2.0212,1.981,1.9112,1.7851,1.7293,1.6836,1.6471,1.6033,1.5664,1.5368,1.4847,1.4177,1.338,1.1766,1.0741,1.0455,0.9413,0.9061,0.9544,0.9544,0.9663,0.9961,1.0188,1.0337,1.0439,1.0629,1.0684,1.0684,1.0684,1.0684,1.0684,1.0684,1.0684,1.0718,1.1084,1.12,1.1234,1.1504,1.1584,1.1647,1.9807,1.9695,1.9651,2.0251,2.0549,2.1133,2.2432,2.3062,2.3365,2.3396,2.4013,2.4987,2.6351,2.7203,2.799,2.8762,2.7273,2.5819,2.4655,2.3501,2.2355,2.1214,2.2198,2.2337,2.1376,2.2546,2.2782,2.2009,2.2644,2.3153,2.3558,2.3578,2.4086,2.5,2.5498,2.5158,2.4253,2.4521,2.4074,2.3179,2.3137,2.3135,2.3224,2.3833,2.3668,2.3101,2.3101,2.3081,2.3081,2.3081,2.3103,2.319,2.3626,2.3665,2.3446,2.2887,2.2425,2.1895,2.1154,2.0836,2.0601,1.9958,2.1183,2.2297,2.1516,2.2272,2.3276,2.3711,2.3276,2.2853,2.2875,2.2355,2.1758,0.0,2.0701,0.0,0.0,1.8991,1.8728,1.8743,1.7555,1.6536,1.6063,1.5836,1.5497,1.5057,1.5049,1.4134,1.1974,1.1567,1.0587,0.8837,0.8743,0.8933,0.9417,0.9417,0.9537,0.9798,1.0134,1.0315,1.0329,1.0588,1.0684,1.0684,1.0684,1.0684,1.0684,1.0684,1.0684,1.0718,1.1084,1.12,1.1234,1.1504,1.1584,1.166,2.062,2.0699,2.07,2.0499,2.1192,2.2128,2.3204,2.3893,2.4874,2.6389,2.7148,2.839,3.0569,2.9849,2.9398,2.9893,2.7788,2.6138,2.5506,2.4409,2.3495,2.2906,2.3028,2.2948,2.2562,2.3153,2.3286,2.2848,2.3568,2.3855,2.3734,2.4124,2.4648,2.5203,2.4935,2.459,2.4177,2.3839,2.3587,2.3389,2.3632,2.4146,2.4673,2.3752,2.3293,2.3101,2.3101,2.3101,2.3101,2.3101,2.3101,2.3144,2.3297,2.2737,2.1956,2.1549,2.0752,1.978,1.8756,1.8413,1.8414,1.8524,1.9352,2.0305,2.0985,2.1628,2.2279,2.2834,2.2327,2.1925,2.2358,2.1786,2.1187,0.0,0.0,2.0314,0.0,1.8793,1.7774,1.6861,1.652,1.6158,1.5639,1.5492,1.5219,1.4725,1.4109,1.3085,1.1496,1.064,0.9716,0.86,0.856,0.8825,0.9403,0.941,0.953,0.9792,0.9994,1.0181,1.0322,1.048,1.0622,1.0684,1.0684,1.0684,1.0684,1.0684,1.0684,1.0718,1.1084,1.12,1.1234,1.1504,1.1584,1.1647,2.1198,2.1458,2.1526,2.1211,2.2114,2.3086,2.3739,2.5144,2.636,2.7052,2.8538,3.0118,3.161,3.0867,3.0499,3.1049,2.8952,2.7203,2.6322,2.5432,2.4533,2.3577,2.3782,2.366,2.3151,2.3702,2.3752,2.3256,2.4419,2.4738,2.4317,2.4897,2.5367,2.5714,2.5245,2.4986,2.4822,2.4116,2.3849,2.3894,2.4078,2.4238,2.4314,2.3215,2.2879,2.3006,2.308,2.2555,2.1943,2.2796,2.2818,2.247,2.247,2.1934,2.1083,2.0001,1.9149,1.8282,1.7029,1.6862,1.7048,1.7183,1.798,1.8972,1.9717,2.032,2.0856,2.1316,2.1115,2.0913,2.1127,2.0959,2.068,0.0,0.0,0.0,0.0,1.7585,1.6282,1.5303,1.5609,1.5666,1.5068,1.5065,1.4848,1.4301,1.3613,1.2608,1.1139,1.0213,0.9351,0.8525,0.8505,0.8798,0.9403,0.941,0.953,0.9792,1.0001,1.0181,1.0322,1.048,1.0629,1.0684,1.0684,1.0684,1.0684,1.0684,1.0684,1.0718,1.1084,1.12,1.1234,1.1504,1.1687,1.1789,2.1579,2.1947,2.2195,2.2348,2.3229,2.3937,2.4083,2.6554,2.7676,2.5644,2.8279,3.0169,2.9698,3.0514,3.1364,3.2031,3.0627,2.8931,2.7087,2.661,2.5462,2.3359,2.4408,2.4431,2.3081,2.4175,2.4219,2.3182,2.5083,2.5702,2.5168,2.572,2.6129,2.6458,2.6414,2.628,2.6008,2.5317,2.4883,2.4625,2.422,2.3363,2.2299,2.2197,2.2341,2.2624,2.2854,2.1454,1.9861,2.2161,2.2164,2.1194,2.1194,2.1168,2.0657,1.8365,1.7661,1.7334,1.6126,1.6208,1.6526,1.5941,1.7133,1.8272,1.7761,1.8373,1.909,1.9379,1.9676,1.9758,1.9362,1.9934,2.0182,0.0,0.0,0.0,1.7152,1.5614,1.4538,1.4207,1.4849,1.5009,1.4307,1.4482,1.4381,1.3787,1.3566,1.2713,1.0896,1.0314,0.9578,0.8577,0.8512,0.8798,0.9403,0.941,0.953,0.9792,1.012,1.0263,1.0322,1.0568,1.0704,1.0684,1.0684,1.0684,1.0684,1.0684,1.0691,1.0725,1.1084,1.1213,1.1268,1.1525,1.1809,1.2098,2.1794,2.2432,2.3041,2.342,2.3774,2.4051,2.423,2.5791,2.7186,2.7932,2.9914,3.1403,3.1774,3.2246,3.2058,3.0822,3.0321,2.947,2.8032,2.7829,2.7123,2.5605,2.5543,2.5031,2.3971,2.4991,2.4663,2.2895,2.5043,2.553,2.4464,2.5293,2.567,2.5635,2.6158,2.6017,2.5424,2.6367,2.623,2.5218,2.2941,2.2291,2.2495,2.0847,2.0143,2.0061,2.0334,2.0042,1.9588,2.0223,2.0223,1.9974,1.9974,1.936,1.8503,1.787,1.7044,1.6221,1.5903,1.5915,1.5995,1.5848,1.6492,1.7134,1.6993,1.7485,1.8095,1.8472,1.8365,1.8387,1.8909,1.8797,1.8674,1.8858,1.8472,1.771,1.6494,1.5722,1.4898,1.3873,1.3813,1.3708,1.3364,1.366,1.3578,1.289,1.3065,1.2541,1.1036,1.0531,1.0011,0.9414,0.8827,0.8798,0.9403,0.941,0.953,0.9792,0.9903,1.0059,1.0315,1.0358,1.0514,1.0684,1.0684,1.0684,1.0684,1.0684,1.0752,1.0874,1.1125,1.1369,1.1631,1.1712,1.1898,1.2118,2.2442,2.3367,2.4034,2.4058,2.4369,2.475,2.5156,2.6433,2.7604,2.8255,3.0295,3.1458,3.0848,3.1584,3.1623,3.032,3.0195,2.9726,2.8633,2.8574,2.8086,2.7018,2.6348,2.5577,2.467,2.4945,2.4502,2.3331,2.5048,2.5478,2.4699,2.5591,2.5779,2.5398,2.5929,2.6103,2.5977,2.6539,2.6298,2.5305,2.2756,2.1526,0.0,1.98,1.8706,1.792,1.818,1.812,1.8049,1.9131,1.9154,1.8727,1.8862,1.8349,1.7621,1.7203,1.6473,1.5808,1.5808,1.5808,1.5808,1.5808,1.6048,1.6302,1.6302,1.658,1.6864,1.7089,1.7182,1.7325,1.7693,1.7865,1.7901,1.7812,1.7349,1.6635,1.5511,1.4971,1.4373,1.356,1.3161,1.2888,1.2745,1.2999,1.2916,1.2321,1.2469,1.1949,1.0505,1.0411,1.0132,0.9589,0.9219,0.955,1.0614,0.9932,0.9935,1.0614,1.0208,1.0114,1.0315,1.0412,1.0561,1.0684,1.0684,1.0684,1.0684,1.0684,1.0779,1.0941,1.1253,1.1552,1.1807,1.1949,1.1513,1.0831,2.3119,2.4173,2.4786,2.4361,2.4891,2.5669,2.6607,2.7774,2.8339,2.7836,3.0058,3.0929,2.897,3.0043,3.0723,3.0332,3.0293,2.9941,2.9113,2.9054,2.8711,2.7897,2.7096,2.6197,2.52,2.4655,2.4261,2.3952,2.5082,2.5541,2.5371,2.6189,2.6249,2.57,2.6041,2.6498,2.6966,2.616,2.5508,2.4745,2.2647,2.0678,1.9007,1.8862,1.7774,1.6391,1.662,1.6355,1.6249,1.8419,1.8443,1.7604,1.7836,1.7757,1.7407,1.6586,1.6152,1.5915,1.5915,1.5888,1.5861,1.5861,1.5835,1.5808,1.5808,1.5808,1.5808,1.5808,1.6208,1.6515,1.6317,1.7102,1.7499,1.6556,1.613,1.5597,1.4649,1.4078,1.3648,1.3372,1.297,0.0,1.2364,1.2472,1.2332,1.1872,1.1857,1.1251,0.9905,1.0199,1.0206,0.975,0.9711,1.0446,1.2075,1.0555,1.0373,1.1531,1.0682,1.027,1.0317,1.0575,1.0671,1.0684,1.0684,1.0684,1.0691,1.0711,1.0819,1.1016,1.1421,1.1685,1.1854,1.2162,1.0972,0.9262,2.2871,2.347,2.4013,2.4248,2.4721,2.5897,2.8338,2.8358,2.8335,2.9001,3.0227,3.08,3.0132,3.0568,3.0859,3.0781,3.0762,3.0547,3.0,2.9961,2.959,2.873,2.8223,2.7226,2.564,2.5504,2.4863,2.3664,2.5122,2.5768,2.5646,2.6521,2.6844,2.6757,2.7346,2.7395,2.6918,2.5638,2.4283,2.2769,2.0211,1.894,1.85,1.7509,1.6908,1.6633,1.6687,1.6633,1.6603,1.7035,1.7059,1.6875,1.693,1.6902,1.6826,1.6681,1.6593,1.6553,1.6553,1.638,1.6217,1.6217,1.6005,1.5808,1.5808,1.5808,1.5808,1.5808,1.5888,1.6016,1.6181,1.6513,1.6587,1.6,1.5712,1.5452,1.5109,1.4739,1.4272,1.3605,1.3713,1.3341,1.2098,1.2111,1.1866,1.1073,1.135,1.1265,1.0562,1.0503,1.08,1.1512,1.0249,1.0158,1.1438,1.0261,0.9992,1.0681,1.0247,1.0184,1.046,1.0507,1.0602,1.0684,1.0684,1.0684,1.0698,1.0826,1.1036,1.1335,1.1502,1.1782,1.2064,1.2118,1.0948,0.9617,2.3302,2.4008,2.4636,2.4471,2.552,2.6987,2.8949,2.9526,2.9833,3.0132,3.0215,3.0155,2.9994,3.0519,3.0898,3.0898,3.0898,3.0801,3.0566,3.0332,2.9922,2.9277,2.8633,2.7598,2.6113,2.5625,2.5066,2.438,2.4678,2.5416,2.6581,2.6492,2.6997,2.7956,2.7116,2.655,2.6083,2.3943,2.2622,2.1779,1.9441,1.8216,1.7748,1.7181,1.6966,1.6979,1.7114,1.7154,1.7114,1.6807,1.67,1.6727,1.6913,1.6834,1.674,1.6913,1.6834,1.67,1.67,1.6607,1.6524,1.6524,1.6393,1.6262,1.6262,1.6166,1.6099,1.6235,1.6021,1.5885,1.6158,1.6266,1.6171,1.5818,1.5605,1.5303,1.4716,1.4665,1.4494,1.3925,1.3757,1.3348,1.249,1.1969,1.1437,1.0899,1.0962,1.0862,1.0454,1.0743,1.0958,1.1052,1.0582,1.0852,1.1955,1.0638,1.0489,1.1486,1.0642,1.0351,1.0493,1.0575,1.0649,1.0684,1.0684,1.0684,1.0704,1.0968,1.1192,1.1423,1.1728,1.1975,1.2118,1.2275,1.176,1.1017,2.4328,2.494,2.5484,2.5179,2.6461,2.7956,2.9227,3.0402,3.1153,3.1171,3.0576,3.0087,2.9891,3.0497,3.0898,3.0898,3.0898,3.0898,3.0898,3.0547,3.0156,2.9755,2.8992,2.7995,2.668,2.5727,2.5156,2.506,2.4381,2.5224,2.7422,2.6714,2.7142,2.8421,2.6495,2.5229,2.4438,2.2198,2.1022,2.0534,1.8947,1.7896,1.73,1.73,1.73,1.7301,1.7528,1.7608,1.7541,1.7048,1.6887,1.6927,1.7193,1.71,1.6941,1.7193,1.71,1.6887,1.6887,1.6847,1.6807,1.6807,1.6754,1.67,1.67,1.6526,1.6458,1.666,1.6286,1.5989,1.6258,1.6158,1.6033,1.5899,1.5695,1.527,1.4448,1.4681,1.4751,1.4218,1.3828,1.348,1.3184,1.2117,1.1398,1.1234,1.0863,1.0534,1.0207,1.0902,1.1097,1.0733,1.0987,1.1632,1.2754,1.1193,1.0948,1.2086,1.1,1.0507,1.0548,1.0663,1.0684,1.0691,1.0725,1.0772,1.088,1.1118,1.1356,1.1518,1.1877,1.2091,1.2179,1.2372,1.2474,1.2269,2.626,2.5822,2.5723,2.6695,2.7077,2.7813,2.9567,3.0303,3.0989,3.1951,3.2003,3.167,3.0859,3.084,3.0898,3.0898,3.0898,3.0898,3.0898,3.0859,3.0625,3.0156,2.9715,2.8875,2.7604,2.6328,2.5427,2.4928,2.4901,2.5808,2.7582,2.7856,2.7685,2.7141,2.6208,2.4193,2.1484,2.1227,1.99,1.7938,1.7765,1.7646,1.7568,1.7568,1.7568,1.7568,1.7595,1.7608,1.7595,1.7515,1.7528,1.7528,1.7555,1.7555,1.7528,1.7555,1.7541,1.7528,1.7528,1.7327,1.7166,1.7166,1.6926,1.67,1.67,1.6687,1.6673,1.67,1.6446,1.6326,1.6597,1.626,1.6036,1.6365,1.6054,1.5619,1.5165,1.5443,1.5375,1.4481,1.4503,1.4424,1.4028,1.2803,1.2097,1.2255,1.1402,1.0675,1.0228,1.0826,1.1559,1.2354,1.16,1.1895,1.3298,1.1562,1.0784,1.1022,1.0662,1.0561,1.0664,1.0677,1.0684,1.0691,1.0833,1.1043,1.1328,1.1355,1.1538,1.1759,1.18,1.2026,1.2271,1.2298,1.2393,1.2463,2.7299,2.7702,2.8101,2.8472,2.9249,3.0119,3.0907,3.1769,3.2262,3.2207,3.1749,3.1299,3.0918,3.0898,3.0898,3.0898,3.0898,3.0898,3.0898,3.0898,3.0684,3.0215,3.0039,2.9383,2.8093,2.7006,2.6219,2.567,2.5124,2.5911,2.7878,2.6452,2.5297,2.4368,2.3581,2.2274,2.0628,1.9663,1.8805,1.813,1.813,1.813,1.813,1.813,1.813,1.813,1.813,1.8009,1.7862,1.8063,1.7916,1.7608,1.7608,1.7608,1.7608,1.7608,1.7608,1.7608,1.7608,1.7528,1.7434,1.7434,1.7341,1.7235,1.7235,1.7127,1.7046,1.722,1.7033,1.6805,1.6714,1.652,1.6419,1.6591,1.6371,1.6012,1.5552,1.5735,1.574,1.5246,1.4503,1.4216,1.4665,1.2947,1.2027,1.2587,1.1457,1.0705,1.0691,1.0748,1.082,1.0906,1.1309,1.1483,1.1421,1.1432,1.1275,1.0974,1.0741,1.0663,1.0684,1.0684,1.0738,1.0826,1.0887,1.1083,1.1389,1.1389,1.1565,1.18,1.1932,1.2101,1.2298,1.2386,1.2508,1.2637,2.9005,2.9518,2.9881,3.0151,3.0937,3.1599,3.177,3.259,3.3027,3.2452,3.1749,3.1211,3.1094,3.0957,3.0937,3.1055,3.0957,3.0898,3.0898,3.0898,3.0742,3.041,3.0273,2.9785,2.8867,2.7773,2.7033,2.6646,2.5164,2.5442,2.7323,2.511,2.3503,2.2464,2.1553,2.0731,1.9873,1.8671,1.8316,1.8611,1.8531,1.849,1.849,1.849,1.849,1.849,1.849,1.8357,1.8183,1.8424,1.8143,1.7716,1.7716,1.7716,1.7716,1.7716,1.7782,1.7822,1.7742,1.7716,1.7702,1.7635,1.7608,1.7608,1.7608,1.7448,1.7354,1.7568,1.7381,1.714,1.6981,1.682,1.6733,1.6834,1.6688,1.6371,1.5886,1.6018,1.5949,1.5414,1.4501,1.4216,1.4912,1.2933,1.2072,1.3204,1.1586,1.0686,1.0916,1.1022,1.0932,1.0566,1.1683,1.1853,1.0937,1.1635,1.1626,1.092,1.0769,1.0684,1.0691,1.0732,1.086,1.1043,1.1043,1.1185,1.1463,1.1504,1.1667,1.1911,1.2104,1.225,1.2433,1.2528,1.2664,1.28,3.1862,3.1035,3.0452,3.1588,3.1584,3.149,3.1759,3.2389,3.2793,3.2793,3.2452,3.2022,3.1533,3.1133,3.1055,3.1465,3.1133,3.0898,3.0898,3.0898,3.0898,3.0879,3.0449,3.0195,3.0176,2.8542,2.7682,2.7682,2.4879,2.4242,2.5616,2.438,2.316,2.1974,2.09,1.9845,1.8905,1.8611,1.8651,1.8863,1.8611,1.849,1.849,1.849,1.849,1.849,1.849,1.849,1.849,1.849,1.829,1.8009,1.8009,1.8009,1.8009,1.8009,1.8223,1.8424,1.8089,1.8009,1.7942,1.7662,1.7608,1.7608,1.7608,1.7608,1.7608,1.7608,1.7381,1.7286,1.7541,1.7101,1.6799,1.7134,1.7035,1.672,1.6185,1.6324,1.5994,1.4665,1.4629,1.4678,1.469,1.2804,1.2374,1.4249,1.1958,1.0602,1.0786,1.1881,1.2418,1.2265,1.3168,1.3429,1.2864,1.2435,1.1677,1.0684,1.0684,1.0684,1.0691,1.084,1.107,1.1389,1.1389,1.147,1.159,1.1732,1.1918,1.2111,1.223,1.2467,1.2686,1.2686,1.2827,1.2996,3.2755,3.2925,3.2961,3.3295,3.3302,3.3174,3.2947,3.3066,3.3125,3.2832,3.2676,3.2539,3.2402,3.2042,3.1846,3.1983,3.1866,3.1641,3.1328,3.1328,3.1191,3.0898,3.0742,3.0527,3.0195,2.9422,2.8836,2.8516,2.622,2.4165,2.2377,2.2097,2.1238,1.9864,1.9523,1.9319,1.9254,1.916,1.9174,1.9225,1.916,1.912,1.912,1.912,1.912,1.912,1.912,1.8958,1.8811,1.9053,1.8758,1.8384,1.8556,1.8343,1.7995,1.7995,1.8236,1.8464,1.837,1.8343,1.833,1.8223,1.8196,1.8196,1.8196,1.805,1.7809,1.7648,1.7541,1.7501,1.7595,1.7435,1.7357,1.7461,1.7423,1.7169,1.6587,1.6146,1.5908,1.5986,1.4961,1.44,1.4859,1.3356,1.2674,1.3456,1.1641,1.069,1.1116,1.0893,1.0596,1.0318,1.1192,1.1418,1.0913,1.1632,1.1552,1.0684,1.0684,1.0738,1.0846,1.1029,1.1199,1.1389,1.1389,1.1477,1.1597,1.1739,1.1925,1.2125,1.2338,1.2556,1.2706,1.2847,1.2983,1.3146,3.372,3.4121,3.4349,3.4349,3.4349,3.4219,3.3945,3.3769,3.3574,3.3301,3.3125,3.3027,3.3027,3.2793,3.2609,3.2452,3.2296,3.2022,3.1513,3.1494,3.1328,3.0918,3.0898,3.0762,3.0469,3.0019,2.9668,2.9394,2.664,2.3597,2.0346,2.043,1.9962,1.9092,1.9092,1.9199,1.9401,1.9401,1.9401,1.9401,1.9401,1.9401,1.9401,1.9401,1.9401,1.9401,1.9401,1.9281,1.9118,1.9334,1.908,1.8691,1.8836,1.8649,1.8343,1.8343,1.8584,1.8798,1.8677,1.8651,1.8624,1.8517,1.849,1.849,1.849,1.8343,1.8129,1.7969,1.7956,1.7956,1.7956,1.7836,1.7742,1.7739,1.7676,1.7463,1.709,1.6549,1.6264,1.6403,1.5102,1.4236,1.4383,1.2828,1.2088,1.2727,1.1344,1.0679,1.1057,1.0725,1.0377,1.0004,1.0989,1.1201,1.0495,1.1384,1.1469,1.0684,1.0745,1.0853,1.1036,1.1179,1.137,1.1477,1.1477,1.1531,1.1633,1.1837,1.1972,1.2132,1.2386,1.263,1.2827,1.2969,1.3125,1.3302,3.4746,3.4766,3.4785,3.4746,3.4746,3.4726,3.4707,3.4375,3.4153,3.4153,3.3769,3.3484,3.3484,3.3484,3.3359,3.2969,3.2519,3.2101,3.1641,3.1572,3.1426,3.0996,3.0957,3.0937,3.0937,3.0488,3.0149,2.9862,2.619,2.2696,1.9455,1.9455,1.9441,1.9428,1.9428,1.9415,1.9401,1.9401,1.9401,1.9401,1.9401,1.9401,1.9401,1.9401,1.9401,1.9401,1.9401,1.9401,1.9401,1.9401,1.9185,1.893,1.893,1.893,1.8916,1.8903,1.9132,1.9334,1.9025,1.893,1.8863,1.8624,1.8557,1.8544,1.8531,1.8517,1.8517,1.849,1.849,1.849,1.849,1.8236,1.7982,1.7887,1.7636,1.745,1.7391,1.7055,1.6588,1.6005,1.4979,1.4026,1.333,1.1566,1.0916,1.202,1.1065,1.0505,1.0784,1.1216,1.1309,1.0917,1.2061,1.2206,1.124,1.1559,1.1362,1.0704,1.086,1.1002,1.122,1.1335,1.1484,1.1584,1.1597,1.1597,1.1653,1.1996,1.2118,1.2145,1.2406,1.2698,1.3003,1.3009,1.32,1.3403,3.5234,3.5488,3.5605,3.5293,3.5234,3.5117,3.4746,3.4609,3.4551,3.4551,3.4453,3.4394,3.4394,3.4394,3.4355,3.4258,3.3555,3.2949,3.2519,3.25,3.2305,3.1905,3.1543,3.1367,3.1367,3.0937,2.9377,2.6624,2.4474,2.2258,1.9997,1.9997,1.9907,1.9693,1.9693,1.9602,1.9401,1.9401,1.9401,1.9401,1.9401,1.9401,1.9401,1.9401,1.9401,1.9401,1.9401,1.9401,1.9401,1.9401,1.9348,1.9294,1.9294,1.9294,1.9225,1.8985,1.9132,1.9388,1.9308,1.9294,1.9281,1.9201,1.9187,1.9134,1.8878,1.8824,1.8758,1.8544,1.849,1.849,1.849,1.8437,1.7946,1.6624,1.6335,1.6069,1.5388,1.3993,1.3512,1.4911,1.3572,1.2385,1.1989,1.1424,1.1118,1.1207,1.0156,1.0135,1.1534,1.0739,1.0178,1.01,1.0383,1.0587,1.0671,1.078,1.083,1.086,1.1043,1.1227,1.1376,1.1497,1.1586,1.1626,1.1698,1.1746,1.1766,1.2108,1.2237,1.2264,1.2562,1.2793,1.3016,1.3125,1.3241,1.3403,3.5684,3.5859,3.6016,3.5976,3.582,3.5664,3.5605,3.5273,3.5019,3.5019,3.4824,3.4707,3.4707,3.4531,3.4492,3.4687,3.4101,3.3535,3.3105,3.291,3.2519,3.1894,3.1641,3.1396,3.123,3.0996,2.9212,2.5747,2.41,2.2315,2.0441,2.0441,2.0201,1.98,1.98,1.9639,1.9401,1.9401,1.9401,1.9401,1.9401,1.9401,1.9401,1.9401,1.9401,1.9401,1.9401,1.9401,1.9401,1.9401,1.9401,1.9401,1.9401,1.9401,1.9361,1.9172,1.9267,1.9401,1.9401,1.9401,1.9401,1.9401,1.9401,1.9361,1.9158,1.9132,1.9078,1.896,1.892,1.892,1.892,1.8784,1.8097,1.6354,1.6317,1.5972,1.4451,1.3588,1.3451,1.4373,1.2856,1.1655,1.1511,1.0854,1.0386,1.0221,0.997,1.0157,1.0915,1.06,1.0343,1.0273,1.0187,1.0243,1.0487,1.0629,1.0752,1.0887,1.1233,1.1416,1.1497,1.1611,1.1755,1.1823,1.183,1.1834,1.1952,1.2196,1.2291,1.2311,1.2535,1.2766,1.3009,1.3091,1.3214,1.3403,3.6133,3.6196,3.6406,3.6719,3.6406,3.625,3.6656,3.5996,3.5488,3.5488,3.5137,3.4902,3.4902,3.459,3.4414,3.4448,3.41,3.3753,3.3523,3.3125,3.2559,3.1806,3.1738,3.1523,3.1123,3.0498,2.8683,2.565,2.4023,2.24,2.0766,2.0766,2.0485,1.9933,1.9933,1.9773,1.9522,1.9522,1.9495,1.9468,1.9468,1.9441,1.9401,1.9401,1.9428,1.9455,1.9415,1.9455,1.9522,1.9481,1.9495,1.9522,1.9522,1.9495,1.9468,1.9468,1.9428,1.9401,1.9401,1.9401,1.9401,1.9401,1.9401,1.9401,1.9401,1.9401,1.9401,1.9401,1.9401,1.9401,1.9401,1.8986,1.8084,1.6452,1.6469,1.5987,1.3869,1.3971,1.4131,1.3706,1.2204,1.1219,1.1244,1.0186,0.9483,0.9483,1.0161,1.0387,1.0057,1.0647,1.097,1.0909,1.064,1.0514,1.0561,1.0786,1.0934,1.0988,1.1387,1.1597,1.1653,1.1759,1.1938,1.2091,1.1945,1.1972,1.2145,1.2257,1.2325,1.2338,1.2481,1.2712,1.3003,1.3023,1.318,1.3437,3.6675,3.7148,3.7504,3.7246,3.689,3.6636,3.6695,3.625,3.5918,3.5918,3.5825,3.582,3.582,3.5762,3.5094,3.3576,3.3004,3.3111,3.3959,3.3574,3.323,3.3094,3.2793,3.2402,3.2003,2.8558,2.5832,2.3962,2.231,2.1335,2.1042,2.1042,2.0869,2.0579,2.0579,2.0374,2.0064,2.0064,1.996,1.9733,1.9733,1.9586,1.9401,1.9401,1.9548,1.9693,1.9481,1.9679,2.0024,1.9813,1.9893,2.0064,2.0064,1.9933,1.9733,1.9733,1.9589,1.9401,1.9401,1.9401,1.9401,1.9401,1.9401,1.9401,1.9401,1.9401,1.9401,1.9401,1.9401,1.9401,1.9401,1.8248,1.695,1.588,1.4984,1.4004,1.279,1.2166,1.1805,1.174,1.0648,0.9939,1.0035,0.9961,0.9913,0.9913,1.0197,1.0568,1.1025,1.0781,1.0831,1.1368,1.0813,1.0616,1.084,1.0887,1.1043,1.1328,1.1525,1.1644,1.1766,1.1959,1.2077,1.2104,1.2176,1.223,1.2264,1.2413,1.2467,1.2481,1.2637,1.28,1.3016,1.3139,1.3336,1.3551,3.6753,3.7168,3.7598,3.7637,3.7285,3.709,3.7305,3.6992,3.6621,3.6406,3.6367,3.6289,3.6035,3.488,3.3848,3.3256,3.1633,3.0941,3.168,3.2015,3.2484,3.3043,3.2891,3.2092,3.0569,2.7548,2.5192,2.3605,2.1915,2.1109,2.1109,2.1109,2.0949,2.0712,2.0712,2.0508,2.0197,2.0197,2.013,2.004,2.004,1.9947,1.9826,1.9826,1.992,1.9983,1.988,1.997,2.0184,2.005,2.009,2.0197,2.0197,2.0117,2.004,2.004,1.972,1.9401,1.9401,1.9401,1.9401,1.9401,1.9401,1.9401,1.9401,1.9401,1.9401,1.9401,1.9401,1.9127,1.8286,1.7501,1.6449,1.4791,1.3985,1.3193,1.2076,1.145,1.1032,1.0834,1.0144,0.9815,1.0046,1.0028,1.0049,1.0136,1.0243,1.0468,1.085,1.0625,1.0695,1.1178,1.0879,1.0839,1.1063,1.1145,1.1294,1.1518,1.1748,1.1938,1.2081,1.2155,1.2268,1.2298,1.2291,1.2332,1.2413,1.2562,1.2623,1.2598,1.2793,1.2942,1.3125,1.3186,1.3363,1.3585,3.6988,3.7305,3.7695,3.8027,3.7734,3.7559,3.7835,3.7559,3.7187,3.689,3.6414,3.5997,3.554,3.3459,3.2052,3.1878,2.9884,2.875,2.8997,2.9698,3.0614,3.1777,3.1665,3.0486,2.8213,2.644,2.4734,2.3131,2.1754,2.1109,2.1109,2.1109,2.0989,2.0775,2.0775,2.0655,2.041,2.041,2.037,2.0304,2.0304,2.0264,2.0197,2.0197,2.025,2.029,2.0224,2.029,2.0397,2.033,2.0344,2.041,2.041,2.0357,2.0304,2.0304,1.9691,1.9076,1.9391,1.9179,1.891,1.9301,1.9127,1.8852,1.8852,1.8852,1.8852,1.8852,1.8532,1.8023,1.7149,1.6403,1.5385,1.3838,1.321,1.2612,1.1578,1.127,1.095,1.0425,1.01,1.0019,1.0288,1.0202,1.017,1.0324,1.0397,1.0432,1.0541,1.0575,1.0704,1.1009,1.0982,1.107,1.1247,1.1335,1.1484,1.1638,1.1938,1.2179,1.2291,1.2325,1.24,1.2501,1.2427,1.2454,1.2569,1.2718,1.2786,1.28,1.2949,1.3118,1.322,1.3254,1.3451,1.3639,3.7796,3.8184,3.8496,3.8552,3.8164,3.7855,3.7874,3.7559,3.7285,3.7266,3.5631,3.4341,3.3995,3.2132,3.0117,2.8099,2.7734,2.744,2.7033,2.6849,2.7383,2.8843,2.8243,2.7117,2.5441,2.4592,2.3371,2.1735,2.1306,2.1109,2.1109,2.1109,2.1096,2.1082,2.1082,2.1069,2.1042,2.1042,2.0882,2.0672,2.0672,2.0481,2.0197,2.0197,2.0401,2.0601,2.0304,2.0557,2.1002,2.0766,2.0828,2.1042,2.1042,2.0855,2.0672,2.0672,1.9284,1.8027,1.941,1.8505,1.753,1.9039,1.8286,1.7179,1.7179,1.7179,1.7179,1.7179,1.5991,1.537,1.6756,1.4559,1.275,1.3411,1.2615,1.1779,1.1369,1.167,1.1521,1.0447,1.0274,1.0256,1.0308,1.0392,1.0466,1.0473,1.0609,1.0657,1.0671,1.0806,1.1016,1.1348,1.1254,1.1254,1.1375,1.1389,1.1531,1.178,1.1986,1.2179,1.2298,1.2427,1.2488,1.2508,1.2598,1.2665,1.2686,1.2921,1.2982,1.2996,1.3146,1.3207,1.3248,1.3492,1.3653,1.3802,3.7835,3.8281,3.8611,3.8611,3.8437,3.832,3.832,3.8184,3.7988,3.7715,3.5935,3.4451,3.3855,3.0943,2.8602,2.7608,2.6393,2.562,2.5458,2.5166,2.6035,2.8245,2.7801,2.676,2.5123,2.4558,2.3465,2.185,2.171,2.1563,2.1422,2.1422,2.1283,2.1109,2.1109,2.1109,2.1109,2.1109,2.1042,2.0949,2.0949,2.0882,2.0744,2.0744,2.0842,2.0922,2.0784,2.0922,2.1096,2.0989,2.1015,2.1109,2.1109,2.029,1.9101,1.8042,1.7036,1.6421,1.6988,1.6389,1.5782,1.6392,1.6042,1.5518,1.5518,1.5518,1.5518,1.5518,1.5089,1.462,1.4228,1.3236,1.2501,1.2499,1.1595,1.1049,1.1603,1.1236,1.0835,1.0481,1.0363,1.0383,1.0534,1.0514,1.0568,1.0725,1.0792,1.0867,1.0989,1.1138,1.1321,1.1525,1.1558,1.1606,1.1667,1.1667,1.1816,1.2115,1.2176,1.2277,1.242,1.2474,1.2501,1.2508,1.2625,1.2693,1.2713,1.299,1.3132,1.3146,1.3254,1.337,1.3471,1.3545,1.3777,1.3994,3.8066,3.8359,3.8611,3.8611,3.8611,3.8611,3.8611,3.8611,3.8239,3.7257,3.5412,3.3674,3.2433,2.9214,2.7029,2.6749,2.5451,2.4599,2.4599,2.4275,2.4862,2.6589,2.6284,2.5537,2.4438,2.3987,2.3253,2.2124,2.2031,2.1917,2.1729,2.1729,2.1569,2.1256,2.1256,2.1203,2.1109,2.1109,2.1109,2.1109,2.1109,2.1109,2.1109,2.1109,2.1109,2.1109,2.1109,2.1109,2.1109,2.1109,2.1109,2.1014,2.0462,1.9088,1.7345,1.5589,1.4941,1.4699,1.413,1.3717,1.3695,1.4645,1.4426,1.3996,1.3996,1.3996,1.3996,1.3996,1.3673,1.319,1.2611,1.219,1.1821,1.146,1.0766,1.0557,1.1337,1.0829,1.0399,1.0548,1.048,1.05,1.0671,1.0637,1.0691,1.0901,1.0955,1.1104,1.1294,1.145,1.1599,1.1755,1.185,1.1945,1.2003,1.1952,1.2033,1.2291,1.2338,1.2433,1.2576,1.2623,1.2644,1.2651,1.2807,1.2868,1.2888,1.3139,1.3247,1.3302,1.341,1.3539,1.3599,1.3736,1.3899,1.4125,3.8611,3.8611,3.8611,3.8611,3.8611,3.8611,3.8611,3.8611,3.7841,3.5775,3.3737,3.1598,2.9267,2.693,2.5398,2.5141,2.481,2.4599,2.4599,2.4088,2.3647,2.3305,2.3067,2.2893,2.2893,2.2579,2.2432,2.2398,2.2138,2.2004,2.1991,2.2024,2.1877,2.1628,2.1582,2.1422,2.1122,2.1109,2.1109,2.1109,2.1109,2.1109,2.1109,2.1109,2.1109,2.1109,2.1109,2.1109,2.1109,2.1109,2.1077,2.0779,1.9024,1.728,1.5524,1.3774,1.3292,1.2898,1.1174,1.0609,1.1221,1.4223,1.3823,1.2672,1.2672,1.2672,1.2672,1.2672,1.1404,1.0785,1.2398,1.1372,1.0315,1.0315,1.0315,1.0363,1.0473,1.0493,1.0548,1.0704,1.0691,1.0691,1.0691,1.0826,1.0914,1.0887,1.1084,1.1336,1.1606,1.1719,1.1904,1.2098,1.2104,1.2247,1.2501,1.2254,1.2179,1.2298,1.244,1.2583,1.2699,1.2895,1.3003,1.3009,1.3152,1.3214,1.3227,1.3336,1.3403,1.3417,1.3566,1.3592,1.3626,1.3966,1.4119,1.4139,3.8552,3.8611,3.8611,3.8611,3.8611,3.8611,3.8611,3.8611,3.7841,3.5775,3.3737,3.1598,2.9267,2.7112,2.5705,2.5411,2.5117,2.4863,2.4613,2.4088,2.3857,2.3941,2.3281,2.3,2.318,2.3065,2.3153,2.3367,2.3322,2.3126,2.2926,2.2699,2.2479,2.2151,2.1951,2.1836,2.171,2.1542,2.1448,2.1435,2.1189,2.1109,2.1109,2.1109,2.1109,2.1109,2.1109,2.1109,2.1109,2.1109,2.0291,1.8768,1.5784,1.4493,1.3742,1.1992,1.1472,1.1372,1.085,1.065,1.0845,1.1639,1.1423,1.1031,1.1031,1.1031,1.1031,1.1031,1.0703,1.0587,1.1063,1.0839,1.0588,1.0588,1.0588,1.0602,1.0643,1.0649,1.0677,1.0826,1.0846,1.0887,1.1057,1.1104,1.1145,1.1253,1.1491,1.1721,1.1955,1.2074,1.2216,1.2366,1.2474,1.2623,1.286,1.2522,1.2501,1.2799,1.2846,1.2887,1.2895,1.2982,1.3003,1.3009,1.3152,1.3214,1.3227,1.3336,1.3464,1.3524,1.3572,1.3756,1.3953,1.4041,1.4143,1.4238,3.8552,3.8611,3.8611,3.8611,3.8611,3.8611,3.8611,3.8611,3.7585,3.4676,3.3247,3.1357,2.8308,2.6776,2.5917,2.5705,2.5317,2.4957,2.4613,2.4195,2.4022,2.4195,2.3567,2.3348,2.35,2.35,2.3594,2.3803,2.3803,2.371,2.35,2.3348,2.3027,2.2579,2.2452,2.2205,2.1977,2.1836,2.1756,2.1743,2.1537,2.139,2.1315,2.1315,2.1216,2.1109,2.1109,2.1109,2.1109,2.1109,1.9483,1.698,1.4166,1.2832,1.2058,1.1016,1.0684,1.0684,1.0684,1.0684,1.0664,1.0609,1.0521,1.0453,1.0453,1.0453,1.0453,1.0453,1.0521,1.0582,1.0582,1.0656,1.0684,1.0684,1.0684,1.0684,1.0684,1.0738,1.0813,1.0907,1.0961,1.107,1.1186,1.1308,1.1465,1.1676,1.1877,1.2081,1.2268,1.2379,1.2528,1.2678,1.2773,1.2895,1.3084,1.2861,1.2834,1.3003,1.3057,1.3084,1.3091,1.3146,1.3173,1.3139,1.3227,1.3261,1.3268,1.3363,1.3492,1.3592,1.3646,1.3858,1.4125,1.4143,1.4224,1.4299,3.8669,3.8669,3.8689,3.8728,3.8689,3.8669,3.8669,3.863,3.7125,3.3037,3.2522,3.0986,2.6887,2.6225,2.6078,2.6078,2.5516,2.4997,2.4653,2.4382,2.4209,2.4235,2.3968,2.3857,2.3884,2.3857,2.3857,2.3884,2.3884,2.3884,2.3884,2.3857,2.3549,2.3014,2.2987,2.2666,2.2098,2.1905,2.1912,2.2017,2.1826,2.1686,2.1622,2.1596,2.1422,2.1149,2.1149,2.1041,2.0824,2.052,1.8334,1.5388,1.3645,1.2015,1.0704,1.0691,1.0684,1.0691,1.0704,1.0698,1.0691,1.0704,1.0698,1.0684,1.0684,1.0698,1.0711,1.0711,1.0718,1.0725,1.0725,1.0718,1.0711,1.0725,1.0718,1.0711,1.0725,1.0846,1.0941,1.0955,1.1118,1.124,1.1254,1.1491,1.1775,1.2098,1.2223,1.2372,1.2515,1.2678,1.284,1.3037,1.3043,1.3118,1.3227,1.322,1.3186,1.3043,1.3173,1.3234,1.3241,1.3336,1.3403,1.3403,1.3403,1.341,1.3417,1.3403,1.3505,1.3682,1.3754,1.3946,1.4109,1.4251,1.4299,1.4299,3.9004,3.9062,3.918,3.9551,3.9316,3.9062,3.9062,3.8789,3.7125,3.3037,3.266,3.1253,2.716,2.6667,2.664,2.664,2.5892,2.5291,2.4997,2.4489,2.4302,2.4492,2.4262,2.4209,2.4412,2.4222,2.4222,2.4412,2.4412,2.4412,2.4412,2.4209,2.4035,2.3901,2.371,2.3367,2.2916,2.1233,2.1225,2.2164,2.0485,2.0638,2.1903,2.1676,2.1542,2.1489,2.1489,2.0451,1.8664,1.6017,1.4733,1.3933,1.2034,1.1163,1.084,1.0725,1.0684,1.0711,1.0833,1.0779,1.0718,1.0833,1.0772,1.0684,1.0684,1.0779,1.0867,1.0867,1.0989,1.1104,1.1104,1.0975,1.0901,1.1084,1.0975,1.0907,1.1084,1.1132,1.1158,1.128,1.143,1.1565,1.1674,1.1857,1.2077,1.223,1.2372,1.2522,1.2632,1.2929,1.3146,1.3302,1.3308,1.3431,1.3653,1.3587,1.3458,1.3308,1.3336,1.3349,1.3349,1.3383,1.3403,1.3403,1.3403,1.3471,1.3531,1.3451,1.3627,1.3966,1.3835,1.4007,1.4251,1.4285,1.4299,1.4299,3.9199,3.9375,3.9609,3.9863,3.9687,3.9531,3.9531,3.9355,3.7727,3.3557,3.3143,3.1591,2.7269,2.6787,2.6707,2.6426,2.5985,2.5598,2.5304,2.4997,2.4903,2.5013,2.4903,2.4903,2.5013,2.4903,2.477,2.4599,2.4599,2.4599,2.4599,2.4439,2.4342,2.4195,2.4048,2.3259,2.199,2.0778,2.0192,1.9969,1.8753,1.8755,1.9507,1.9378,1.9215,1.9109,1.9109,1.8423,1.7105,1.4504,1.3696,1.349,1.161,1.105,1.1036,1.0955,1.0928,1.0948,1.1029,1.0995,1.0948,1.1029,1.0989,1.0914,1.0813,1.086,1.0934,1.1036,1.1145,1.12,1.12,1.1104,1.1077,1.1186,1.1097,1.1104,1.1288,1.1308,1.1355,1.1572,1.1638,1.1809,1.2026,1.2182,1.2332,1.2488,1.2637,1.2786,1.2935,1.3159,1.3315,1.3397,1.3539,1.3612,1.3693,1.3693,1.3646,1.3607,1.3607,1.3607,1.3607,1.3497,1.3512,1.3505,1.3431,1.3485,1.3578,1.3504,1.3729,1.4105,1.398,1.4095,1.4299,1.4299,1.4299,1.4299,3.9375,3.9629,3.9941,4.0098,4.0117,4.0117,4.0117,4.0,3.8633,3.5158,3.401,3.185,2.735,2.6894,2.6667,2.6118,2.6078,2.5957,2.5678,2.5571,2.5518,2.5518,2.5518,2.5518,2.5518,2.5518,2.5213,2.4679,2.4679,2.4653,2.4599,2.4599,2.4466,2.4275,2.4275,2.2966,2.0777,2.0292,1.911,1.7454,1.6954,1.6817,1.6851,1.6811,1.6656,1.6462,1.6462,1.6278,1.5763,1.4002,1.3401,1.3184,1.1691,1.1234,1.1234,1.1206,1.12,1.12,1.1227,1.122,1.1206,1.1227,1.122,1.1172,1.1009,1.0988,1.1022,1.1213,1.1254,1.1274,1.1274,1.1254,1.1254,1.1302,1.1288,1.1336,1.1519,1.1504,1.1599,1.1807,1.1881,1.2054,1.2338,1.2494,1.263,1.272,1.2935,1.3125,1.3248,1.3376,1.3492,1.3512,1.3687,1.3768,1.37,1.3788,1.3849,1.3876,1.3876,1.3849,1.3795,1.3673,1.3612,1.3585,1.3519,1.3546,1.3626,1.3626,1.3844,1.4109,1.4125,1.4163,1.4299,1.4299,1.4299,1.4299,3.9668,3.9863,4.0137,4.0879,4.1035,4.1035,4.1035,4.0371,3.9694,3.9108,3.5779,3.1865,2.769,2.7242,2.7015,2.6386,2.6333,2.6319,2.6266,2.5798,2.5518,2.5518,2.5518,2.5518,2.5518,2.5518,2.5344,2.5024,2.5024,2.489,2.4599,2.4599,2.4572,2.4546,2.4546,2.3283,2.102,1.9338,1.817,1.7357,1.5687,1.5881,1.7107,1.6871,1.6781,1.6751,1.6751,1.5841,1.4366,1.2374,1.1797,1.1852,1.1473,1.1362,1.1335,1.1234,1.12,1.1227,1.1321,1.1295,1.1227,1.1328,1.1295,1.1227,1.1307,1.1328,1.1335,1.1355,1.1463,1.1558,1.1558,1.145,1.1443,1.1665,1.164,1.1653,1.1968,1.2009,1.2023,1.2064,1.2257,1.2481,1.2618,1.2807,1.2948,1.2969,1.3186,1.3349,1.337,1.3592,1.3844,1.4016,1.3892,1.3916,1.4204,1.4095,1.4109,1.4238,1.4238,1.4095,1.3795,1.3781,1.37,1.3592,1.3693,1.3747,1.3768,1.3768,1.395,1.4258,1.4166,1.4163,1.4299,1.4299,1.4299,1.4299,3.9922,4.0273,4.0761,4.1152,4.1211,4.1211,4.1211,4.0859,3.9759,3.7312,3.5305,3.2501,2.8289,2.751,2.7068,2.644,2.6386,2.6386,2.6386,2.6146,2.5999,2.5999,2.5999,2.5999,2.5999,2.5999,2.5865,2.561,2.5077,2.4733,2.4599,2.4599,2.4599,2.4599,2.4599,2.4027,2.2817,1.8935,1.7094,1.6598,1.4144,1.3496,1.4041,1.3924,1.3891,1.3907,1.3962,1.3559,1.2829,1.1906,1.159,1.1606,1.1538,1.1518,1.1504,1.1436,1.1416,1.1436,1.1497,1.1525,1.1552,1.1619,1.1586,1.1552,1.1619,1.1579,1.1518,1.1518,1.1633,1.1698,1.1698,1.1755,1.1846,1.1938,1.1904,1.1975,1.2193,1.2152,1.2132,1.222,1.2447,1.2618,1.2686,1.2942,1.3152,1.32,1.3403,1.3518,1.3599,1.3851,1.396,1.3946,1.4041,1.4122,1.417,1.419,1.4231,1.4299,1.4299,1.4231,1.4095,1.4007,1.3933,1.3878,1.3808,1.3849,1.3973,1.3973,1.4102,1.4292,1.4224,1.4238,1.4299,1.4299,1.4299,1.4299]},{"header":{"parameterUnit":"m.s-1","parameterCategory":1,"la1":30.6,"la2":28.766,"lo1":-90.7593,"lo2":-88.6598,"dy":0.0162,"dx":0.0183,"nx":116,"ny":114,"refTime":"2023-11-16T06:00:00:Z","depth":0,"parameterNumber":3,"parameterNumberName":"V-component_of_WINDS"},"data":[0.0,0.0,0.0,0.0,0.0,0.0,0.0,0.0,0.0,0.0,0.0,0.0,0.0,0.0,0.0,0.0,0.0,0.0,0.0,0.0,0.0,0.0,0.0,0.0,0.0,0.0,0.0,0.0,0.0,0.0,0.0,0.0,0.0,0.0,0.0,0.0,0.0,0.0,0.0,0.0,0.0,0.0,0.0,0.0,0.0,0.0,0.0,0.0,0.0,0.0,0.0,0.0,0.0,0.0,0.0,0.0,0.0,0.0,0.0,0.0,0.0,0.0,0.0,0.0,0.0,0.0,0.0,0.0,0.0,0.0,0.0,0.0,0.0,0.0,0.0,0.0,0.0,0.0,0.0,0.0,0.0,0.0,0.0,0.0,0.0,0.0,0.0,0.0,0.0,0.0,0.0,0.0,0.0,0.0,0.0,0.0,0.0,0.0,0.0,0.0,0.0,0.0,0.0,0.0,0.0,0.0,0.0,0.0,0.0,0.0,0.0,0.0,0.0,0.0,0.0,0.0,0.0,0.0,0.0,0.0,0.0,0.0,0.0,0.0,0.0,0.0,0.0,0.0,0.0,0.0,0.0,0.0,0.0,0.0,0.0,0.0,0.0,0.0,0.0,0.0,0.0,0.0,0.0,0.0,0.0,0.0,0.0,0.0,0.0,0.0,0.0,0.0,0.0,0.0,0.0,0.0,0.0,0.0,0.0,0.0,0.0,0.0,0.0,0.0,0.0,0.0,0.0,0.0,0.0,0.0,0.0,0.0,0.0,0.0,0.0,0.0,0.0,0.0,0.0,0.0,0.0,0.0,0.0,0.0,0.0,0.0,0.0,0.0,0.0,0.0,0.0,0.0,0.0,0.0,0.0,0.0,0.0,0.0,0.0,0.0,0.0,0.0,0.0,0.0,0.0,0.0,0.0,0.0,0.0,0.0,0.0,0.0,0.0,0.0,0.0,0.0,0.0,0.0,0.0,0.0,0.0,0.0,0.0,0.0,0.0,0.0,0.0,0.0,0.0,0.0,0.0,0.0,0.0,0.0,0.0,0.0,0.0,0.0,0.0,0.0,0.0,0.0,0.0,0.0,0.0,0.0,0.0,0.0,0.0,0.0,0.0,0.0,0.0,0.0,0.0,0.0,0.0,0.0,0.0,0.0,0.0,0.0,0.0,0.0,0.0,0.0,0.0,0.0,0.0,0.0,0.0,0.0,0.0,0.0,0.0,0.0,0.0,0.0,0.0,0.0,0.0,0.0,0.0,0.0,0.0,0.0,0.0,0.0,0.0,0.0,0.0,0.0,0.0,0.0,0.0,0.0,0.0,0.0,0.0,0.0,0.0,0.0,0.0,0.0,0.0,0.0,0.0,0.0,0.0,0.0,0.0,0.0,0.0,0.0,0.0,0.0,0.0,0.0,0.0,0.0,0.0,0.0,0.0,0.0,0.0,0.0,0.0,0.0,0.0,0.0,0.0,0.0,0.0,0.0,0.0,0.0,0.0,0.0,0.0,0.0,0.0,0.0,0.0,0.0,0.0,0.0,0.0,0.0,0.0,0.0,0.0,0.0,0.0,0.0,0.0,0.0,0.0,0.0,0.0,0.0,0.0,0.0,0.0,0.0,0.0,0.0,0.0,0.0,0.0,0.0,0.0,0.0,0.0,0.0,0.0,0.0,0.0,0.0,0.0,0.0,0.0,0.0,0.0,0.0,0.0,0.0,0.0,0.0,0.0,0.0,0.0,0.0,0.0,0.0,0.0,0.0,0.0,0.0,0.0,0.0,0.0,0.0,0.0,0.0,0.0,0.0,0.0,0.0,0.0,0.0,0.0,0.0,0.0,0.0,0.0,0.0,0.0,0.0,0.0,0.0,0.0,0.0,0.0,0.0,0.0,0.0,0.0,0.0,0.0,0.0,0.0,0.0,0.0,0.0,0.0,0.0,0.0,0.0,0.0,0.0,0.0,0.0,0.0,0.0,0.0,0.0,0.0,0.0,0.0,0.0,0.0,0.0,0.0,0.0,0.0,0.0,0.0,0.0,0.0,0.0,0.0,0.0,0.0,0.0,0.0,0.0,0.0,0.0,0.0,0.0,0.0,0.0,0.0,0.0,0.0,0.0,0.0,0.0,0.0,0.0,0.0,0.0,0.0,0.0,0.0,0.0,0.0,0.0,0.0,0.0,0.0,0.0,0.0,0.0,0.0,0.0,0.0,0.0,0.0,0.0,0.0,0.0,0.0,0.0,0.0,0.0,0.0,0.0,0.0,0.0,0.0,0.0,0.0,0.0,0.0,0.0,0.0,0.0,0.0,0.0,0.0,0.0,0.0,0.0,0.0,0.0,0.0,0.0,0.0,0.0,0.0,0.0,0.0,0.0,0.0,0.0,0.0,0.0,0.0,0.0,0.0,0.0,0.0,0.0,0.0,0.0,0.0,0.0,0.0,0.0,0.0,0.0,0.0,0.0,0.0,0.0,0.0,0.0,0.0,0.0,0.0,0.0,0.0,0.0,0.0,0.0,0.0,0.0,0.0,0.0,0.0,0.0,0.0,0.0,0.0,0.0,0.0,0.0,0.0,0.0,0.0,0.0,0.0,0.0,0.0,0.0,0.0,0.0,0.0,0.0,0.0,0.0,0.0,0.0,0.0,0.0,0.0,0.0,0.0,0.0,0.0,0.0,0.0,0.0,0.0,0.0,0.0,0.0,0.0,0.0,0.0,0.0,0.0,0.0,0.0,0.0,0.0,0.0,0.0,0.0,0.0,0.0,0.0,0.0,0.0,0.0,0.0,0.0,0.0,0.0,0.0,0.0,0.0,0.0,0.0,0.0,0.0,0.0,0.0,0.0,0.0,0.0,0.0,0.0,0.0,0.0,0.0,0.0,0.0,0.0,0.0,0.0,0.0,0.0,0.0,0.0,0.0,0.0,0.0,0.0,0.0,0.0,0.0,0.0,0.0,0.0,0.0,0.0,0.0,0.0,0.0,0.0,0.0,0.0,0.0,0.0,0.0,0.0,0.0,0.0,0.0,0.0,0.0,0.0,0.0,0.0,0.0,0.0,0.0,0.0,0.0,0.0,0.0,0.0,0.0,0.0,0.0,0.0,0.0,0.0,0.0,0.0,0.0,0.0,0.0,0.0,0.0,0.0,0.0,0.0,0.0,0.0,0.0,0.0,0.0,0.0,0.0,0.0,0.0,0.0,0.0,0.0,0.0,0.0,0.0,0.0,0.0,0.0,0.0,0.0,0.0,0.0,0.0,0.0,0.0,0.0,0.0,0.0,0.0,0.0,0.0,0.0,0.0,0.0,0.0,0.0,0.0,0.0,0.0,0.0,0.0,0.0,0.0,0.0,0.0,0.0,0.0,0.0,0.0,0.0,0.0,0.0,0.0,0.0,0.0,0.0,0.0,0.0,0.0,0.0,0.0,0.0,0.0,0.0,0.0,0.0,0.0,0.0,0.0,0.0,0.0,0.0,0.0,0.0,0.0,0.0,0.0,0.0,0.0,0.0,0.0,0.0,0.0,0.0,0.0,0.0,0.0,0.0,0.0,0.0,0.0,0.0,0.0,0.0,0.0,0.0,0.0,0.0,0.0,0.0,0.0,0.0,0.0,0.0,0.0,0.0,0.0,0.0,0.0,0.0,0.0,0.0,0.0,0.0,0.0,0.0,0.0,0.0,0.0,0.0,0.0,0.0,0.0,0.0,0.0,0.0,0.0,0.0,0.0,0.0,0.0,0.0,0.0,0.0,0.0,0.0,0.0,0.0,0.0,0.0,0.0,0.0,0.0,0.0,0.0,0.0,0.0,0.0,0.0,0.0,0.0,0.0,0.0,0.0,0.0,0.0,0.0,0.0,0.0,0.0,0.0,0.0,0.0,0.0,0.0,0.0,0.0,0.0,0.0,0.0,0.0,0.0,0.0,0.0,0.0,0.0,0.0,0.0,0.0,0.0,0.0,0.0,0.0,0.0,0.0,0.0,0.0,0.0,0.0,0.0,0.0,0.0,0.0,0.0,0.0,0.0,0.0,0.0,0.0,0.0,0.0,0.0,0.0,0.0,0.0,0.0,0.0,0.0,0.0,0.0,0.0,0.0,0.0,0.0,0.0,0.0,0.0,0.0,0.0,0.0,0.0,0.0,0.0,0.0,0.0,0.0,0.0,0.0,0.0,0.0,0.0,0.0,0.0,0.0,0.0,0.0,0.0,0.0,0.0,0.0,0.0,0.0,0.0,0.0,0.0,0.0,0.0,0.0,0.0,0.0,0.0,0.0,0.0,0.0,0.0,0.0,0.0,0.0,0.0,0.0,0.0,0.0,0.0,0.0,0.0,0.0,0.0,0.0,0.0,0.0,0.0,0.0,0.0,0.0,0.0,0.0,0.0,0.0,0.0,0.0,0.0,0.0,0.0,0.0,0.0,0.0,0.0,0.0,0.0,0.0,0.0,0.0,0.0,0.0,0.0,0.0,0.0,0.0,0.0,0.0,0.0,0.0,0.0,0.0,0.0,0.0,0.0,0.0,0.0,0.0,0.0,0.0,0.0,0.0,0.0,0.0,0.0,0.0,0.0,0.0,0.0,0.0,0.0,0.0,0.0,0.0,0.0,0.0,0.0,0.0,0.0,0.0,0.0,0.0,0.0,0.0,0.0,0.0,0.0,0.0,0.0,0.0,0.0,0.0,0.0,0.0,0.0,0.0,0.0,0.0,0.0,0.0,0.0,0.0,0.0,0.0,0.0,0.0,0.0,0.0,0.0,0.0,0.0,0.0,0.0,0.0,0.0,0.0,0.0,0.0,0.0,0.0,0.0,0.0,0.0,0.0,0.0,0.0,0.0,0.0,0.0,0.0,0.0,0.0,0.0,0.0,0.0,0.0,0.0,0.0,0.0,0.0,0.0,0.0,0.0,0.0,0.0,0.0,0.0,0.0,0.0,0.0,0.0,0.0,0.0,0.0,0.0,0.0,0.0,0.0,0.0,0.0,0.0,0.0,0.0,0.0,0.0,0.0,0.0,0.0,0.0,0.0,0.0,0.0,0.0,0.0,0.0,0.0,0.0,0.0,0.0,0.0,0.0,0.0,0.0,0.0,0.0,0.0,0.0,0.0,0.0,0.0,0.0,0.0,0.0,0.0,0.0,0.0,0.0,0.0,0.0,0.0,0.0,0.0,0.0,0.0,0.0,0.0,0.0,0.0,0.0,0.0,0.0,0.0,0.0,0.0,0.0,0.0,0.0,0.0,0.0,0.0,0.0,0.0,0.0,0.0,0.0,0.0,0.0,0.0,0.0,0.0,0.0,0.0,0.0,0.0,0.0,0.0,0.0,0.0,0.0,0.0,0.0,0.0,0.0,0.0,0.0,0.0,0.0,0.0,0.0,0.0,0.0,0.0,0.0,0.0,0.0,0.0,0.0,0.0,0.0,0.0,0.0,0.0,0.0,0.0,0.0,0.0,0.0,0.0,0.0,0.0,0.0,0.0,0.0,0.0,0.0,0.0,0.0,0.0,0.0,0.0,0.0,0.0,0.0,0.0,0.0,0.0,0.0,0.0,0.0,0.0,0.0,0.0,0.0,0.0,0.0,0.0,0.0,0.0,0.0,0.0,0.0,0.0,0.0,0.0,0.0,0.0,0.0,0.0,0.0,0.0,0.0,0.0,0.0,0.0,0.0,0.0,0.0,0.0,0.0,0.0,0.0,0.0,0.0,0.0,0.0,0.0,0.0,0.0,0.0,0.0,0.0,0.0,0.0,0.0,0.0,0.0,0.0,0.0,0.0,0.0,0.0,0.0,0.0,0.0,0.0,0.0,0.0,0.0,0.0,0.0,0.0,0.0,0.0,0.0,0.0,0.0,0.0,0.0,0.0,0.0,0.0,0.0,0.0,0.0,0.0,0.0,0.0,0.0,0.0,0.0,0.0,0.0,0.0,0.0,0.0,0.0,0.0,0.0,0.0,0.0,0.0,0.0,0.0,0.0,0.0,0.0,0.0,0.0,0.0,0.0,0.0,0.0,0.0,0.0,0.0,0.0,0.0,0.0,0.0,0.0,0.0,0.0,0.0,0.0,0.0,0.0,0.0,0.0,0.0,0.0,0.0,0.0,0.0,0.0,0.0,0.0,0.0,0.0,2.3687,2.3426,0.0,0.0,0.0,0.0,0.0,0.0,0.0,0.0,0.0,0.0,0.0,0.0,0.0,0.0,0.0,0.0,0.0,0.0,0.0,0.0,0.0,0.0,0.0,0.0,0.0,0.0,0.0,0.0,0.0,0.0,0.0,0.0,0.0,0.0,0.0,0.0,0.0,1.3666,1.3951,1.4694,1.5871,1.6951,1.7311,1.7094,0.0,0.0,0.0,0.0,0.0,0.0,0.0,0.0,0.0,0.0,0.0,0.0,0.0,0.0,0.0,0.0,0.0,0.0,0.0,0.0,0.0,0.0,0.0,0.0,0.0,0.0,0.0,0.0,0.0,0.0,0.0,0.0,0.0,0.0,0.0,0.0,0.0,0.0,0.0,0.0,0.0,0.0,0.0,0.0,0.0,0.0,0.0,0.0,0.0,0.0,0.0,0.0,0.0,0.0,0.0,0.0,0.0,0.0,0.0,0.0,0.0,0.0,0.0,0.0,0.0,0.0,0.0,0.0,0.0,0.0,2.8104,2.6519,0.0,0.0,0.0,0.0,0.0,0.0,0.0,0.0,0.0,0.0,0.0,0.0,0.0,0.0,0.0,0.0,0.0,0.0,0.0,0.0,0.0,0.0,0.0,1.3481,1.356,1.3562,1.4071,1.4449,1.4531,0.0,0.0,0.0,0.0,0.0,1.359,1.3582,1.388,1.4417,1.4994,1.6678,1.9378,2.0942,2.1011,1.9842,1.896,0.0,0.0,0.0,0.0,0.0,0.0,0.0,0.0,0.0,0.0,0.0,0.0,0.0,0.0,0.0,0.0,0.0,0.0,0.0,0.0,0.0,0.0,0.0,0.0,0.0,0.0,0.0,0.0,0.0,0.0,0.0,0.0,0.0,0.0,0.0,0.0,0.0,0.0,0.0,0.0,0.0,0.0,0.0,0.0,0.0,0.0,0.0,0.0,0.0,0.0,0.0,0.0,0.0,0.0,0.0,0.0,0.0,0.0,0.0,0.0,0.0,0.0,0.0,3.49,3.6379,3.7732,3.7732,3.78,3.7653,3.2873,3.0242,2.9271,2.9075,0.0,0.0,0.0,0.0,0.0,0.0,0.0,0.0,0.0,0.0,0.0,0.0,0.0,0.0,0.0,0.0,0.0,0.0,0.0,1.255,1.2468,1.2993,1.3763,1.4827,1.446,1.4649,1.5766,0.0,0.0,0.0,0.0,1.3663,1.359,1.4114,1.4662,1.5333,1.8228,2.0851,2.3136,2.5008,2.6105,2.6354,2.2021,2.0128,2.0128,0.0,0.0,0.0,0.0,0.0,0.0,0.0,0.0,0.0,0.0,0.0,0.0,0.0,0.0,0.0,0.0,0.0,0.0,0.0,0.0,0.0,0.0,0.0,0.0,0.0,0.0,0.0,0.0,0.0,0.0,0.0,0.0,0.0,0.0,0.0,0.0,0.0,0.0,0.0,0.0,0.0,2.3925,2.4927,0.0,0.0,0.0,0.0,0.0,0.0,0.0,0.0,0.0,0.0,0.0,0.0,0.0,3.2851,3.2235,3.5351,3.633,3.5262,3.6804,3.7672,3.7853,3.7853,3.8237,3.8744,3.7378,0.0,3.3385,2.9985,0.0,0.0,0.0,0.0,0.0,0.0,0.0,0.0,0.0,0.0,0.0,0.0,0.0,0.0,0.0,0.0,0.0,0.0,0.0,0.0,0.0,1.5252,1.6395,1.6425,1.8396,1.9098,1.7871,1.7627,0.0,0.0,1.5168,1.4951,1.4882,1.5509,1.6989,1.9277,2.2363,2.4838,2.6762,2.8024,2.8986,2.9615,2.7016,2.47,2.2678,2.1303,0.0,0.0,0.0,0.0,0.0,0.0,0.0,0.0,0.0,0.0,0.0,0.0,0.0,0.0,0.0,0.0,0.0,0.0,0.0,0.0,0.0,0.0,0.0,0.0,0.0,0.0,0.0,0.0,0.0,0.0,0.0,0.0,0.0,0.0,0.0,0.0,0.0,0.0,0.0,2.3532,2.5687,2.5285,2.6541,2.702,0.0,0.0,0.0,0.0,0.0,0.0,0.0,0.0,0.0,3.4395,3.7172,3.8327,3.7667,3.9868,4.065,3.9995,4.1136,4.169,4.1657,4.1204,4.1157,4.1428,4.0696,3.958,3.8012,3.4588,3.3321,3.3278,0.0,0.0,0.0,0.0,2.8352,3.0326,0.0,0.0,0.0,0.0,0.0,0.0,0.0,0.0,0.0,0.0,0.0,0.0,1.5634,1.78,1.9317,1.9526,2.182,2.2368,2.0291,1.9922,1.8912,1.6942,1.6477,1.6149,1.5937,1.7476,1.9951,2.3351,2.6278,2.8639,3.0422,3.1157,3.1901,3.2588,3.1823,2.9369,2.5662,2.3818,2.2159,2.071,0.0,0.0,0.0,0.0,0.0,0.0,0.0,0.0,0.0,0.0,0.0,0.0,0.0,0.0,0.0,0.0,0.0,0.0,0.0,0.0,0.0,0.0,0.0,0.0,0.0,0.0,0.0,0.0,0.0,0.0,0.0,0.0,0.0,0.0,0.0,0.0,0.0,2.5895,2.7835,2.6571,2.9167,3.0364,0.0,0.0,0.0,0.0,0.0,0.0,3.5098,3.7809,3.932,3.9392,4.1848,4.2895,4.2354,4.3254,4.3795,4.3998,4.4587,4.4973,4.5142,4.4553,4.4346,4.447,4.3748,4.3231,4.2598,3.8882,3.6974,3.6183,3.4086,3.4086,3.4901,3.2382,3.3473,3.6167,0.0,0.0,0.0,0.0,0.0,0.0,0.0,0.0,0.0,0.0,0.0,1.6345,1.8378,1.9669,2.1741,2.5092,2.3007,2.1969,2.3025,1.9975,1.7782,1.7004,1.6969,1.6644,1.6017,1.9946,2.3502,2.6454,2.9499,3.207,3.4246,3.4968,3.5757,3.6491,3.5678,3.3055,2.9148,2.7722,2.5966,2.4075,2.3051,0.0,0.0,0.0,0.0,0.0,0.0,0.0,0.0,0.0,0.0,0.0,0.0,0.0,0.0,0.0,0.0,0.0,0.0,0.0,0.0,0.0,0.0,0.0,0.0,0.0,0.0,0.0,0.0,0.0,0.0,0.0,0.0,0.0,0.0,0.0,0.0,0.0,0.0,3.0657,3.3594,0.0,0.0,0.0,0.0,3.6679,3.7702,3.9278,4.1685,4.3417,4.4326,4.4262,4.5094,4.55,4.5452,4.4838,4.4905,4.5602,4.5635,4.6007,4.6699,4.6665,4.6968,4.7559,4.6789,4.687,4.7014,4.1265,3.887,3.8734,3.7898,3.8413,3.9499,3.863,3.9266,4.0374,0.0,0.0,0.0,0.0,0.0,0.0,0.0,0.0,1.4871,1.4846,1.6522,1.8161,1.9312,2.299,2.5887,2.7112,2.797,2.7735,2.6176,2.3704,2.1563,1.9829,1.8537,1.8795,2.085,2.4183,2.7597,3.1021,3.3041,3.4934,3.6705,3.6963,3.7234,3.7483,3.72,3.6027,3.3983,3.0585,2.799,2.601,2.3783,2.1864,0.0,0.0,0.0,0.0,0.0,0.0,0.0,0.0,0.0,0.0,0.0,0.0,0.0,0.0,0.0,0.0,0.0,0.0,0.0,0.0,0.0,0.0,0.0,0.0,0.0,0.0,0.0,0.0,0.0,0.0,0.0,0.0,0.0,0.0,0.0,0.0,0.0,3.4375,3.7548,0.0,3.7953,3.7536,3.8666,4.1769,4.1815,4.3151,4.6446,4.7624,4.8605,4.9584,5.0354,5.0711,5.0711,5.0459,5.0459,5.0724,5.0194,5.011,5.0306,4.9329,4.9008,4.9174,4.8451,4.8261,4.8351,4.6253,4.448,4.3034,4.2322,4.2295,4.2568,4.1837,4.2422,4.3528,0.0,0.0,0.0,0.0,0.0,0.0,0.0,1.4991,1.5066,1.5416,1.7888,2.0253,2.2072,2.6366,2.9513,3.0478,3.0941,3.0281,2.812,2.5213,2.2802,2.0999,2.0366,2.1614,2.5001,2.8092,3.1126,3.4157,3.5645,3.7031,3.8261,3.8261,3.8261,3.8261,3.8261,3.7855,3.6953,3.3728,3.1018,2.871,2.6144,2.4074,2.2257,0.0,0.0,0.0,0.0,0.0,0.0,0.0,0.0,0.0,0.0,0.0,0.0,0.0,0.0,0.0,0.0,0.0,0.0,0.0,0.0,0.0,0.0,0.0,0.0,0.0,0.0,0.0,0.0,0.0,0.0,0.0,0.0,0.0,0.0,3.4235,3.7674,3.7836,4.1413,4.3471,4.2442,4.2368,4.3418,4.5906,4.6076,4.7271,5.0014,5.1067,5.2094,5.3127,5.3624,5.3858,5.3858,5.3624,5.3517,5.3482,5.2958,5.2542,5.2259,5.1231,5.0756,5.0684,5.0174,5.0104,5.0353,5.0353,4.9286,4.7524,4.6299,4.5768,4.5664,4.5422,4.5883,4.6676,0.0,0.0,0.0,0.0,0.0,0.0,1.5108,1.5049,1.5448,1.6633,1.9257,2.2553,2.6638,2.9581,3.2442,3.5295,3.1529,2.8912,2.8688,2.4135,2.1118,2.0371,2.2394,2.5011,2.8101,3.1475,3.4027,3.5735,3.7235,3.834,3.9039,3.9039,3.9039,3.9039,3.9039,3.8633,3.791,3.7224,3.5204,3.233,3.0389,2.765,2.4542,0.0,0.0,0.0,0.0,0.0,0.0,0.0,0.0,0.0,0.0,0.0,0.0,0.0,0.0,0.0,0.0,0.0,0.0,0.0,0.0,0.0,0.0,0.0,0.0,0.0,0.0,0.0,0.0,0.0,0.0,0.0,0.0,0.0,3.3722,3.7923,4.099,4.1137,4.5202,4.7158,4.5049,4.6796,4.8353,4.9129,5.0563,5.1758,5.2502,5.3908,5.4701,5.4715,5.4715,5.4715,5.4715,5.3997,5.3655,5.3655,5.362,5.3203,5.2431,5.2418,5.234,5.2208,5.2172,5.2579,5.3251,5.3214,5.2747,5.1847,4.9781,4.8864,4.8764,4.9545,4.9747,4.9757,0.0,0.0,0.0,0.0,0.0,0.0,1.5082,1.5082,1.5489,1.6639,2.0613,2.4305,2.6813,3.0506,3.3355,3.4675,3.1234,2.8802,2.8382,2.4659,2.2805,2.3566,2.5927,2.8858,3.2273,3.4459,3.6589,3.8653,3.9055,3.9475,3.9795,3.9795,3.9795,3.9795,3.9795,3.966,3.9491,3.93,3.842,3.6874,3.3621,3.0921,2.8689,0.0,0.0,0.0,0.0,0.0,0.0,0.0,0.0,0.0,0.0,0.0,0.0,0.0,0.0,0.0,0.0,0.0,0.0,0.0,0.0,0.0,0.0,0.0,0.0,0.0,0.0,0.0,0.0,0.0,0.0,0.0,3.484,3.7621,3.7961,4.1519,4.474,4.6547,4.8871,5.0283,5.0263,5.0824,5.1681,5.2943,5.4007,5.4888,5.5616,5.6595,5.7116,5.7085,5.7061,5.7061,5.7061,5.6855,5.6758,5.6758,5.6163,5.5787,5.5533,5.495,5.4679,5.4619,5.4023,5.3891,5.4032,5.3434,5.3067,5.2753,5.1587,5.0763,5.0211,5.0441,5.0497,5.0508,0.0,0.0,0.0,0.0,0.0,0.0,1.5091,1.5089,1.5686,1.739,2.1748,2.5581,2.7882,3.1146,3.3379,3.3991,3.0505,2.8048,2.7527,2.5412,2.4978,2.6801,2.9697,3.2627,3.5444,3.7296,3.8786,3.9947,3.9947,4.0093,4.0441,4.0204,4.0331,4.0803,4.0528,4.0599,4.0825,4.0893,4.0681,4.0109,3.7962,3.5441,3.2774,3.162,3.0354,2.893,2.703,2.6524,2.6234,2.2304,0.0,0.0,0.0,0.0,0.0,0.0,0.0,0.0,0.0,0.0,0.0,0.0,0.0,0.0,0.0,0.0,0.0,0.0,0.0,0.0,0.0,0.0,0.0,0.0,3.8784,4.225,4.3813,4.5938,4.8069,5.0153,5.1707,5.2816,5.329,5.3907,5.4498,5.5016,5.6443,5.7142,5.6923,5.794,5.8385,5.8022,5.7997,5.7997,5.7997,5.7997,5.7997,5.7997,5.7519,5.7152,5.6774,5.6308,5.5915,5.5585,5.5108,5.4913,5.4876,5.4399,5.4216,5.4106,0.0,0.0,0.0,0.0,5.1536,5.182,0.0,0.0,0.0,0.0,0.0,0.0,1.5103,1.5092,1.5979,1.8431,2.2487,2.6198,2.8942,3.1209,3.2632,3.3003,2.932,2.6941,2.6752,2.6532,2.7596,3.0371,3.3618,3.6248,3.8086,3.9917,4.0688,4.0368,4.0368,4.0589,4.0978,4.0492,4.0838,4.1789,4.1344,4.1436,4.1955,4.2219,4.2332,4.2342,4.2578,4.0299,3.6713,3.6093,3.5086,3.3842,3.2945,3.1771,3.0256,2.7539,0.0,0.0,0.0,0.0,0.0,0.0,0.0,0.0,0.0,0.0,0.0,0.0,0.0,0.0,0.0,0.0,0.0,0.0,0.0,0.0,0.0,0.0,0.0,0.0,4.2465,4.6703,4.9884,5.0421,5.0947,5.2266,5.3724,5.4653,5.485,5.6177,5.6809,5.6261,5.8192,5.8802,5.7389,5.8519,0.0,0.0,0.0,5.7997,5.7997,5.7997,5.7997,5.7997,5.7997,5.7629,5.6921,5.6921,5.6565,5.5879,5.5768,5.5732,5.5732,5.5658,5.5585,5.5475,5.4032,5.3041,5.2391,5.2317,5.2711,5.3324,0.0,0.0,0.0,0.0,0.0,0.0,1.5101,1.5151,1.6139,1.8772,2.2017,2.4865,2.6943,2.9191,3.0566,3.0656,2.7755,2.6566,2.8074,2.8943,3.1301,3.5711,3.737,3.9224,4.1323,4.1981,4.2259,4.22,4.22,4.1989,4.1603,4.153,4.1595,4.18,4.2361,4.2676,4.281,4.3514,4.3787,4.3846,4.446,4.2905,4.0222,4.01,3.9497,3.8438,3.6098,3.6059,3.643,3.193,3.0987,3.107,2.7712,2.5348,0.0,0.0,0.0,0.0,0.0,0.0,0.0,0.0,0.0,0.0,0.0,0.0,0.0,0.0,0.0,0.0,0.0,0.0,0.0,4.2152,4.6297,4.9752,5.1607,5.2435,5.2942,5.3247,5.4068,5.5092,5.6326,5.733,5.83,5.943,5.9907,6.0054,5.9761,5.9382,5.9123,5.8976,5.8327,5.7997,5.7997,5.7997,5.7997,5.7997,5.7997,0.0,5.7776,5.7776,5.7666,5.7494,5.6859,5.6565,5.6528,5.5879,5.5585,5.5585,5.5254,5.5034,5.4814,5.4179,5.4032,5.4069,0.0,0.0,0.0,0.0,0.0,0.0,1.5095,1.5135,1.5847,1.7791,2.034,2.2705,2.4504,2.5996,2.7015,2.7284,2.6294,2.6661,2.904,3.1358,3.4451,3.8482,3.9929,4.124,4.2477,4.3044,4.3152,4.2854,4.2854,4.3079,4.3447,4.2313,4.2516,4.3822,4.3571,4.3817,4.4482,4.4996,4.519,4.524,4.5666,4.5034,4.3784,4.3477,4.2704,4.1523,3.9765,3.9309,3.9013,3.5777,3.4689,3.4258,3.1738,2.9673,2.7541,0.0,0.0,0.0,0.0,0.0,0.0,0.0,0.0,0.0,0.0,0.0,0.0,0.0,0.0,3.3968,3.6111,0.0,4.3489,4.5736,4.8956,5.1725,5.3247,5.3788,5.4194,5.4608,5.5317,5.6376,5.7944,5.9164,6.0003,6.0358,6.1141,6.1251,6.0444,6.0419,6.0224,5.982,5.9428,5.9208,5.9208,5.9208,5.9208,5.9208,5.8804,5.8609,5.8584,5.818,5.7997,5.796,5.7593,5.7409,5.7373,5.6969,5.6796,5.6796,5.6796,5.6319,5.5548,5.5144,5.4997,5.495,0.0,0.0,0.0,0.0,0.0,0.0,1.513,1.5115,1.5547,1.6836,1.8675,2.0458,2.1978,2.2799,2.3376,2.3849,2.5121,2.7173,3.0234,3.3653,3.7125,4.0679,4.2066,4.2948,4.3326,4.3942,4.4045,4.3543,4.3543,4.414,4.5204,4.3417,4.3766,4.5865,4.4933,4.52,4.6406,4.6713,4.6964,4.7104,4.7035,4.6941,4.6743,4.5933,4.4854,4.361,4.2618,4.1193,3.9593,3.8319,3.7071,3.5838,3.4741,3.3413,3.1578,2.8109,2.7176,0.0,0.0,0.0,0.0,0.0,0.0,0.0,0.0,2.9705,3.1558,3.4443,3.675,3.8834,4.0866,4.436,4.7407,4.8748,5.109,5.3179,5.4448,5.4873,5.5328,5.6147,5.6766,5.7783,5.9389,6.0794,6.141,6.0884,6.1912,6.2059,6.0921,6.119,6.1153,6.0639,6.0493,6.0419,6.0419,6.0419,6.0419,6.037,5.9747,5.9416,5.9416,5.8621,5.8217,5.8217,5.807,5.7997,5.7997,5.7997,5.7997,5.7997,5.7997,5.72,5.6062,5.5879,5.5842,5.5805,0.0,0.0,0.0,0.0,0.0,0.0,0.0,0.0,1.5624,1.716,1.8184,1.9064,1.978,2.0563,2.115,2.1396,2.4523,2.8254,3.2363,3.553,3.9328,4.3966,4.4333,4.4792,4.5517,4.5627,4.5636,4.558,4.558,4.5654,4.581,4.5571,4.5599,4.592,4.6479,4.7222,4.8076,4.8881,4.9621,5.0234,4.9525,4.8878,4.8188,4.6697,4.5646,4.4753,4.2901,4.0665,3.8528,3.8065,3.7261,3.6439,3.6473,3.5927,3.4603,3.0937,2.9097,2.7684,2.5163,2.5017,2.5791,2.655,2.7249,2.9016,0.0,3.5089,3.634,4.0437,4.2536,4.4115,4.574,4.8029,4.9936,5.0731,5.2841,5.4397,5.4583,5.577,5.6928,5.7731,5.791,5.8609,6.0219,6.1122,6.1851,6.2462,6.2034,6.1961,6.2499,6.1251,6.0823,6.1447,6.0786,6.0419,6.0419,6.0419,6.0419,6.0419,6.0297,6.026,6.0224,5.9416,5.9086,5.9049,5.8327,5.7997,5.7997,5.7997,5.7997,5.7997,5.7997,5.7886,5.7629,5.6932,5.6675,5.6565,0.0,0.0,0.0,0.0,0.0,0.0,0.0,0.0,1.5327,1.5911,1.6296,1.6777,1.7517,1.8315,1.9,1.958,2.3545,2.7779,3.1895,3.6387,4.0642,4.4516,4.514,4.5553,4.5883,4.6838,4.7315,4.7315,4.7755,4.8233,4.8746,4.7755,4.7829,4.8746,4.86,4.9003,4.9774,5.0141,5.0472,5.0729,4.9931,4.9142,4.83,4.716,4.4956,4.2328,4.1214,3.9376,0.0,3.6265,3.5678,3.5352,3.5438,3.4886,3.3736,3.1568,3.0137,2.8943,2.7412,2.7232,2.7811,2.9476,3.0991,3.3235,3.7504,3.9437,4.1211,4.4267,4.6099,4.7567,4.9092,5.0473,5.1792,5.2976,5.3957,5.489,5.5771,5.6442,5.7126,5.7931,5.8457,5.937,6.0983,6.1409,6.1924,6.2756,6.2499,6.2426,6.2793,6.2169,6.1949,6.2291,6.1949,6.1802,6.1802,6.1802,6.1802,6.1802,6.1337,6.108,6.108,6.026,5.9636,5.9159,5.8364,5.7997,5.7997,5.7997,5.7997,5.7997,5.7997,5.7997,5.796,5.7629,5.7483,5.7446,0.0,0.0,0.0,0.0,0.0,0.0,0.0,0.0,0.0,0.0,1.4971,1.5174,1.5721,1.629,1.7097,1.8108,2.1921,2.6153,3.0641,3.5747,4.0336,4.4195,4.5544,4.6434,4.6911,4.8269,4.8994,4.8994,4.9554,5.0178,5.0765,4.9554,4.9627,5.0765,5.0188,5.0508,5.1463,5.1242,5.1389,5.1683,5.0445,4.9417,4.8406,4.6158,4.3369,4.058,4.0243,3.8094,3.5344,3.4739,3.4235,3.39,3.4327,3.404,3.3317,3.2111,3.0866,2.965,2.8837,2.9089,3.0131,3.2319,3.4452,3.6958,4.0635,4.2818,4.4722,4.6937,4.8578,4.9984,5.1269,5.2131,5.3078,5.4414,5.4617,5.5128,5.6593,5.683,5.7043,5.759,5.8185,5.9074,6.0493,6.119,6.1851,6.2438,6.2683,6.2793,6.2793,6.3013,6.305,6.2793,6.3013,6.305,6.2793,6.2793,6.2793,6.2793,6.2218,6.1924,6.1887,6.1117,6.0309,5.949,5.8914,5.8547,5.8327,5.8327,5.8217,5.802,5.8153,5.8172,5.8194,5.8358,5.8315,5.8172,0.0,0.0,0.0,0.0,0.0,0.0,0.0,0.0,0.0,0.0,1.4859,1.4809,1.4765,1.4787,1.5436,1.7112,1.9443,2.3266,2.8899,3.308,3.7787,4.3286,4.5801,4.7819,4.9463,5.0288,5.0729,5.0729,5.0765,5.0765,5.0802,5.0765,5.0765,5.0802,5.0765,5.1636,5.3067,5.2307,5.2858,5.4069,5.172,5.0288,4.892,4.3032,4.088,4.0967,4.0962,3.7139,3.2309,3.4086,3.3548,3.2362,3.3893,3.4655,3.4624,3.3127,3.1264,2.9527,2.8807,3.0362,3.2736,3.5009,3.7187,3.9771,4.3502,4.496,4.6171,4.8474,5.0119,5.137,5.2131,5.2909,5.3721,5.4482,5.4617,5.5128,5.6593,5.6856,5.688,5.6839,5.6855,5.7203,5.8033,6.0248,6.1606,6.1643,6.2352,6.2793,6.2793,6.3613,6.3686,6.2829,6.3613,6.3649,6.2793,6.2793,6.2793,6.2793,6.2793,6.2756,6.2756,6.1924,6.1117,6.037,6.0346,5.9893,5.9159,5.9159,5.8682,5.8065,5.8513,5.8693,5.8716,5.9176,5.9047,5.8693,0.0,0.0,0.0,0.0,0.0,0.0,0.0,0.0,0.0,0.0,0.0,0.0,0.0,0.0,0.0,0.0,1.9282,2.2612,2.7195,3.2311,3.6727,4.0157,4.3636,4.6021,4.7141,4.8453,4.9407,5.0004,5.0545,5.0802,5.0802,5.1353,5.161,5.161,5.215,5.27,5.3141,5.2344,5.1987,5.1793,4.9324,4.7392,4.561,4.2404,3.9667,3.7613,0.0,3.6033,3.2339,3.2525,3.1749,3.0822,3.1254,3.125,3.0893,3.005,3.0099,3.0679,3.18,3.3702,3.6239,4.0033,4.2526,4.4801,4.7599,4.8776,4.9529,5.0308,4.9988,4.967,4.994,4.9209,4.9381,5.1797,5.2152,5.3008,5.5678,5.6535,5.6495,5.5402,5.6162,5.6712,5.6429,5.8118,5.9869,6.1484,6.1851,6.2254,6.2756,6.3613,6.3686,6.2829,6.3649,6.3686,6.2793,6.2793,6.2793,6.2793,6.2793,6.2793,6.2756,6.141,6.0933,6.1153,6.0077,5.9747,6.0003,6.0003,5.9526,5.8816,5.8986,5.89,5.8746,5.9221,5.9492,5.9568,0.0,0.0,0.0,0.0,0.0,0.0,0.0,0.0,0.0,0.0,0.0,0.0,0.0,0.0,0.0,0.0,0.0,2.1109,2.5085,2.9633,3.3354,3.5951,3.968,4.2057,4.2813,4.4462,4.5553,4.6021,4.7451,4.8148,4.8129,4.9571,5.0251,5.0288,5.1086,5.1599,5.183,5.0729,5.0085,4.9651,4.7053,4.5082,4.3391,4.056,3.8304,0.0,3.6192,3.4894,3.3301,3.2535,3.1448,3.0374,3.0135,2.9772,2.9413,2.9303,3.0576,3.2475,3.4509,3.681,3.9629,4.3692,4.6081,4.7883,4.9706,5.0473,5.0491,4.9396,4.8666,4.7988,4.7136,4.6619,4.7258,5.0004,5.0406,5.1539,5.4849,5.5498,5.5478,5.4995,5.6028,5.6712,5.6466,5.7384,5.8767,6.0603,6.1557,6.2254,6.2756,6.4163,6.442,6.3306,6.409,6.398,6.2793,6.2793,6.2793,6.2793,6.2793,6.2793,6.2756,6.1728,6.1545,6.1961,6.0921,6.0627,6.0823,6.0823,6.0476,5.991,5.9888,5.9971,6.0151,6.0433,6.0852,6.11,0.0,0.0,0.0,0.0,0.0,0.0,0.0,0.0,0.0,0.0,0.0,0.0,0.0,0.0,0.0,0.0,0.0,0.0,2.2702,2.53,2.7969,3.0888,3.4231,3.6369,3.7026,3.8758,3.9576,3.9422,4.1832,4.2992,4.3012,4.5498,4.6644,4.6754,4.7534,4.8387,4.9057,4.7461,4.7156,4.7546,4.4878,4.3364,4.221,3.7586,3.6872,3.7929,3.4277,3.3799,3.4744,3.3991,3.2622,3.1076,3.0501,3.0343,3.0481,3.111,3.2854,3.4947,3.6991,3.9751,4.2828,4.6126,4.7869,4.9061,4.9893,5.0033,4.9092,4.6136,4.6255,4.6178,4.3946,4.5136,4.7056,4.8992,4.9422,5.0696,5.4127,5.401,5.4105,5.5582,5.649,5.7288,5.8033,5.8143,5.851,5.9306,6.1471,6.2793,6.2903,6.5191,6.5778,6.4213,6.4934,6.4591,6.2939,6.2939,6.2903,6.2866,6.2866,6.2829,6.2793,6.2756,6.2756,6.2793,6.2756,6.2328,6.1667,6.1667,6.1495,6.1267,6.1188,6.1732,6.2597,6.2605,6.2891,6.3002,0.0,0.0,0.0,0.0,0.0,0.0,0.0,0.0,0.0,0.0,0.0,0.0,0.0,0.0,0.0,0.0,0.0,0.0,2.1046,2.3627,2.5595,2.6833,3.0644,3.3062,3.3796,3.5359,3.6449,3.7004,3.7502,3.8021,3.8642,3.9851,4.0714,4.1306,4.2123,4.2923,4.3558,4.255,4.2159,4.2066,4.0221,3.9157,3.8472,3.6586,3.6392,3.6991,3.5752,3.4274,3.3111,3.4261,3.4111,3.3146,3.1386,3.2114,3.3876,3.5344,3.652,3.8245,4.2387,4.4459,4.6176,4.9287,5.0303,5.047,5.0155,4.8987,4.7561,4.6225,4.4056,4.2204,4.1514,4.1552,4.2762,4.6128,4.7438,4.9575,5.3972,5.5397,5.6142,5.6531,5.8279,5.9563,5.9758,6.0309,6.1006,6.1838,6.1887,6.2695,6.4554,6.5815,6.6035,6.5044,6.5778,6.5705,6.4664,6.4664,6.4371,6.3759,6.3759,6.3429,6.2793,6.2181,6.2218,6.2756,6.2181,6.2144,6.2499,6.2499,6.2345,6.2087,6.2077,6.2278,6.2597,6.259,6.2905,6.3225,0.0,0.0,0.0,0.0,0.0,0.0,0.0,0.0,0.0,0.0,0.0,0.0,0.0,0.0,0.0,0.0,0.0,0.0,0.0,2.1651,2.2799,2.3161,2.6051,2.7836,2.8194,2.9727,3.0711,3.1109,3.2054,3.2733,3.3217,3.4782,3.5936,3.6753,3.7583,3.831,3.892,3.8117,3.7644,0.0,0.0,3.5918,3.563,3.5338,3.5496,3.5774,3.5454,3.4494,3.3444,3.3785,3.3373,3.2798,3.3583,3.48,3.6324,3.8444,4.0072,4.192,4.5228,4.7075,4.863,5.109,5.1201,5.0375,4.9072,4.7695,4.5945,4.3271,4.1591,4.0112,3.8553,3.9316,4.0983,4.3529,4.5903,4.8915,5.3042,5.5254,5.6794,5.7838,6.0015,6.1582,6.1998,6.2438,6.3172,6.4334,6.4016,6.42,6.5251,6.6719,6.7026,6.5852,6.6256,6.6109,6.5288,6.4971,6.4714,6.4604,6.387,6.3466,6.3356,6.2511,6.2365,6.2756,6.2328,6.2389,6.2818,6.3062,6.3178,6.3273,6.3273,6.3588,6.4022,6.3764,6.4022,6.4397,0.0,0.0,0.0,0.0,0.0,0.0,0.0,0.0,0.0,0.0,0.0,0.0,0.0,0.0,0.0,0.0,0.0,0.0,0.0,0.0,2.0252,2.0156,2.1648,2.2407,2.2271,2.3777,2.4494,2.4343,2.6445,2.7573,2.7803,2.9965,3.1462,3.2321,3.3096,3.3838,3.4463,3.3779,3.3458,3.3394,3.3236,3.3256,3.338,0.0,3.4282,3.4438,3.3921,3.3907,3.399,3.2984,3.2219,3.2411,3.6352,3.7838,3.8628,4.1288,4.3558,4.5537,4.7041,4.8763,5.0456,5.1814,5.1048,4.9349,4.7036,4.5945,4.4052,3.9204,3.9134,3.9029,3.6063,3.8227,4.0794,4.1773,4.5013,4.8634,5.2196,5.4597,5.687,5.9303,6.168,6.3466,6.4323,6.4506,6.5204,6.6696,6.6916,6.6586,6.5668,6.771,6.8201,6.6696,6.6659,6.6329,6.5618,6.4934,6.4861,6.5435,6.4004,6.3576,6.4066,6.3417,6.3013,6.2793,6.2903,6.2953,6.2929,6.3408,6.4012,6.467,6.467,6.531,6.6173,6.5587,6.5712,6.609,0.0,0.0,0.0,0.0,0.0,0.0,0.0,0.0,0.0,0.0,0.0,0.0,0.0,0.0,0.0,0.0,0.0,0.0,0.0,0.0,0.0,1.9486,2.0296,2.0658,2.0455,2.1964,2.2679,2.2557,2.2876,2.3666,2.4897,2.4622,2.5255,2.6641,2.6768,2.7625,2.8887,2.8774,2.937,3.0452,3.0485,3.0801,3.1385,3.2203,3.2927,0.0,3.1856,3.0878,3.0601,3.2684,3.5231,3.7619,3.7982,4.0047,4.292,4.586,4.7038,4.7934,5.0602,5.1595,5.178,5.1473,5.0288,4.8201,4.4344,4.2653,4.0994,3.7875,3.7636,3.7685,3.6734,3.8634,4.0989,4.2936,4.5481,4.8881,5.3568,5.5722,5.7896,6.0863,6.3381,6.5178,6.5999,6.6709,6.748,6.8421,6.9082,6.8825,6.737,6.8311,6.8458,6.7517,6.748,6.7407,6.7297,6.715,6.6819,6.6292,6.5999,6.5228,6.4139,6.464,6.4114,6.2829,6.3576,6.3738,6.3476,6.3576,6.4572,6.6061,6.6061,6.6858,6.7885,6.7063,6.7268,6.7853,0.0,0.0,0.0,0.0,0.0,0.0,0.0,0.0,0.0,0.0,1.5817,0.0,0.0,0.0,0.0,0.0,0.0,0.0,0.0,0.0,0.0,1.9149,1.9808,2.0105,2.0006,2.0971,2.1447,2.1358,0.0,2.1698,2.2848,2.2465,2.3072,2.4531,2.46,2.5107,2.5987,2.6576,2.711,2.7643,2.8667,2.9211,2.9489,3.0334,3.1048,0.0,3.0961,3.0703,3.0893,3.2836,3.5169,3.769,4.0152,4.2027,4.3733,4.5719,4.7607,4.9193,4.9934,5.1478,5.2739,5.1961,4.9796,4.6877,4.3083,4.0715,3.8628,3.6377,3.6466,3.6823,3.6418,3.8187,4.0183,4.1572,4.3215,4.6408,5.2355,5.4063,5.6595,6.163,6.403,6.5778,6.699,6.748,6.8017,6.8862,6.9633,6.9559,6.8385,6.8274,6.8091,6.77,6.77,6.77,6.77,6.7297,6.71,6.7113,6.6292,6.5705,6.5338,6.5301,6.5015,6.4557,6.4964,6.5213,6.5325,6.5595,6.6213,6.7038,6.7324,6.7819,6.8353,6.7936,6.8045,6.8353,0.0,0.0,0.0,0.0,0.0,0.0,0.0,1.5535,1.6035,1.6354,1.6654,1.6695,1.6336,1.6147,0.0,0.0,0.0,0.0,0.0,0.0,0.0,0.0,1.9447,1.966,1.9627,0.0,0.0,2.0339,2.0188,0.0,0.0,0.0,0.0,0.0,2.3597,2.3901,2.4313,2.5227,2.551,0.0,0.0,2.7587,2.7351,0.0,0.0,0.0,0.0,3.0685,3.116,3.2667,3.3919,3.5716,4.0368,4.2247,4.3059,4.4447,4.716,4.9526,4.8937,5.1093,5.3247,5.2097,4.9187,4.5591,4.1968,3.9238,3.6923,3.5085,3.5608,3.6334,3.6126,3.7826,3.9489,4.0231,4.1371,4.4406,5.0762,5.2449,5.5405,6.1788,6.415,6.5925,6.7554,6.77,6.8104,6.9082,6.9743,6.9816,6.9192,6.8251,6.77,6.77,6.77,6.77,6.77,6.7076,6.7076,6.7664,6.6402,6.6072,6.6476,6.6035,6.5903,6.6097,6.6273,6.6603,6.706,6.7461,6.7765,6.8105,6.8513,6.8776,6.8891,6.8737,6.8776,6.8891,0.0,0.0,0.0,0.0,0.0,0.0,0.0,1.5897,1.6388,1.7809,1.736,1.7148,1.7822,1.7228,0.0,0.0,0.0,0.0,0.0,0.0,0.0,0.0,0.0,0.0,0.0,0.0,0.0,1.9169,1.9131,0.0,0.0,0.0,0.0,0.0,0.0,2.2879,2.344,2.3648,0.0,0.0,0.0,0.0,0.0,0.0,0.0,0.0,0.0,2.8926,2.8598,3.1361,3.228,3.278,3.5831,3.8739,4.1566,4.4286,4.6606,4.869,5.0433,5.2183,5.2976,5.0861,4.8037,4.461,4.0089,3.7838,3.6182,3.4362,3.5277,3.6478,3.6667,3.8242,3.9824,4.0925,4.2601,4.5424,5.0163,5.2895,5.6228,6.1129,6.3833,6.5925,6.7554,6.77,6.8325,6.9853,7.0073,7.0073,7.0,6.8545,6.77,6.77,6.77,6.77,6.77,6.7627,6.7627,6.77,6.7554,6.715,6.6512,6.7187,6.6973,6.6123,6.6857,6.7327,6.7545,6.7578,6.835,6.9505,6.9577,7.0014,7.0591,6.986,7.0052,7.0552,0.0,0.0,0.0,0.0,0.0,0.0,0.0,1.6306,1.6975,1.806,1.8203,1.8165,1.8052,1.7709,0.0,0.0,0.0,0.0,0.0,0.0,0.0,0.0,0.0,0.0,0.0,0.0,1.8325,1.8163,1.8053,0.0,0.0,0.0,0.0,0.0,0.0,2.1525,2.2006,2.2769,0.0,0.0,0.0,0.0,0.0,0.0,0.0,0.0,0.0,0.0,2.8189,3.0293,3.072,3.0765,3.2751,3.4423,3.6161,3.8932,4.2792,4.63,4.6755,4.9453,5.1776,5.0455,4.7192,4.3424,4.0062,3.7542,3.5656,3.4613,3.5471,3.6518,3.6958,3.7716,3.8856,4.0609,4.0601,4.2108,4.7286,4.8705,5.1587,5.7954,6.086,6.3576,6.6659,6.7834,6.8898,7.0,7.011,6.9889,6.9412,6.8325,6.77,6.77,6.77,6.77,6.77,6.77,6.77,6.77,6.77,6.7517,6.7223,6.7554,6.7827,6.806,6.835,6.8925,6.961,6.961,6.9927,7.0437,7.0437,7.0629,7.086,7.0552,7.0629,7.086,0.0,0.0,0.0,0.0,0.0,0.0,1.5712,1.6266,1.6975,1.8044,1.8334,1.8277,1.7963,1.7686,1.7196,1.6349,0.0,0.0,0.0,0.0,0.0,0.0,0.0,0.0,0.0,0.0,1.7629,1.7433,1.7308,1.7505,0.0,0.0,1.8877,1.974,0.0,0.0,0.0,0.0,0.0,0.0,0.0,0.0,0.0,0.0,0.0,0.0,0.0,0.0,0.0,0.0,0.0,2.9166,3.0541,3.1365,3.2338,3.5098,3.9433,4.3368,4.3749,4.6834,4.976,4.8987,4.579,4.2222,3.9851,3.7178,3.5186,3.5091,3.5727,3.651,3.7083,3.7548,3.8444,4.0383,3.9799,4.0849,4.5841,4.6601,4.8993,5.5293,5.8154,6.1141,6.5011,6.7749,6.9302,6.9389,6.9816,6.9633,6.8605,6.8031,6.77,6.77,6.77,6.77,6.77,6.77,6.77,6.77,6.77,6.77,6.77,6.77,6.8296,6.9302,6.9302,6.993,7.0898,7.0898,7.0898,7.0898,7.0898,7.0898,7.0898,7.0898,7.0898,7.0898,0.0,0.0,0.0,0.0,0.0,0.0,0.0,1.5652,1.6199,1.7873,1.7366,1.7041,1.7639,1.7062,1.6166,1.5106,0.0,0.0,0.0,0.0,0.0,0.0,0.0,0.0,0.0,0.0,1.7374,1.712,1.7107,1.707,1.7022,1.7831,1.8116,1.7946,0.0,0.0,0.0,0.0,0.0,0.0,0.0,0.0,2.2704,0.0,0.0,0.0,0.0,0.0,0.0,0.0,0.0,0.0,0.0,3.0137,3.1387,3.4349,3.7259,4.0115,4.2805,4.5229,4.6842,4.5963,4.3613,4.1006,3.9056,3.6488,3.4754,3.57,3.6056,3.6393,3.7068,3.7912,3.8955,4.0448,4.1416,4.3219,4.6802,4.8207,5.0191,5.3802,5.6358,5.9139,6.2504,6.7216,6.9412,6.7847,6.9206,6.9376,6.7811,6.77,6.77,6.77,6.77,6.77,6.77,6.77,6.77,6.77,6.77,6.77,6.77,6.77,6.8296,6.9302,6.9302,6.993,7.0898,7.0898,7.0898,7.0898,7.0898,7.0898,7.0898,7.0898,7.0898,7.0898,0.0,0.0,0.0,0.0,0.0,0.0,0.0,1.6089,1.6581,1.7071,1.7308,1.7048,1.6027,1.5699,1.5168,1.4209,0.0,0.0,0.0,0.0,0.0,0.0,0.0,0.0,0.0,0.0,0.0,1.6831,1.6735,1.6676,1.665,1.6905,1.7266,1.7704,1.7926,1.8341,0.0,0.0,0.0,0.0,2.0297,2.1017,2.1713,0.0,0.0,0.0,0.0,0.0,0.0,0.0,0.0,0.0,0.0,0.0,0.0,3.1945,3.4744,3.7465,3.8848,4.0834,4.2505,4.2209,4.0409,3.8291,3.6833,3.5436,3.46,3.4891,3.5524,3.6277,3.695,3.7368,3.8264,4.0254,4.0998,4.219,4.4618,4.6733,4.9635,5.4076,6.0034,6.4584,6.6752,6.8358,6.9082,6.8568,6.9009,6.8825,6.7774,6.77,6.77,6.77,6.77,6.77,6.77,6.77,6.77,6.77,6.77,6.77,6.77,6.77,6.8085,6.8784,6.9137,6.9701,7.037,7.0755,7.0898,7.0898,7.0898,7.0898,7.0898,7.0898,7.0898,7.0898,0.0,0.0,0.0,0.0,0.0,0.0,0.0,1.5439,1.5853,1.6085,1.6215,1.5948,1.5078,1.4746,1.4275,1.3552,0.0,0.0,0.0,0.0,0.0,0.0,0.0,0.0,0.0,0.0,0.0,0.0,0.0,1.6063,1.6037,1.6285,1.6587,1.6987,1.688,1.7192,0.0,0.0,0.0,0.0,1.9239,1.9838,2.0119,0.0,0.0,0.0,0.0,0.0,0.0,0.0,0.0,0.0,0.0,0.0,0.0,0.0,3.222,3.4191,3.5839,3.7533,3.8865,3.9066,3.7846,3.6369,3.5534,3.468,3.4203,3.4624,3.5441,3.6257,3.6859,3.7685,3.878,4.0327,4.1245,4.246,4.437,4.5888,4.8837,5.4183,6.0895,6.5729,6.7299,6.8344,6.8788,6.8458,6.8752,6.8568,6.7737,6.77,6.77,6.77,6.77,6.77,6.77,6.77,6.77,6.77,6.77,6.77,6.77,6.77,6.811,6.8829,6.8935,6.954,0.0,7.0532,7.0734,7.0898,7.0898,7.0898,7.0898,7.0898,7.0898,7.0898,0.0,0.0,0.0,0.0,0.0,0.0,0.0,0.0,0.0,0.0,1.4437,1.4126,1.4665,1.4082,1.3548,0.0,0.0,0.0,0.0,0.0,0.0,0.0,0.0,0.0,0.0,0.0,0.0,1.4444,1.5118,1.5423,1.5358,0.0,1.6111,1.5975,1.5797,1.598,0.0,0.0,0.0,0.0,1.753,1.8065,0.0,0.0,0.0,0.0,0.0,0.0,0.0,0.0,0.0,0.0,0.0,0.0,0.0,0.0,0.0,0.0,0.0,3.5084,3.5831,3.638,3.5766,3.4942,3.4903,3.4082,0.0,3.4807,3.5611,3.6227,3.6784,3.8623,4.017,4.0554,4.2057,4.3795,4.5604,4.6287,4.868,5.4339,5.9825,6.3683,6.4992,6.7349,6.8495,6.77,6.8348,6.8458,6.7664,6.7627,6.7627,6.77,6.759,6.759,6.77,6.77,6.77,6.77,6.77,6.77,6.77,6.77,6.8247,6.9158,6.8705,6.9363,7.0719,7.0282,7.0378,7.0864,7.0885,7.0898,7.0898,7.0898,7.0898,7.0898,0.0,0.0,0.0,0.0,0.0,0.0,0.0,0.0,0.0,0.0,0.0,1.4266,1.3851,1.3477,0.0,0.0,0.0,0.0,0.0,0.0,0.0,0.0,0.0,0.0,0.0,0.0,0.0,1.4934,1.5604,1.588,1.5748,1.5785,0.0,0.0,1.5631,0.0,0.0,0.0,0.0,0.0,1.759,1.8134,0.0,0.0,0.0,0.0,2.1248,2.193,0.0,0.0,0.0,0.0,0.0,0.0,0.0,0.0,2.9518,3.016,3.1105,0.0,3.2634,3.2906,3.2871,3.2762,0.0,3.2668,3.2899,3.4329,3.4789,3.5265,3.6516,3.8284,3.9628,3.9825,4.2067,4.4423,4.6233,5.2067,5.6404,5.709,6.2715,6.6216,6.5346,6.6903,6.7664,6.6843,6.754,6.7627,6.6806,6.6769,6.7063,6.7664,6.6512,6.6476,6.77,6.77,6.77,6.77,6.77,6.77,6.77,6.77,6.785,6.8097,6.8368,6.8717,6.9127,6.9811,7.0162,7.033,7.0748,7.0898,7.0898,7.0898,7.0898,7.0898,0.0,0.0,0.0,0.0,0.0,0.0,0.0,0.0,0.0,0.0,0.0,0.0,0.0,0.0,0.0,0.0,0.0,0.0,0.0,0.0,0.0,0.0,0.0,0.0,0.0,0.0,0.0,0.0,0.0,1.559,0.0,0.0,0.0,0.0,0.0,0.0,0.0,0.0,1.5702,1.5658,1.6913,0.0,0.0,0.0,0.0,0.0,2.0957,2.1683,0.0,2.4014,2.4588,2.4916,0.0,0.0,0.0,0.0,2.8779,2.9476,3.0068,3.0801,3.1452,3.1626,3.1826,3.2025,3.2079,3.2435,3.3062,3.4101,3.4753,3.5465,3.6448,3.859,4.0286,4.0636,4.2874,4.5425,4.7851,5.3962,5.8445,5.9263,6.3656,6.6402,6.5888,6.6623,6.6806,6.5999,6.6366,6.6402,6.5962,6.5962,6.6145,6.6586,6.5742,6.6072,6.7664,6.7333,6.7333,6.77,6.77,6.77,6.77,6.77,6.7836,6.8072,6.8123,6.8532,6.9272,6.9607,7.0035,7.0494,7.0784,7.0898,7.0898,7.0898,7.0898,7.0898,0.0,0.0,0.0,0.0,0.0,0.0,0.0,0.0,0.0,0.0,0.0,0.0,0.0,0.0,0.0,0.0,0.0,0.0,0.0,0.0,0.0,0.0,0.0,0.0,0.0,0.0,0.0,0.0,0.0,0.0,0.0,0.0,1.6259,0.0,0.0,0.0,0.0,1.462,1.4861,1.5404,1.6179,0.0,0.0,0.0,0.0,0.0,0.0,0.0,0.0,2.3288,2.4069,2.4627,2.5197,0.0,0.0,0.0,0.0,0.0,2.969,3.0524,3.1231,3.1566,3.1881,3.2137,3.2257,3.2956,3.3715,3.4227,3.5262,3.6194,3.6649,3.9223,4.147,4.2019,4.449,4.7374,5.0256,5.4668,5.8391,6.0524,6.3589,6.5668,6.6072,6.6256,6.5999,6.5191,6.5215,6.5251,6.5105,6.5118,6.5178,6.5288,6.5031,6.5705,6.7333,6.6659,6.6733,6.7517,6.7517,6.759,6.77,6.77,6.7943,6.8332,6.7878,6.8509,6.9829,6.9462,6.9865,7.0784,7.0878,7.0898,7.0898,7.0898,7.0898,7.0898,0.0,0.0,0.0,0.0,0.0,0.0,0.0,0.0,0.0,0.0,0.0,0.0,0.0,0.0,0.0,0.0,0.0,0.0,0.0,0.0,0.0,0.0,0.0,0.0,0.0,0.0,0.0,0.0,0.0,0.0,1.583,1.6017,1.6039,1.5851,0.0,0.0,0.0,1.4816,1.4985,1.5086,1.6399,0.0,0.0,0.0,0.0,0.0,0.0,0.0,0.0,2.3132,2.3948,2.4377,2.503,0.0,0.0,0.0,0.0,0.0,2.8985,2.9859,3.0779,3.2091,3.2516,3.279,3.3519,3.3985,3.4477,3.5304,3.6191,3.689,3.7141,3.9944,4.2292,4.2544,4.7678,5.2074,5.3364,5.8303,6.1202,5.9591,6.3517,6.5815,6.458,6.5081,6.5154,6.4347,6.4934,6.4995,6.4323,6.4273,6.4604,6.5288,6.393,6.3967,6.5655,6.5545,6.5888,6.6659,6.6659,6.7026,6.77,6.77,6.7717,6.7823,6.7741,6.8097,6.8784,6.9148,6.9664,7.0282,7.0741,7.0898,7.0898,7.0898,7.0898,7.0898,0.0,0.0,0.0,0.0,0.0,0.0,0.0,0.0,0.0,0.0,0.0,0.0,0.0,0.0,0.0,0.0,0.0,0.0,0.0,0.0,0.0,0.0,0.0,0.0,0.0,0.0,0.0,0.0,0.0,1.6056,1.6422,1.6501,1.6471,1.6307,0.0,0.0,1.4376,1.4806,1.5193,1.5577,0.0,0.0,0.0,0.0,0.0,0.0,0.0,0.0,0.0,0.0,2.353,2.4258,2.4518,0.0,0.0,0.0,0.0,0.0,2.9465,3.027,3.1234,3.2855,3.3347,3.3653,3.4425,3.5599,3.6727,3.727,3.8362,3.9178,3.9041,4.1593,4.4578,4.7171,5.1633,5.5111,5.6118,5.887,6.0896,6.1056,6.3115,6.442,6.4139,6.442,6.431,6.3466,6.3747,6.3783,6.3429,6.3392,6.3576,6.393,6.3196,6.316,6.393,6.393,6.4591,6.5852,6.6292,6.6696,6.7076,6.7517,6.7863,6.8148,6.8148,6.859,6.9365,6.9636,7.0052,7.0578,7.0798,7.0898,7.0898,7.0898,7.0898,7.0898,0.0,0.0,0.0,0.0,0.0,0.0,0.0,0.0,0.0,0.0,0.0,0.0,0.0,0.0,0.0,0.0,0.0,0.0,0.0,0.0,0.0,0.0,0.0,0.0,0.0,0.0,1.4878,1.471,1.5638,1.6457,1.7089,1.6859,1.6833,0.0,0.0,1.4683,1.4826,1.5023,1.5497,1.6168,0.0,0.0,0.0,0.0,0.0,0.0,0.0,0.0,0.0,0.0,0.0,0.0,0.0,0.0,0.0,2.6952,2.7803,2.8748,2.9757,3.081,3.1994,3.3438,3.3818,3.4226,3.5708,3.7306,3.8668,3.9603,4.0743,4.1475,4.103,4.3546,4.7159,5.1656,5.5003,5.7457,5.8671,5.9722,6.1031,6.2866,6.3086,6.3356,6.4029,6.3735,6.3246,6.2572,6.2499,6.2426,6.2242,6.2609,6.2646,6.2242,6.2426,6.2426,6.2242,6.2242,6.316,6.5031,6.5632,6.6035,6.6256,6.7161,6.7827,6.8225,6.855,6.9203,7.0103,7.0103,7.0432,7.0898,7.0898,7.0898,7.0898,7.0898,7.0898,7.0898,0.0,0.0,0.0,0.0,0.0,0.0,0.0,0.0,0.0,0.0,0.0,0.0,0.0,0.0,0.0,0.0,0.0,0.0,0.0,0.0,0.0,0.0,0.0,0.0,0.0,1.5352,1.5509,1.562,1.5941,1.6624,1.7624,1.67,1.6719,1.7458,1.5754,1.5369,1.6045,1.5828,1.6064,1.6587,1.6865,0.0,0.0,0.0,0.0,0.0,0.0,0.0,0.0,0.0,0.0,0.0,0.0,0.0,2.6327,2.6516,2.7274,2.8228,2.8982,3.0866,3.2808,3.3595,3.3384,3.4021,3.7992,3.869,3.9289,4.2109,4.2866,4.2892,4.2339,4.5575,4.9608,5.349,5.6855,5.9539,6.1117,6.2744,6.3809,6.3992,6.4029,6.4029,6.4103,6.2707,6.1741,6.1704,6.1704,6.1374,6.0591,6.1985,6.2132,6.0639,6.13,6.1337,6.0591,6.0566,6.1777,6.4213,6.4249,6.464,6.5424,6.6727,6.7358,6.7465,6.8683,6.9579,7.0103,7.0103,7.0432,7.0898,7.0898,7.0898,7.0898,7.0898,7.0898,7.0898,0.0,0.0,0.0,0.0,0.0,0.0,0.0,0.0,0.0,0.0,0.0,0.0,0.0,0.0,0.0,0.0,0.0,0.0,0.0,0.0,0.0,0.0,0.0,1.5825,1.5994,1.6079,1.6081,1.6018,1.6829,1.7625,1.8351,1.7157,0.0,0.0,1.5993,1.5582,1.6027,1.6312,1.6581,1.69,1.7408,1.8129,0.0,0.0,0.0,0.0,0.0,0.0,0.0,0.0,2.3266,2.4242,2.4396,2.5337,2.6544,2.708,2.7862,2.8795,2.9873,3.1691,3.3529,3.4404,3.5059,3.6305,3.9335,4.1198,4.2772,4.4452,4.5707,4.6413,4.6161,4.822,5.0947,5.3989,5.7134,5.9747,6.1374,6.2585,6.3282,6.3282,6.3282,6.3099,6.2597,6.1973,6.1374,6.0896,6.086,6.0713,6.0407,6.0958,6.1031,6.0407,6.0713,6.0713,6.0419,6.0672,6.1296,6.2259,6.3271,6.4405,6.5533,6.6534,6.7163,6.7524,6.8554,6.9324,6.9879,7.0377,7.0734,7.0898,7.0898,7.0898,7.0898,7.0898,7.0898,7.0898,0.0,0.0,0.0,0.0,0.0,0.0,0.0,0.0,0.0,0.0,0.0,0.0,0.0,0.0,0.0,0.0,0.0,0.0,0.0,0.0,0.0,0.0,0.0,1.5847,1.6131,1.6598,1.6844,1.6865,1.7814,1.8357,1.8531,0.0,0.0,0.0,1.6558,1.6316,1.6679,1.7373,1.7568,1.7461,1.7972,1.8529,0.0,0.0,0.0,0.0,0.0,0.0,0.0,0.0,2.3278,2.4333,2.4471,2.5453,2.6704,2.7327,2.8537,2.985,3.0393,3.2581,3.4772,3.5179,3.6671,3.8733,4.1286,4.3127,4.487,4.6834,4.8006,4.8827,4.9395,5.0104,5.1592,5.4665,5.7243,5.942,6.1019,6.1924,6.2316,6.2059,6.2279,6.2108,6.13,6.1006,6.0603,6.004,6.0003,5.9893,5.9648,6.0126,6.0162,5.9648,5.9893,5.9905,5.9648,6.0118,6.0563,6.1008,6.23,6.3566,6.4841,6.6087,6.6873,6.7265,6.8241,6.9075,6.9744,7.0283,7.0667,7.086,7.0629,7.0667,7.0898,7.0898,7.0898,7.0898,0.0,0.0,0.0,0.0,0.0,0.0,0.0,0.0,0.0,0.0,0.0,0.0,0.0,0.0,0.0,0.0,0.0,0.0,0.0,0.0,0.0,0.0,0.0,1.5522,1.5617,1.6931,1.7815,1.83,1.8837,1.8697,1.7991,1.7093,0.0,0.0,1.7479,1.7748,1.825,1.9123,1.9021,1.8315,1.851,1.876,1.8998,0.0,0.0,0.0,0.0,0.0,0.0,0.0,2.3134,2.4333,2.4471,2.5558,2.6846,2.6964,2.9147,3.127,3.0273,3.3309,3.656,3.581,3.788,4.0946,4.4112,4.4245,4.4954,4.9229,4.9542,4.9611,5.1545,5.0911,5.1489,5.5692,5.7324,5.8616,6.0176,6.108,6.13,6.0493,6.108,6.1263,6.0456,5.9673,5.9196,5.9184,5.9184,5.8829,5.8033,5.9501,5.9648,5.8033,5.8756,5.8792,5.8008,5.8482,5.9383,6.0687,6.1164,6.1999,6.3172,6.5369,6.6404,6.6466,6.7819,6.8891,6.9667,6.9667,7.0167,7.0821,7.0014,7.0206,7.0898,7.0898,7.0898,7.0898,0.0,0.0,0.0,0.0,0.0,0.0,0.0,0.0,0.0,0.0,0.0,0.0,0.0,0.0,0.0,0.0,0.0,0.0,0.0,0.0,0.0,0.0,0.0,0.0,0.0,0.0,1.7815,1.83,1.822,1.8046,0.0,0.0,0.0,1.7947,0.0,0.0,1.804,1.8963,1.8943,1.8305,1.8461,1.876,1.9064,0.0,0.0,0.0,0.0,0.0,0.0,0.0,0.0,0.0,2.5284,2.6581,2.7741,2.748,2.9098,3.0796,3.0117,3.2155,3.4831,3.6284,3.9187,4.2314,4.4846,4.5937,4.7402,5.098,5.1058,5.0573,5.0902,5.1256,5.196,5.3358,5.5634,5.7603,5.8654,5.9919,6.0676,6.0419,6.0603,6.0456,5.9636,5.9343,5.8976,5.84,5.8364,5.8253,5.7997,5.8437,5.8474,5.8033,5.8217,5.8385,5.8503,5.8971,5.9575,6.0281,6.1367,6.27,6.4193,6.4841,6.5471,6.6092,6.7089,6.7628,6.7936,6.8552,6.9276,7.0014,6.9783,7.0206,7.0898,7.0898,7.0898,7.0898,0.0,0.0,0.0,0.0,0.0,0.0,0.0,0.0,0.0,0.0,1.5366,1.5366,0.0,0.0,0.0,0.0,0.0,0.0,0.0,0.0,0.0,0.0,0.0,0.0,0.0,1.6751,1.7007,0.0,0.0,0.0,0.0,0.0,1.6527,1.7892,0.0,1.8174,1.8098,1.9276,1.9427,1.8835,1.8925,1.9112,1.9354,0.0,0.0,0.0,0.0,0.0,0.0,0.0,0.0,0.0,2.5549,2.6733,2.7758,2.7595,2.9002,3.0613,3.0523,3.237,3.496,3.7503,4.0432,4.3627,4.6966,4.862,5.0117,5.2434,5.2231,5.1736,5.2072,5.1923,5.2175,5.3514,5.5248,5.6799,5.7907,5.9152,5.9783,5.9501,5.971,5.96,5.8792,5.8719,5.8499,5.8033,5.7997,5.7997,5.7997,5.7997,5.7997,5.7997,5.7997,5.8142,5.8418,5.9056,5.9534,5.9839,6.1025,6.2287,6.3628,6.4282,6.4897,6.5436,6.6596,6.7096,6.7135,6.7667,6.8398,6.9161,6.9161,6.9706,7.0475,7.0783,7.0898,7.0898,0.0,0.0,0.0,0.0,0.0,0.0,0.0,0.0,0.0,0.0,1.5155,1.5147,0.0,0.0,0.0,0.0,0.0,0.0,0.0,0.0,0.0,0.0,0.0,0.0,0.0,0.0,0.0,0.0,0.0,0.0,0.0,0.0,1.6902,1.7757,0.0,1.8979,1.8504,1.9823,2.0012,1.9492,1.9555,1.9595,1.9692,1.9804,0.0,0.0,0.0,0.0,0.0,0.0,0.0,0.0,2.5499,2.6464,2.7399,2.7514,2.8996,3.0721,3.1354,3.3545,3.6307,3.9143,4.193,4.5227,4.999,5.1793,5.2735,5.3525,5.3053,5.2899,5.4203,5.2846,5.2391,5.5146,5.574,5.6291,5.7714,5.8574,5.8829,5.8107,5.8646,5.8792,5.807,5.7997,5.7997,5.7997,5.7997,5.7997,5.7997,5.7997,5.7997,5.7997,5.7997,5.8031,5.8051,5.8961,5.9415,5.9467,6.0365,6.121,6.2056,6.3628,6.4474,6.4705,6.6288,6.6981,6.6981,6.6981,6.7513,6.8276,6.8276,6.8853,6.9783,7.0514,7.0821,7.0898,0.0,0.0,0.0,0.0,0.0,0.0,0.0,0.0,0.0,0.0,0.0,0.0,0.0,0.0,0.0,0.0,0.0,0.0,0.0,0.0,0.0,0.0,0.0,0.0,0.0,0.0,0.0,0.0,0.0,0.0,0.0,0.0,0.0,1.9942,0.0,1.9083,2.0139,1.9635,1.9054,1.8506,1.8526,1.8905,1.9411,1.8982,1.9518,0.0,0.0,0.0,0.0,0.0,0.0,0.0,2.6059,2.7405,2.8634,2.8761,2.9925,3.1358,3.2378,3.4262,3.6722,4.0057,4.4815,4.9421,5.2261,5.3106,5.3317,5.3499,5.3384,5.3439,5.3992,5.3964,5.4079,5.4735,5.5863,5.6747,5.7078,5.7789,5.818,5.8033,5.8143,5.818,5.8033,5.7997,5.7997,5.7997,5.7997,5.7997,5.7997,5.7997,5.7997,5.7997,5.7997,5.8198,5.8539,5.914,5.9576,5.9946,6.0521,6.0902,6.1133,6.2172,6.3364,6.4666,6.5705,6.6173,6.6173,6.6173,6.6635,6.7366,6.7366,6.8321,6.9706,6.9898,7.036,7.0898,0.0,0.0,0.0,0.0,0.0,0.0,0.0,0.0,0.0,0.0,0.0,0.0,0.0,0.0,0.0,0.0,0.0,0.0,0.0,0.0,0.0,0.0,0.0,0.0,0.0,0.0,0.0,0.0,0.0,0.0,0.0,0.0,0.0,2.0623,0.0,1.9562,1.9411,1.9397,1.9208,1.8992,1.9341,1.9731,2.0077,1.9845,2.0189,2.0865,2.1054,0.0,0.0,0.0,0.0,0.0,0.0,0.0,2.8409,2.8857,2.9528,3.0505,3.2398,3.4431,3.7257,4.2571,4.7022,5.059,5.2503,5.2942,5.3025,5.3432,5.3512,5.3534,5.3735,5.4235,5.4711,5.5054,5.6122,5.7015,5.7376,5.775,5.7997,5.7997,5.7997,5.7997,5.7997,5.7666,5.7446,5.7446,5.7446,5.7446,5.7446,5.7776,5.7997,5.7997,5.7997,5.8119,5.8354,5.8825,5.9293,5.9784,6.0224,6.0597,6.0825,6.171,6.3018,6.4628,6.5089,6.5513,6.5904,6.5904,6.6134,6.6558,6.6942,6.7673,6.8513,6.8936,6.9629,7.0321,0.0,0.0,0.0,0.0,0.0,0.0,0.0,0.0,0.0,0.0,0.0,0.0,0.0,0.0,0.0,0.0,0.0,0.0,0.0,0.0,0.0,0.0,0.0,0.0,0.0,0.0,0.0,0.0,0.0,1.6455,1.9253,1.9357,0.0,2.1255,0.0,2.0631,1.8858,1.98,2.0064,1.9899,2.0528,2.0833,2.0927,2.098,2.1187,2.1468,2.16,2.2227,2.3092,2.3777,0.0,0.0,0.0,0.0,2.7866,2.8802,2.9075,2.9657,3.2436,3.5079,3.8625,4.5163,4.8376,5.032,5.1758,5.2131,5.23,5.2976,5.3298,5.3518,5.3518,5.4219,5.4999,5.561,5.6366,5.7084,5.7707,5.7666,5.7604,5.7604,5.7604,5.7604,5.7604,5.6969,5.6602,5.6602,5.6602,5.6602,5.6602,5.7226,5.7629,5.7776,5.7776,5.785,5.7997,5.8539,5.9028,5.9398,5.9946,6.0405,6.0825,6.1556,6.271,6.4166,6.432,6.4859,6.5667,6.5667,6.5743,6.5981,6.6635,6.6981,6.7173,6.7898,6.8737,6.9513,0.0,0.0,0.0,0.0,0.0,0.0,0.0,0.0,0.0,0.0,1.4686,1.4465,0.0,0.0,0.0,0.0,0.0,0.0,1.4019,0.0,0.0,1.3715,1.3939,1.3988,0.0,0.0,0.0,0.0,1.5141,1.7734,2.1433,2.0116,2.0986,2.3725,2.3697,2.3113,2.2095,2.2164,2.1344,1.9987,2.0201,2.0617,2.1035,0.0,0.0,2.2036,2.1665,2.1942,2.2581,2.307,2.4187,0.0,0.0,0.0,2.825,2.9753,3.0094,3.0691,3.3854,3.7939,4.2186,4.5877,4.797,4.9526,5.0998,5.1336,5.137,5.1472,5.257,5.3518,5.3518,5.4622,5.5595,5.566,5.6337,5.6866,5.6957,5.6345,5.5915,5.5915,5.5915,5.5915,5.5915,5.5805,5.5768,5.5768,5.5768,5.5768,5.5768,5.5879,5.6246,5.6932,5.6957,5.7299,5.7997,5.8874,5.9328,5.9407,6.0297,6.0746,6.0787,6.0941,6.1518,6.248,6.3166,6.3968,6.4782,6.4782,6.5205,6.5904,6.6019,6.6481,6.7096,6.725,6.7821,6.866,0.0,0.0,0.0,0.0,0.0,0.0,0.0,0.0,0.0,0.0,0.0,1.4438,0.0,0.0,0.0,1.3899,1.3858,1.3908,1.3986,1.3964,1.3856,1.3725,1.3874,1.3908,1.3791,0.0,0.0,1.4391,1.5372,1.7684,2.1201,2.2211,2.3873,2.5994,2.6038,2.4787,0.0,2.4177,2.3224,2.0834,2.2227,2.2351,0.0,0.0,0.0,0.0,0.0,2.4411,2.4667,2.5503,2.6195,2.6625,2.6237,0.0,0.0,0.0,3.0243,3.1298,3.5275,3.8274,4.1135,4.4543,4.6287,4.7665,4.9544,5.0304,5.071,5.11,5.1742,5.2329,5.2761,5.3693,5.4538,5.495,5.5632,5.6124,5.6124,5.5805,5.5585,5.5585,5.5585,5.5585,5.5585,5.5181,5.4913,5.4913,5.4913,5.4913,5.4913,5.5365,5.5768,5.6124,5.6124,5.6528,5.7336,5.7508,5.8119,5.9078,6.0252,6.0787,6.0787,6.0787,6.1287,6.2139,6.248,6.3089,6.3891,6.4397,6.482,6.5205,6.5705,6.6134,6.6442,6.6442,6.7244,6.8468,0.0,0.0,0.0,0.0,0.0,0.0,0.0,0.0,0.0,0.0,0.0,0.0,0.0,0.0,0.0,0.0,1.3883,1.3916,1.3955,1.3883,1.38,1.375,1.3783,1.3887,1.4061,0.0,1.4443,1.5105,1.58,1.7738,2.087,2.3408,2.5624,2.7602,2.8518,2.6929,2.3716,2.6343,2.5431,2.2455,2.521,0.0,0.0,0.0,0.0,0.0,0.0,2.7634,2.7118,2.8045,2.8608,2.8618,2.6973,2.7427,0.0,0.0,0.0,3.2006,3.5594,3.753,3.9237,4.2253,4.3981,4.5472,4.7447,4.8594,4.9458,5.022,5.0525,5.0846,5.1588,5.2628,5.3598,5.4131,5.4806,5.5291,5.5291,5.5108,5.4987,5.4987,5.4987,5.4987,5.4987,5.4436,5.4106,5.4106,5.4106,5.4106,5.4106,5.4656,5.5071,5.5291,5.5291,5.5724,5.6654,5.6581,5.7272,5.8671,5.9899,6.0473,6.0473,6.071,6.1133,6.1787,6.1787,6.2249,6.3051,6.3705,6.4205,6.4666,6.532,6.5705,6.5904,6.5904,6.6705,6.7814,0.0,0.0,0.0,0.0,0.0,0.0,0.0,0.0,0.0,0.0,0.0,0.0,0.0,1.4235,1.4081,1.3816,1.385,1.3866,1.38,1.3699,1.3615,1.3615,1.3547,0.0,1.4734,1.4752,1.515,1.5928,1.6672,1.8561,2.1475,2.2403,2.4687,2.8111,3.1225,3.0203,2.6285,2.8969,2.8006,2.5053,2.8866,0.0,0.0,0.0,2.9501,2.566,3.0758,3.1088,2.9181,2.9496,3.0616,3.1313,2.8165,2.8492,3.009,0.0,0.0,0.0,3.4103,3.5842,3.7715,3.9128,4.1225,4.3265,4.455,4.5954,4.7192,4.7921,4.8631,4.9331,4.9999,5.1906,5.3401,5.3441,5.4014,5.4473,5.4473,5.3812,5.3324,5.3324,5.3324,5.3324,5.3324,5.3287,5.3251,5.3251,5.3251,5.3251,5.3251,5.3287,5.3654,5.4436,5.4473,5.5012,5.6231,5.7097,5.7817,5.8329,5.9154,5.9588,5.9588,6.0435,6.0825,6.0864,6.0864,6.1364,6.2172,6.221,6.3172,6.4589,6.4666,6.5166,6.5904,6.5904,6.5981,6.6244,0.0,0.0,0.0,0.0,0.0,0.0,0.0,0.0,0.0,0.0,0.0,0.0,0.0,1.4184,1.4013,1.3874,1.4191,1.4542,1.4855,1.4935,1.4862,1.4628,1.4728,1.5004,1.5424,1.5451,1.5891,1.6839,1.7277,1.8577,2.072,2.2907,2.4752,2.6438,3.0191,3.0601,2.8715,3.211,3.0865,2.6839,2.9772,2.961,2.77,2.8759,2.8897,2.8728,3.0942,3.1042,3.031,3.1456,3.2789,3.3457,3.0267,3.05,3.1845,3.1058,3.1876,3.3323,3.4841,3.5737,3.691,3.9541,4.1243,4.2624,4.4052,4.5187,4.6117,4.6859,4.6948,4.7359,4.9006,5.0727,5.2044,5.2514,5.316,5.3618,5.3618,5.3398,5.3214,5.3214,5.3214,5.3214,5.3214,5.3214,5.3214,5.3214,5.3214,5.3214,5.3214,5.3214,5.3324,5.3618,5.3887,5.4503,5.5495,5.6889,5.7825,5.8313,5.9127,5.9781,6.0319,6.0666,6.0787,6.0787,6.0787,6.0979,6.1325,6.1864,6.2743,6.3814,6.4397,6.5128,6.5904,6.5904,6.625,6.6827,0.0,0.0,0.0,0.0,0.0,0.0,0.0,0.0,0.0,0.0,0.0,0.0,0.0,0.0,1.4513,1.4471,1.4787,1.5118,1.5483,1.5547,1.5507,1.5273,1.5406,1.5682,1.613,1.6111,1.6595,1.7596,1.7695,1.8552,2.0102,2.2209,2.3812,2.5036,2.8488,2.9637,2.9181,3.2048,3.1041,2.7862,3.1663,3.1924,3.0283,3.2048,3.2394,3.2157,3.3764,3.3507,3.2517,3.3091,3.4652,3.5633,3.1634,3.1296,3.2293,3.177,3.2369,3.3597,3.5207,3.5837,3.6676,3.9358,4.0624,4.1633,4.3144,4.4116,4.487,4.5606,4.5722,4.6132,4.7545,4.9213,5.0725,5.1898,5.2725,5.3104,5.2847,5.2821,5.27,5.2443,5.2407,5.248,5.2784,5.2821,5.292,5.3177,5.3214,5.3214,5.3214,5.3214,5.3141,5.2974,5.3783,5.4351,5.4643,5.6205,5.7141,5.7434,5.828,5.9127,5.9973,6.0242,6.0512,6.0787,6.0787,6.0787,6.0825,6.1402,6.2172,6.2974,6.382,6.4705,6.5513,6.5788,6.625,6.6865,0.0,0.0,0.0,0.0,0.0,0.0,0.0,0.0,0.0,0.0,0.0,0.0,0.0,0.0,0.0,1.5612,1.5573,1.5545,1.5561,1.5495,1.5467,1.5458,1.5467,1.5899,1.6805,1.6765,1.7217,1.824,1.8047,1.8596,1.9839,2.026,2.1721,2.4135,2.6386,2.7432,2.7618,2.8718,2.8667,2.8354,3.467,3.5203,3.3072,4.1009,4.0358,3.5739,3.9276,3.862,3.5886,3.4345,3.6102,3.7944,3.2357,3.0885,3.142,3.217,3.3031,3.3951,0.0,0.0,0.0,3.8219,3.9233,4.025,4.1582,4.252,4.3356,4.4043,4.4946,4.5602,4.563,4.729,4.9409,5.161,5.2615,5.2847,5.204,5.194,5.1693,5.0875,5.0802,5.1096,5.1877,5.195,5.2307,5.3104,5.3177,5.3177,5.3177,5.3188,5.2984,5.254,5.4216,5.4694,5.3849,5.5098,5.5708,5.5747,5.6593,5.7478,5.8352,5.9127,5.9973,6.0787,6.0787,6.0787,6.0787,6.0787,6.1325,6.2172,6.2974,6.3814,6.4705,6.559,6.5904,6.6128,0.0,0.0,0.0,0.0,0.0,0.0,0.0,0.0,0.0,0.0,0.0,0.0,0.0,0.0,0.0,1.615,1.6215,1.6372,1.6712,1.6805,1.6805,1.6708,1.6795,1.705,1.7514,1.7451,1.7919,1.8912,1.9117,1.9675,2.0616,2.1263,2.2076,2.3065,2.4226,2.5119,2.5955,2.9692,3.1914,3.3066,3.4378,3.5786,3.7084,3.7398,3.7157,3.6642,3.6489,3.6306,3.5935,3.4723,3.7431,4.0826,3.7929,3.5318,0.0,3.2571,3.3153,3.423,3.5239,0.0,0.0,0.0,0.0,0.0,4.1104,4.1863,4.2294,4.1991,4.2618,4.3389,4.3933,4.5264,4.6812,4.8507,5.0289,5.1219,5.0508,5.0822,5.1059,5.0839,5.0802,5.0875,5.1096,5.1132,5.1463,5.227,5.2344,5.2344,5.2344,5.2616,5.2854,5.3002,5.437,5.5116,5.5159,5.5511,5.6016,5.6632,5.6863,5.7747,5.9165,5.9396,5.9973,6.0787,6.0787,6.0787,6.0787,6.0787,6.1325,6.2172,6.2974,6.3814,6.4705,6.559,6.5904,6.6051,0.0,0.0,0.0,0.0,0.0,0.0,0.0,0.0,0.0,0.0,0.0,0.0,0.0,0.0,0.0,0.0,1.7487,1.7607,1.7802,1.7952,1.7996,1.7904,1.8093,1.8286,1.8493,1.8615,1.8816,1.9059,1.9581,2.0059,2.055,2.1616,2.2586,2.3433,2.4216,2.4998,2.5933,2.8704,3.1148,3.3244,3.4626,3.6433,3.8365,3.879,3.8752,3.8312,3.701,3.6874,3.7014,3.5138,3.6645,3.9407,4.0117,3.8103,3.5249,3.3742,3.4532,0.0,0.0,0.0,3.8075,3.9331,0.0,0.0,4.1545,4.1943,4.1937,4.1383,4.2082,4.2796,4.2883,4.4293,4.5646,4.6161,4.7774,4.9023,4.9143,4.9501,4.9774,4.9774,4.9774,4.9884,5.0251,5.0298,5.0629,5.1426,5.1499,5.1657,5.1987,5.2205,5.2456,5.2658,5.4076,5.4795,5.4664,5.5362,5.5939,5.6478,5.6824,5.7709,5.9011,5.9358,5.9973,6.0787,6.0787,6.0787,6.0787,6.0787,6.1095,6.1672,6.2852,6.3622,6.4205,6.5436,6.5904,6.6019,0.0,0.0,0.0,0.0,0.0,0.0,0.0,0.0,0.0,0.0,0.0,0.0,0.0,0.0,0.0,0.0,1.8932,1.8875,1.8774,1.8852,0.0,0.0,0.0,1.9333,1.9456,1.9778,1.9658,1.9074,1.9756,2.0136,2.0241,2.1754,2.3141,2.4472,2.54,2.6206,2.6886,2.6878,2.8405,3.1107,3.4886,3.6984,3.8278,4.2413,4.2374,4.0041,3.9282,3.9051,3.878,3.6411,3.5384,3.5847,4.0118,3.9721,3.7247,3.5265,3.6488,0.0,0.0,0.0,0.0,3.9565,3.9925,0.0,4.2085,4.2283,4.1983,4.1492,4.2414,4.3008,4.2023,4.3699,4.4968,4.427,4.5196,4.6444,4.7758,4.7974,4.8086,4.815,4.8076,4.8379,4.9233,4.9307,4.9674,5.0472,5.0618,5.0986,5.1693,5.1826,5.1873,5.1918,5.358,5.4164,5.3472,5.4972,5.5708,5.5708,5.6593,5.7478,5.8319,5.9127,5.9973,6.0787,6.0787,6.0787,6.0787,6.0787,6.0787,6.0979,6.266,6.3314,6.3506,6.5243,6.5904,6.6013,0.0,0.0,0.0,0.0,0.0,0.0,0.0,0.0,0.0,0.0,0.0,0.0,0.0,0.0,0.0,0.0,0.0,1.9197,0.0,0.0,0.0,0.0,0.0,1.9212,1.9333,1.9501,1.9757,2.0117,2.053,2.1022,2.1625,2.2758,2.3538,2.4064,2.5272,2.633,2.7284,2.7463,2.9412,3.2533,3.3638,3.6633,4.0425,4.0193,3.972,3.924,3.9082,3.9389,4.0168,4.1995,3.9261,3.5901,4.1008,4.039,3.7603,3.6324,3.7308,3.8542,3.727,3.7746,3.8679,3.9068,3.9305,0.0,4.032,4.1325,4.16,3.987,4.121,4.2077,4.0151,4.1081,4.2137,4.2077,4.2935,4.4077,4.5444,4.6061,4.6608,4.7259,4.6755,4.6691,4.7526,4.7599,4.7929,4.8746,4.9444,4.9894,5.0051,5.0684,5.1307,5.1956,5.3636,5.4741,5.5203,5.5555,5.5708,5.5708,5.6593,5.7478,5.8319,5.9127,5.9973,6.0787,6.0787,6.0787,6.0787,6.0787,6.0787,6.0979,6.266,6.3314,6.3506,6.5243,6.5904,6.5904,0.0,0.0,0.0,0.0,0.0,0.0,0.0,0.0,0.0,0.0,0.0,0.0,0.0,0.0,0.0,0.0,0.0,0.0,0.0,0.0,2.1944,2.0896,2.0339,2.0108,2.0249,2.0518,2.068,2.0765,2.1294,2.1675,2.1914,2.3321,2.4115,2.4442,2.6205,2.8017,2.9746,2.9623,3.1977,3.5754,3.5203,3.6707,3.9375,4.0301,3.999,3.9147,3.9425,3.9322,3.9469,4.2562,4.0267,3.6791,4.0695,4.0641,3.8797,3.7318,3.8117,3.9158,3.7529,3.7801,3.8562,3.8752,3.8931,0.0,0.0,4.0722,4.101,4.0092,4.1121,4.1803,4.057,4.1253,4.2018,4.2111,4.2161,4.2537,4.355,4.4625,4.559,4.6425,4.614,4.6067,4.6461,4.6498,4.6682,4.7058,4.7865,4.8526,4.894,4.9703,5.0726,5.1949,5.3209,5.4241,5.5088,5.5516,5.5939,5.6362,5.7247,5.8088,5.8934,5.9781,6.0396,6.0787,6.0787,6.0787,6.0787,6.0787,6.0787,6.0979,6.266,6.3314,6.3506,6.5243,6.5904,6.5981,1.8147,0.0,0.0,0.0,0.0,0.0,0.0,0.0,0.0,0.0,0.0,0.0,0.0,0.0,0.0,0.0,0.0,0.0,0.0,2.4924,2.5015,2.3236,2.1831,2.1157,2.1252,2.1614,2.1643,2.127,2.1957,2.2249,2.2242,2.3827,2.4735,2.5172,2.7264,2.9605,3.1985,3.1769,3.4233,3.815,3.7196,3.751,3.8815,4.1029,4.115,4.0087,4.0108,3.9254,3.8577,4.1528,4.0222,3.7795,4.037,4.0749,3.9906,3.8251,3.8909,3.9742,3.7857,3.7926,3.8637,3.9149,3.9087,3.9257,0.0,0.0,0.0,4.0568,4.1223,4.1683,4.1302,4.1697,4.2065,4.2091,4.1493,4.1219,4.1721,4.2955,4.4254,4.5398,4.5398,4.5379,4.5627,4.5654,4.5736,4.5883,4.6498,4.7233,4.8144,4.8875,5.0068,5.1811,5.2583,5.3433,5.4472,5.5131,5.5901,5.6747,5.778,5.8621,5.9319,6.0319,6.0787,6.0787,6.0787,6.0787,6.0787,6.0787,6.0787,6.0979,6.266,6.3314,6.3506,6.5243,6.5904,6.6019,1.8665,1.8655,0.0,0.0,0.0,0.0,0.0,0.0,0.0,0.0,0.0,0.0,2.2791,2.5842,2.687,2.4353,2.8787,3.0422,2.7364,2.6579,0.0,2.5883,2.2961,2.141,2.1542,2.171,2.1825,2.1911,2.2328,2.2913,2.3688,2.4423,2.5213,2.61,2.7548,2.9455,3.1606,3.2158,3.4017,3.6619,3.7281,3.9807,4.2951,4.1057,4.1609,4.3072,4.0879,3.9559,3.922,4.1534,4.0312,3.8287,4.0969,4.0943,3.9791,3.8914,3.9487,4.0059,3.866,3.8576,3.9371,4.1251,4.0475,3.9834,4.2035,0.0,4.0581,3.9954,0.0,4.1223,4.0411,0.0,0.0,3.9927,3.9633,3.9445,3.9633,4.0208,4.1537,4.4017,4.3561,4.3502,4.4647,4.4802,4.514,4.5847,4.5993,4.6551,4.7706,4.8191,4.9346,5.132,5.1809,5.2851,5.4472,5.4587,5.5049,5.5862,5.7511,5.8352,5.8506,6.0089,6.0787,6.0787,6.0787,6.0787,6.0787,6.0787,6.0787,6.0979,6.266,6.3314,6.3506,6.5243,6.5904,6.6019,1.9397,1.932,1.9308,0.0,0.0,0.0,0.0,0.0,0.0,2.275,0.0,2.4078,2.5719,2.7981,2.8878,2.7674,3.206,3.3219,2.9388,2.9212,0.0,2.9639,2.5597,2.3839,2.4928,2.3549,2.3041,2.3587,2.326,2.3651,2.4669,2.5143,2.585,2.6755,2.863,3.1045,3.3706,3.4739,3.7531,4.1231,4.1264,4.3265,4.5731,4.1639,4.0777,4.1559,4.0468,3.9626,3.9153,4.0054,3.9396,3.8367,3.9783,4.0604,4.1056,4.0983,4.2017,4.2873,4.1469,4.1248,4.1355,4.0938,4.0226,3.9822,4.0433,4.0141,3.9741,3.9718,0.0,0.0,0.0,0.0,0.0,0.0,3.8287,3.8141,3.8788,3.872,3.9388,4.154,4.1952,4.2529,4.3679,4.3923,4.4139,4.4559,4.5125,4.5758,4.6325,4.7298,4.8707,5.0537,5.0987,5.2241,5.4472,5.4511,5.517,5.6478,5.7703,5.8544,5.905,6.0242,6.0787,6.0787,6.0787,6.0787,6.0787,6.0787,6.0787,6.0979,6.266,6.3314,6.3506,6.5243,6.5904,6.6019,2.0392,2.0112,1.9922,1.9873,2.0648,0.0,0.0,2.2488,2.3628,2.4844,2.535,2.6649,2.9434,3.1485,3.2205,3.1176,3.5504,3.6372,3.1985,3.1955,3.2204,3.252,2.8284,2.6769,2.8554,2.6229,2.5511,2.6546,2.4975,2.4852,2.6198,2.6172,2.6711,2.7761,2.9898,3.2404,3.514,3.6587,3.9646,4.345,4.3037,4.4021,4.5346,4.2308,4.0697,4.0113,4.0113,3.9774,3.9288,3.9288,3.9089,3.884,3.9101,4.0192,4.1405,4.175,4.2834,4.3686,4.2686,4.2925,4.3055,4.155,4.0994,4.073,4.0381,3.9807,3.9368,3.9651,3.9794,0.0,0.0,0.0,3.8608,3.7839,0.0,3.6943,3.7519,3.7159,3.761,3.9686,4.0739,4.1605,4.2423,4.2882,4.3184,4.3249,4.4214,4.5048,4.5536,4.6543,4.7952,4.9853,5.0179,5.1553,5.4126,5.4126,5.4977,5.667,5.778,5.8627,5.9204,6.0281,6.0787,6.0787,6.0787,6.0787,6.0787,6.0787,6.0787,6.0979,6.266,6.3314,6.3506,6.5243,6.5904,6.6051,2.1639,2.1051,2.0663,2.1224,2.1209,2.1458,2.2481,2.3341,2.4946,2.7944,2.8905,3.0582,3.3841,3.7356,3.8087,3.4659,3.9176,4.0381,3.5999,3.4516,3.3734,3.3542,3.0659,2.9878,3.1616,2.9818,2.9589,3.1178,2.7654,2.687,2.8673,2.7637,2.7922,2.9401,3.1173,3.2936,3.4758,3.6656,3.8573,4.0248,4.0227,4.0273,4.0582,4.2885,4.2261,4.0113,4.0113,4.0079,4.0079,4.0079,4.0066,4.0016,3.976,3.9828,4.0002,4.0145,4.0405,4.0695,4.0909,4.2425,4.4054,4.4306,4.3734,4.3176,4.3571,4.1778,4.0011,3.9755,4.0011,3.9985,3.8979,3.8333,3.7686,0.0,3.6265,0.0,0.0,3.516,3.6314,3.9186,4.0074,4.0547,4.0778,4.1662,4.2289,4.2447,4.332,4.4488,4.5885,4.607,4.7146,4.9332,4.9428,5.0664,5.3236,5.3236,5.4087,5.5747,5.7473,5.8313,5.839,6.005,6.0787,6.0787,6.0787,6.0787,6.0787,6.0787,6.0787,6.0979,6.266,6.3314,6.3506,6.5243,6.5904,6.6128,2.4358,2.2888,2.1552,2.1366,2.1945,2.2889,2.4292,2.674,2.8996,3.0423,3.1161,3.3647,3.9171,4.1131,4.1741,4.105,4.3202,4.3127,3.97,3.8269,3.7875,3.8597,3.5208,3.4183,3.6063,3.2761,3.2235,3.4766,3.0611,2.969,3.1711,2.9724,2.9342,3.0404,3.2023,3.3459,3.481,3.7196,3.9647,4.1925,4.2415,4.356,4.4741,4.2304,4.0858,4.0113,4.0113,4.0113,4.0113,4.0113,4.0113,4.0087,3.9999,4.1125,4.2517,4.2637,4.3939,4.5154,4.432,4.459,4.4801,4.3442,4.3721,4.4234,4.3872,4.4038,4.3844,4.2274,4.3293,4.3147,3.8872,3.9151,3.9124,0.0,0.0,3.5677,0.0,3.5531,3.5747,3.6574,3.8394,3.9435,3.9013,4.0957,4.2099,4.1654,4.3183,4.4442,4.5161,4.5411,4.6456,4.8462,4.8548,5.0048,5.3159,5.3197,5.4049,5.5708,5.6863,5.7742,5.8352,5.9435,6.0242,6.0787,6.0787,6.0787,6.0787,6.0787,6.0787,6.0979,6.266,6.3314,6.3506,6.5243,6.5904,6.6051,2.6061,2.4201,2.2437,2.2036,2.3923,2.5837,2.6773,3.0199,3.3288,3.4978,3.5798,3.8333,4.3858,4.4859,4.511,4.5019,4.561,4.472,4.1819,4.0948,4.0628,4.0785,3.8478,3.791,3.9451,3.6541,3.6228,3.8753,3.4354,3.3204,3.5094,3.23,3.1431,3.2254,3.3654,3.4909,3.6074,3.7946,4.0037,4.2179,4.3776,4.5466,4.6707,4.3489,4.2028,4.1557,4.0485,4.0377,4.0625,4.0241,4.0229,4.038,4.038,4.1471,4.287,4.3385,4.4704,4.5824,4.5095,4.5324,4.5296,4.3276,4.3881,4.4695,4.3643,4.4141,4.4409,4.2929,4.433,4.4468,3.9997,4.0262,4.0099,0.0,0.0,0.0,0.0,3.4793,3.4473,3.4021,3.6276,3.7821,3.7769,3.9698,4.0863,4.0809,4.2687,4.397,4.4365,4.4908,4.6092,4.8038,4.8082,4.9736,5.3159,5.3197,5.4049,5.5708,5.6901,5.7742,5.8352,5.9435,6.0281,6.0787,6.0787,6.0787,6.0787,6.0787,6.0787,6.0979,6.266,6.3314,6.3506,6.5243,6.6282,6.6859,2.6708,2.4916,2.3312,2.3218,2.6959,2.9925,2.9807,3.3383,3.7445,4.1138,4.2273,4.4154,4.7817,4.8597,4.8239,4.6714,4.6714,4.5577,4.2723,4.2792,4.2167,4.046,4.0521,4.0963,4.1694,4.0888,4.127,4.2974,3.8625,3.7223,3.8616,3.5198,3.4013,3.4794,3.59,3.7057,3.8197,3.8799,3.9725,4.0983,4.392,4.5483,4.6101,4.602,4.5428,4.4282,4.1283,4.0885,4.1639,4.0551,4.0504,4.0932,4.0932,4.099,4.1206,4.2362,4.2703,4.2836,4.3347,4.4607,4.5406,4.3873,4.4344,4.4732,4.3211,4.2572,4.2255,4.2037,4.3362,4.4053,4.2303,4.1734,4.0701,0.0,0.0,0.0,3.3392,3.3061,3.2652,3.1816,3.3796,3.5683,3.6851,3.7789,3.8787,3.983,4.1676,4.3004,4.35,4.4564,4.6046,4.8029,4.812,4.9736,5.3159,5.3197,5.4049,5.5708,5.7396,5.8204,5.8352,5.9935,6.0704,6.0787,6.0787,6.0787,6.0787,6.0787,6.0825,6.1018,6.266,6.3391,6.3698,6.5359,6.6974,6.8391,2.6734,2.5216,2.4069,2.4572,2.8239,3.1028,3.0839,3.3878,3.785,4.2502,4.2573,4.4486,5.0481,5.1107,5.0994,5.0794,5.0776,4.9782,4.7411,4.7304,4.645,4.435,4.3799,4.3464,4.33,4.1902,4.2503,4.5239,4.0224,3.8939,4.1171,3.6888,3.5089,3.5405,3.6087,3.6813,3.7649,3.9322,4.0535,4.1355,4.1816,4.3223,4.4872,4.3462,4.4136,4.5458,4.2452,4.1552,4.1768,4.1464,4.1464,4.1584,4.1584,4.1874,4.2302,4.2616,4.2995,4.3312,4.3471,4.38,4.402,4.3616,4.4628,4.5598,4.515,4.5924,4.6233,4.4734,4.5959,4.6454,4.3617,4.375,4.3335,4.0384,3.7406,3.4993,3.3678,3.3571,3.3218,3.2048,3.2541,3.3094,3.3444,3.6054,3.7625,3.737,3.962,4.1506,4.2577,4.3549,4.5273,4.7872,4.8063,4.9736,5.3159,5.3197,5.4049,5.5708,5.6165,5.7049,5.8313,5.8742,5.9627,6.0787,6.0787,6.0787,6.0787,6.0787,6.1172,6.1864,6.2891,6.4474,6.6173,6.6635,6.7475,6.8507,2.7868,2.6528,2.5605,2.5743,2.9826,3.3487,3.4545,3.8237,4.2204,4.577,4.5717,4.6914,5.0961,5.2113,5.25,5.2318,5.23,5.1488,4.9593,4.9492,4.8646,4.6737,4.5635,4.4637,4.3715,4.2881,4.3585,4.5851,4.1686,4.0873,4.3159,3.8618,3.6646,3.6911,3.716,3.7848,3.8878,4.0239,4.2342,4.4612,4.3598,4.4566,0.0,4.5401,4.523,4.5421,4.4094,4.3146,4.2456,4.1979,4.1969,4.2246,4.2614,4.2709,4.2804,4.3394,4.3551,4.3506,4.3506,4.3506,4.3506,4.3506,4.4167,4.4864,4.4864,4.5553,4.5865,4.4738,4.5955,4.6569,4.4418,4.5064,4.4587,4.0601,3.6993,3.4391,3.3454,3.3186,3.281,3.2139,3.2473,3.2667,3.2303,3.4424,3.6036,3.6492,3.8664,4.0501,4.1745,4.3056,4.5006,4.7798,4.8705,5.0909,5.4603,5.4413,5.5286,5.7267,5.6983,5.7357,5.8313,5.905,5.9896,6.0787,6.0787,6.0787,6.0787,6.0787,6.1325,6.2249,6.382,6.5513,6.7173,6.7981,6.8571,6.9117,2.9525,2.8618,2.7984,2.7264,3.2402,3.7436,3.982,4.386,4.7456,4.9642,4.9841,5.0041,5.0751,5.2432,5.3213,5.2536,5.2469,5.186,5.0489,5.0387,4.9729,4.8259,4.6872,4.5317,4.3592,4.3857,4.4567,4.5706,4.2847,4.2666,4.4844,4.0375,3.8506,3.8874,3.8835,3.9657,4.1081,4.146,4.4181,4.8111,4.6627,4.7064,4.8561,4.866,4.7068,4.4957,4.5663,4.5011,4.3677,4.2679,4.2669,4.3233,4.394,4.3677,4.3355,4.451,4.4378,4.38,4.38,4.3726,4.3653,4.3653,4.3579,4.3506,4.3506,4.3506,4.3506,4.3506,4.4607,4.5452,4.4983,4.5818,4.4998,4.0032,3.639,3.393,3.3243,3.2768,3.2399,3.2133,3.3515,0.0,3.2743,3.3412,3.4586,3.627,3.8039,3.9564,4.0767,4.2585,4.499,4.7924,4.9526,5.2367,5.6657,5.5927,5.6834,5.9319,5.8525,5.8242,5.8511,5.9973,6.071,6.0787,6.0787,6.0787,6.0825,6.0941,6.1556,6.2672,6.498,6.6481,6.7443,6.8975,6.9767,7.0054,3.0454,3.1323,3.1794,3.0725,3.8068,4.4406,4.5351,4.5108,4.6637,5.1587,5.106,5.0944,5.2921,5.3347,5.345,5.3315,5.3281,5.2909,5.1961,5.1894,5.1251,4.9763,4.8883,4.7158,4.4465,4.4453,4.5261,4.6821,4.3185,4.3258,4.6747,4.234,4.0318,4.033,4.0829,4.1734,4.2921,4.2881,4.3752,4.5172,4.5263,4.5513,4.5862,4.6291,4.614,4.57,4.5847,4.57,4.5461,4.526,4.525,4.5361,4.5507,4.5434,4.5379,4.5599,4.559,4.548,4.548,4.5002,4.448,4.448,4.3975,4.3506,4.3506,4.3506,4.3506,4.3506,4.3726,4.4303,4.5613,4.5993,4.4885,4.1013,3.8647,3.6513,3.4236,3.4567,3.4297,3.2247,3.6075,3.7544,3.4047,3.4498,3.4955,3.4722,3.6273,3.7729,3.8823,4.1262,4.4449,4.8416,4.9138,5.2105,5.7666,5.5703,5.6308,5.9438,5.7929,5.794,5.9319,5.9588,6.0127,6.0787,6.0787,6.0787,6.0864,6.1595,6.2787,6.4282,6.5442,6.6821,6.8199,6.8507,6.9613,7.0953,3.2895,3.3158,3.3522,3.3643,4.0155,4.5986,4.8001,4.9568,5.1155,5.2921,5.1746,5.1193,5.228,5.306,5.3518,5.3518,5.3518,5.3348,5.2942,5.2536,5.1826,5.071,4.9593,4.78,4.5229,4.4384,4.5104,4.7464,4.4292,4.4413,4.7525,4.4145,4.2224,4.1642,4.2055,4.3379,4.5292,4.3983,4.4458,4.6047,4.5386,4.5513,4.6159,4.6414,4.6535,4.6571,4.7021,4.7131,4.7021,4.6177,4.5883,4.5957,4.6388,4.625,4.5993,4.6388,4.625,4.5883,4.5883,4.5626,4.5324,4.5324,4.5039,4.4754,4.4754,4.4415,4.4232,4.4681,4.4093,4.4018,4.5787,4.4919,4.3539,4.2378,3.9489,3.683,3.5255,3.5403,3.5262,3.4144,3.7227,3.8493,3.6145,3.6033,3.6,3.5718,3.6066,3.7115,3.9014,4.0716,4.3444,4.74,4.9387,5.2603,5.7162,5.6706,5.7647,5.9964,5.885,5.8704,5.9511,5.9973,6.0396,6.0787,6.0787,6.0787,6.0902,6.2204,6.3474,6.4782,6.6513,6.7699,6.8507,6.9391,7.0273,7.1065,3.7018,3.6845,3.6993,3.7907,4.3022,4.7818,5.0242,5.3667,5.5485,5.4127,5.2892,5.2046,5.1708,5.2757,5.3518,5.3518,5.3518,5.3518,5.3518,5.2909,5.2232,5.1472,5.0153,4.8428,4.621,4.4505,4.492,4.7506,4.5257,4.533,4.7496,4.5693,4.4345,4.335,4.3824,4.5282,4.7258,4.5325,4.5796,4.7723,4.6313,4.6394,4.7369,4.7369,4.7369,4.7452,4.8076,4.8296,4.8113,4.6838,4.6397,4.6507,4.7159,4.6902,4.6544,4.7159,4.6902,4.6397,4.6397,4.6287,4.6177,4.6177,4.603,4.5883,4.5883,4.5406,4.514,4.5773,4.4745,4.423,4.5752,4.4168,4.2882,4.3681,4.0293,3.7266,3.6502,3.6451,3.6339,3.5921,3.8448,3.9852,3.8839,3.8284,3.8097,3.8309,3.6748,3.6966,3.9645,4.0512,4.3005,4.7554,4.9818,5.3156,5.7829,5.7753,5.8714,6.0763,5.9897,5.9588,5.9819,6.0473,6.0787,6.0825,6.1018,6.1287,6.1704,6.3051,6.4199,6.532,6.7359,6.8353,6.8853,7.0167,7.0744,7.0939,4.392,4.5351,4.599,4.566,5.0459,5.422,5.3685,5.4528,5.5264,5.5481,5.5361,5.4786,5.345,5.3416,5.3518,5.3518,5.3518,5.3518,5.3518,5.345,5.3044,5.2232,5.1404,4.995,4.7752,4.5602,4.5171,4.6515,4.533,4.5269,4.6361,4.688,4.6708,4.6077,4.7464,4.7998,4.7903,4.7676,4.7821,4.8217,4.8073,4.8074,4.8186,4.8186,4.8186,4.8186,4.826,4.8296,4.826,4.8122,4.8076,4.8076,4.815,4.815,4.8076,4.815,4.8113,4.8076,4.8076,4.7526,4.7003,4.7003,4.6425,4.5883,4.5883,4.5847,4.581,4.5883,4.5186,4.4856,4.5755,4.5212,4.4587,4.4509,4.2164,3.9778,3.8193,3.8587,3.8235,3.6069,4.1027,4.3984,4.2387,4.1794,4.1841,4.2649,3.834,3.6925,3.9639,4.0492,4.4298,5.1709,5.012,5.3378,6.2228,5.796,5.7831,6.1917,6.0275,5.9896,6.0671,6.0748,6.0787,6.0825,6.1633,6.2826,6.4243,6.4397,6.5436,6.6904,6.7135,6.8205,6.959,6.9744,7.0283,7.0905,4.7522,4.774,4.8186,4.919,5.1895,5.4407,5.5757,5.6438,5.6518,5.5784,5.4921,5.4143,5.3551,5.3518,5.3518,5.3518,5.3518,5.3518,5.3518,5.3518,5.3145,5.2334,5.2029,5.0829,4.8597,4.6834,4.6518,4.7712,4.8134,4.8159,4.7863,4.9553,4.9715,4.8609,4.8214,4.9089,5.0816,4.952,4.9309,4.9811,4.9811,4.9811,4.9811,4.9811,4.9811,4.9811,4.9811,4.9481,4.916,4.9627,4.914,4.8296,4.8296,4.8296,4.8296,4.8296,4.8296,4.8296,4.8296,4.8076,4.7819,4.7819,4.7562,4.7352,4.7352,4.6975,4.6755,4.7232,4.6718,4.6094,4.592,4.5699,4.5653,4.6131,4.4006,4.2264,4.2227,4.1533,4.1071,4.1257,4.2269,4.3271,4.4069,4.2934,4.1942,4.1574,3.8446,3.7486,3.9638,4.0553,4.3197,4.7955,5.0107,5.3308,5.7748,5.8304,5.9209,6.0497,6.034,6.0473,6.0787,6.0787,6.1095,6.1595,6.1941,6.3057,6.4589,6.4589,6.559,6.7135,6.7667,6.8629,6.9744,7.0244,7.0937,7.1668,5.1136,5.0615,5.0855,5.2686,5.372,5.5007,5.702,5.7455,5.7205,5.6139,5.4921,5.4059,5.3856,5.3619,5.3585,5.3788,5.3619,5.3518,5.3518,5.3518,5.3247,5.2672,5.2435,5.1589,4.9999,4.8105,4.7539,4.8382,4.952,4.9333,4.8048,5.064,5.1276,5.016,4.9495,5.0437,5.2455,5.0694,5.0408,5.1132,5.0912,5.0802,5.0802,5.0802,5.0802,5.0802,5.0802,5.0435,5.0041,5.0618,4.9848,4.8673,4.8673,4.8673,4.8673,4.8673,4.8857,4.8967,4.8746,4.8673,4.8636,4.837,4.8296,4.8296,4.8296,4.7856,4.7599,4.8186,4.7672,4.7012,4.6654,4.6214,4.6287,4.7454,4.5388,4.4006,4.5096,4.3637,4.2871,4.4061,4.3259,4.3271,4.4975,4.3835,4.2985,4.3019,4.0322,3.9194,4.0387,4.1773,4.4256,4.8031,5.2025,5.5027,5.6928,5.9339,6.0335,5.9832,6.0494,6.0787,6.0825,6.1056,6.1787,6.2826,6.2826,6.3634,6.5013,6.5243,6.6167,6.7552,6.843,6.9475,7.0514,7.1052,7.1822,7.2591,5.5397,5.5417,5.565,5.6987,5.7346,5.7398,5.7294,5.703,5.6799,5.6799,5.6139,5.5395,5.4685,5.3923,5.3788,5.4499,5.3923,5.3518,5.3518,5.3518,5.3518,5.3484,5.2739,5.23,5.2266,4.9375,4.7887,4.7887,4.8305,4.7578,4.5916,4.9301,5.0746,5.0462,5.2055,5.2466,5.194,5.1132,5.1242,5.1914,5.1132,5.0802,5.0802,5.0802,5.0802,5.0802,5.0802,5.0802,5.0802,5.0802,5.0251,4.9564,4.9564,4.9564,4.9564,4.9564,5.0151,5.0618,4.9784,4.9564,4.938,4.8526,4.8296,4.8296,4.8296,4.8296,4.8296,4.8296,4.7672,4.7333,4.8113,4.6985,4.6471,4.8218,4.6176,4.4794,4.5943,4.4399,4.3063,4.2667,4.4122,4.5175,4.5212,4.493,4.5981,4.8985,4.492,4.2325,4.2278,4.4536,4.8675,5.4897,5.6614,5.9199,6.2877,6.129,6.0604,6.0787,6.0787,6.0787,6.0825,6.1672,6.298,6.4589,6.4589,6.5051,6.5942,6.675,6.759,6.8468,6.936,7.0706,7.2175,7.2175,7.2745,7.3469,5.7091,5.7534,5.7963,5.8402,5.8488,5.8337,5.7791,5.7634,5.7374,5.6867,5.6596,5.6359,5.6122,5.5428,5.509,5.5327,5.5124,5.4803,5.4262,5.4262,5.4025,5.3518,5.3247,5.2875,5.23,5.0897,4.9882,4.939,5.091,5.1529,5.1309,5.1048,5.1115,5.1497,5.2044,5.2454,5.281,5.2553,5.259,5.2821,5.2553,5.2443,5.2443,5.2443,5.2443,5.2443,5.2443,5.2087,5.1683,5.226,5.1536,5.0508,5.1069,5.0482,4.961,4.961,5.0188,5.0729,5.0472,5.0398,5.0362,5.0068,4.9994,4.9994,4.9994,4.9591,4.9013,4.8406,4.8113,4.8003,4.826,4.7902,4.7931,4.9138,4.8031,4.7251,4.7748,4.5833,4.4923,4.6509,4.4794,4.4649,4.7577,4.6966,4.6993,4.852,4.7018,4.5961,4.5859,4.5592,4.7184,5.0998,5.3809,5.6435,5.888,6.0016,6.0668,6.0787,6.0787,6.1095,6.171,6.2551,6.3512,6.4589,6.4589,6.5089,6.5981,6.6789,6.7628,6.8545,6.9975,7.1206,7.229,7.286,7.363,7.4315,5.8699,5.9099,5.9419,5.9419,5.9419,5.9268,5.8795,5.849,5.8152,5.7679,5.7374,5.7205,5.7205,5.6799,5.6409,5.6139,5.5868,5.5395,5.4651,5.4617,5.4262,5.3551,5.3518,5.3281,5.2773,5.1995,5.1386,5.0913,5.2143,5.3077,5.3613,5.2367,5.2003,5.2454,5.2454,5.2747,5.3214,5.3214,5.3214,5.3214,5.3214,5.3214,5.3214,5.3214,5.3214,5.3214,5.3214,5.2884,5.2527,5.3031,5.2333,5.1353,5.184,5.1326,5.0482,5.0482,5.1059,5.1646,5.1316,5.1242,5.1169,5.0875,5.0802,5.0802,5.0802,5.0398,4.9894,4.937,4.9251,4.9251,4.9251,4.9003,4.8996,4.9578,4.8895,4.8473,4.8938,4.714,4.633,4.7977,4.6393,4.5848,4.7601,4.8084,4.8597,4.9322,4.9257,4.9446,5.0003,4.8756,4.8951,5.1021,5.5246,5.7792,5.84,6.0501,6.1319,6.0787,6.1133,6.1749,6.2589,6.3397,6.4275,6.5089,6.5089,6.5397,6.5974,6.7128,6.7898,6.8584,7.0244,7.1629,7.2745,7.3315,7.4199,7.52,6.0182,6.0216,6.025,6.0182,6.0182,6.0148,6.0114,5.9539,5.9081,5.9081,5.849,5.8069,5.8069,5.8069,5.778,5.7103,5.6325,5.553,5.4803,5.4753,5.4431,5.3687,5.3619,5.3585,5.3585,5.2807,5.2417,5.2446,5.2458,5.2746,5.3361,5.3361,5.3324,5.3287,5.3287,5.3251,5.3214,5.3214,5.3214,5.3214,5.3214,5.3214,5.3214,5.3214,5.3214,5.3214,5.3214,5.3214,5.3214,5.3214,5.2711,5.2097,5.2097,5.2097,5.206,5.2024,5.2564,5.3031,5.227,5.2097,5.1914,5.1169,5.0986,5.0949,5.0912,5.0875,5.0875,5.0802,5.0802,5.0802,5.0802,5.0188,4.9657,4.9649,4.8951,4.8686,4.9453,4.8163,4.7251,4.7575,4.8522,4.8318,4.6201,4.8644,5.0674,5.1426,5.164,5.2514,5.437,5.3485,5.3346,5.4264,5.9612,6.1894,6.0647,6.2177,6.2253,6.0902,6.1787,6.2595,6.3429,6.4282,6.5128,6.5904,6.5981,6.5981,6.609,6.7814,6.8507,6.866,7.036,7.2014,7.3507,7.3546,7.4623,7.6015,6.1028,6.1467,6.167,6.1129,6.1028,6.0825,6.0182,5.9945,5.9844,5.9844,5.9674,5.9573,5.9573,5.9573,5.9505,5.9336,5.8118,5.707,5.6325,5.6292,5.5953,5.5192,5.4634,5.4329,5.4329,5.3585,5.3478,5.3987,5.4568,5.4919,5.5034,5.5034,5.4693,5.4106,5.4106,5.3765,5.3214,5.3214,5.3214,5.3214,5.3214,5.3214,5.3214,5.3214,5.3214,5.3214,5.3214,5.3214,5.3214,5.3214,5.3067,5.292,5.292,5.292,5.2821,5.216,5.2564,5.3177,5.2957,5.292,5.2884,5.2664,5.2627,5.248,5.1867,5.172,5.1536,5.0949,5.0802,5.0802,5.0802,5.0655,5.0417,5.0046,4.9812,4.9364,4.8435,4.7717,4.7612,4.8583,4.8731,4.9328,5.0792,5.1002,5.2028,5.4325,5.2861,5.3382,5.6849,5.5733,5.5083,5.5336,5.6713,5.8185,5.9758,6.0175,6.084,6.1787,6.2627,6.3468,6.4314,6.5205,6.5705,6.5936,6.6558,6.6827,6.6942,6.8667,6.9398,6.9552,7.1245,7.2552,7.3584,7.4199,7.5091,7.6015,6.1806,6.211,6.2381,6.2313,6.2042,6.1772,6.167,6.1095,6.0655,6.0655,6.0317,6.0114,6.0114,5.981,5.9742,6.008,5.9066,5.8084,5.734,5.7002,5.6325,5.5243,5.4803,5.4448,5.4093,5.3687,5.4013,5.5058,5.5842,5.62,5.6161,5.6161,5.55,5.4399,5.4399,5.3959,5.3214,5.3214,5.3214,5.3214,5.3214,5.3214,5.3214,5.3214,5.3214,5.3214,5.3214,5.3214,5.3214,5.3214,5.3214,5.3214,5.3214,5.3214,5.3104,5.2674,5.2847,5.3214,5.3214,5.3214,5.3214,5.3214,5.3214,5.3104,5.2637,5.2564,5.2417,5.2003,5.1893,5.1893,5.1893,5.161,5.1192,5.0709,4.9941,4.9067,4.8111,4.8078,4.84,4.9112,4.9934,5.099,5.2463,5.2324,5.2816,5.432,5.4287,5.4968,5.6812,5.719,5.7197,5.6813,5.7225,5.8088,5.9473,6.0281,6.1172,6.2139,6.3705,6.4743,6.5205,6.6058,6.6667,6.7051,6.709,6.7327,6.7782,6.9167,6.9706,6.9821,7.1091,7.2399,7.3546,7.4007,7.4938,7.6015,6.2584,6.2773,6.3057,6.3599,6.3057,6.2787,6.3409,6.2347,6.1467,6.1467,6.0858,6.0452,6.0452,5.9911,5.9832,6.0578,5.9967,5.913,5.8137,5.7374,5.6393,5.5159,5.4972,5.46,5.3839,5.3837,5.4516,5.5879,5.6682,5.7049,5.6957,5.6957,5.6187,5.4766,5.4766,5.4326,5.3544,5.3544,5.3471,5.3398,5.3398,5.3324,5.3214,5.3214,5.3287,5.3361,5.3251,5.3361,5.3544,5.3434,5.3471,5.3544,5.3544,5.3471,5.3398,5.3398,5.3287,5.3214,5.3214,5.3214,5.3214,5.3214,5.3214,5.3214,5.3214,5.3214,5.3214,5.3214,5.3214,5.3214,5.3214,5.27,5.2149,5.1785,5.022,4.9021,4.8972,4.9228,4.9588,4.995,5.1704,5.2925,5.304,5.3492,5.378,5.378,5.5841,5.6911,5.6495,5.8333,5.9187,5.8682,5.9208,5.9627,5.9896,6.1364,6.221,6.2518,6.4788,6.5981,6.609,6.6904,6.7705,6.8353,6.7744,6.7898,6.866,6.9513,6.9898,6.9975,7.0783,7.2091,7.3507,7.3623,7.4745,7.6207,6.3443,6.4343,6.504,6.4512,6.3815,6.3376,6.3477,6.2787,6.2212,6.2212,6.213,6.2042,6.2042,6.1941,6.2187,6.3064,6.2483,6.1141,5.8967,5.8152,5.7629,5.7392,5.6799,5.6122,5.5361,5.5374,5.5794,5.6708,5.7462,5.7831,5.7813,5.7813,5.7336,5.6444,5.6444,5.5978,5.5218,5.5218,5.484,5.4216,5.4216,5.3812,5.3214,5.3214,5.3618,5.4106,5.3434,5.4069,5.5108,5.4436,5.4656,5.5218,5.5218,5.4766,5.4216,5.4216,5.3728,5.3214,5.3214,5.3214,5.3214,5.3214,5.3214,5.3214,5.3214,5.3214,5.3214,5.3214,5.3214,5.3214,5.3214,5.3373,5.3553,5.3717,5.2473,5.1813,5.2769,5.1793,5.1516,5.3092,5.384,5.4452,5.5149,5.5956,5.6401,5.6401,5.7462,5.8625,5.9852,5.9619,6.0086,6.1338,6.0169,6.0204,6.1672,6.1941,6.2826,6.4243,6.5359,6.625,6.6942,6.7821,6.8276,6.843,6.9052,6.936,6.9552,7.0398,7.0706,7.0783,7.1668,7.2591,7.3584,7.4276,7.563,7.7099,6.3579,6.4377,6.5121,6.5189,6.458,6.4241,6.4613,6.4072,6.3429,6.3057,6.299,6.2854,6.2415,6.2442,6.283,6.363,6.3101,6.2398,6.1675,6.0133,5.8679,5.7376,5.6968,5.6435,5.572,5.5709,5.6087,5.6899,5.7655,5.7997,5.7997,5.7997,5.7556,5.6811,5.6811,5.6345,5.5585,5.5585,5.5401,5.506,5.506,5.4803,5.4473,5.4473,5.473,5.4997,5.462,5.4961,5.5548,5.5181,5.5291,5.5585,5.5585,5.5365,5.506,5.506,5.4179,5.3214,5.3214,5.3214,5.3214,5.3214,5.3214,5.3214,5.3214,5.3214,5.3214,5.3214,5.3214,5.3272,5.3484,5.3663,5.4118,5.508,5.3475,5.2549,5.3778,5.2876,5.2606,5.4002,5.4732,5.5665,5.6973,5.7055,5.717,5.7671,5.8088,5.8802,6.0003,5.9687,6.0269,6.2008,6.1308,6.1473,6.2743,6.3205,6.4051,6.532,6.6628,6.7705,6.8513,6.8936,6.9353,6.9744,6.9706,6.9937,7.0398,7.1245,7.1591,7.1675,7.2552,7.3399,7.4199,7.4546,7.5784,7.7292,6.3984,6.4613,6.529,6.5865,6.5358,6.5053,6.5615,6.5053,6.441,6.3815,6.3954,6.3786,6.3057,6.3259,6.3677,6.4288,6.3904,6.3823,6.4183,6.2351,6.0246,5.7998,5.7569,5.7186,5.6819,5.6459,5.6631,5.7431,5.7799,5.7997,5.7997,5.7997,5.7666,5.7079,5.7079,5.6748,5.6172,5.6172,5.6062,5.5879,5.5879,5.5768,5.5585,5.5585,5.5732,5.5842,5.5658,5.5842,5.6136,5.5952,5.5989,5.6172,5.6172,5.6025,5.5879,5.5879,5.4937,5.387,5.355,5.3419,5.3308,5.3209,5.3272,5.3328,5.3328,5.3328,5.3328,5.3328,5.344,5.3573,5.3777,5.3968,5.4552,5.589,5.4114,5.3173,5.4766,5.4032,5.3819,5.5077,5.5852,5.6819,5.8159,5.7857,5.7863,5.855,5.8775,5.9165,5.9781,5.9973,6.0902,6.2633,6.248,6.2781,6.3583,6.4282,6.5128,6.6211,6.7705,6.8853,6.9706,6.9898,7.0321,7.0898,7.0475,7.0629,7.1283,7.2129,7.2514,7.2591,7.3437,7.4161,7.4738,7.5168,7.6284,7.7599,6.5547,6.6136,6.6677,6.669,6.6102,6.5649,6.5683,6.5053,6.458,6.4546,6.5284,6.5531,6.4699,6.5426,6.5991,6.6197,6.6139,6.5839,6.5162,6.4223,6.2976,6.1329,5.9885,5.9417,6.0026,5.8646,5.8303,5.9015,5.834,5.7997,5.7997,5.7997,5.796,5.7923,5.7923,5.7886,5.7813,5.7813,5.7373,5.6701,5.6701,5.6271,5.5585,5.5585,5.6051,5.6602,5.5879,5.6576,5.7703,5.6957,5.7226,5.7813,5.7813,5.7299,5.6701,5.6701,5.6404,5.5793,5.4622,5.4028,5.3654,5.3303,5.3484,5.3768,5.3768,5.3768,5.3768,5.3768,5.4092,5.4272,5.386,5.4454,5.5227,5.5994,5.4777,5.4683,5.7321,5.6104,5.5696,5.7774,5.8083,5.8165,5.8275,5.8934,5.9358,5.9396,6.0165,6.0633,6.071,6.1479,6.2672,6.4359,6.3622,6.3622,6.4512,6.4589,6.5397,6.7019,6.7975,6.8853,6.9744,7.0475,7.0821,7.0937,7.1675,7.2059,7.2175,7.3046,7.3392,7.3469,7.4315,7.4661,7.4892,7.6515,7.7676,7.8523,6.5615,6.6305,6.6791,6.6791,6.6576,6.6373,6.6373,6.6136,6.5797,6.5324,6.6098,6.6179,6.4948,6.6169,6.6874,6.6446,6.6896,6.707,6.6755,6.5989,6.4136,6.1005,5.9876,5.9664,6.0372,5.938,5.919,5.993,5.9648,5.9245,5.8756,5.8756,5.8474,5.7997,5.7997,5.7997,5.7997,5.7997,5.7813,5.7556,5.7556,5.7373,5.709,5.709,5.7262,5.7483,5.72,5.7483,5.796,5.7666,5.774,5.7997,5.7997,5.7999,5.8031,5.8328,5.7978,5.7384,5.6893,5.5889,5.4926,5.4788,5.4484,5.423,5.423,5.423,5.423,5.423,5.4756,5.5287,5.5389,5.6076,5.7125,5.8644,5.7634,5.7344,5.9345,5.8143,5.7583,5.8879,5.8583,5.8698,5.9742,5.9627,5.9935,6.1018,6.1402,6.1826,6.232,6.3166,6.4205,6.5359,6.5551,6.582,6.6167,6.6167,6.7013,6.8706,6.9052,6.9629,7.0437,7.0744,7.0898,7.0937,7.1828,7.2213,7.2329,7.3668,7.4238,7.4315,7.5168,7.5822,7.6399,7.7061,7.813,7.9361,6.5933,6.644,6.6791,6.6791,6.6791,6.6791,6.6791,6.6791,6.6735,6.6528,6.7307,6.7539,6.6497,6.7589,6.8072,6.7259,6.751,6.77,6.77,6.6696,6.4767,6.1702,6.0813,6.0622,6.1157,6.0412,6.028,6.0786,6.0529,6.0114,5.96,5.96,5.9159,5.84,5.84,5.8253,5.7997,5.7997,5.7997,5.7997,5.7997,5.7997,5.7997,5.7997,5.7997,5.7997,5.7997,5.7997,5.7997,5.7997,5.7997,5.8031,5.8186,5.8528,5.9028,5.9475,5.9238,5.8816,5.8995,5.7969,5.677,5.625,5.5782,5.5489,5.5489,5.5489,5.5489,5.5489,5.6011,5.6568,5.674,5.7351,5.8266,5.9651,5.8986,5.8746,6.0072,5.9332,5.8973,5.9819,5.9435,5.955,6.071,6.0517,6.0825,6.2018,6.2326,6.2974,6.4051,6.4936,6.5782,6.6667,6.7205,6.7744,6.8289,6.7782,6.8244,6.9706,6.9975,7.0514,7.1321,7.1591,7.1706,7.1745,7.2629,7.2976,7.3091,7.4514,7.513,7.52,7.6053,7.6784,7.7369,7.79,7.8823,7.9854,6.6791,6.6791,6.6791,6.6791,6.6791,6.6791,6.6791,6.6791,6.714,6.8087,6.9076,6.9738,6.9901,7.004,6.9779,6.8958,6.8164,6.77,6.77,6.6182,6.4971,6.4139,6.327,6.2793,6.2793,6.2034,6.163,6.1643,6.0823,6.0456,6.0419,6.0407,6.0003,5.9221,5.9196,5.8756,5.8033,5.7997,5.7997,5.7997,5.7997,5.7997,5.7997,5.7997,5.7997,5.7997,5.7997,5.7997,5.7997,5.7997,5.8008,5.8074,5.8549,5.9047,5.9492,5.9962,6.011,6.0196,6.0659,6.0165,5.91,5.7445,5.7301,5.7607,5.7607,5.7607,5.7607,5.7607,5.7991,5.8189,5.7707,5.7997,5.8313,5.8313,5.8313,5.8583,5.9396,5.9511,5.9819,6.0704,6.0825,6.0825,6.0825,6.1595,6.2095,6.2139,6.2858,6.4083,6.582,6.6673,6.7513,6.8391,6.843,6.9237,7.0898,6.9276,6.8853,6.9744,7.0552,7.136,7.2252,7.3129,7.3507,7.3546,7.4353,7.47,7.4776,7.563,7.6015,7.6092,7.6938,7.733,7.7522,7.9208,7.9815,7.9931,6.669,6.6791,6.6791,6.6791,6.6791,6.6791,6.6791,6.6791,6.714,6.8087,6.9076,6.9738,6.9901,7.0514,7.0624,6.9816,6.9009,6.8311,6.7737,6.6182,6.5435,6.5778,6.3857,6.3086,6.3686,6.3478,6.3613,6.42,6.3967,6.3539,6.2989,6.2365,6.1655,6.086,6.0309,5.9893,5.9648,5.9086,5.8829,5.8792,5.8217,5.7997,5.7997,5.7997,5.7997,5.7997,5.7997,5.7997,5.7997,5.7997,5.8205,5.8632,5.9424,5.9792,5.9969,6.0463,6.0603,6.0622,6.0757,6.0594,6.0163,5.9019,5.8425,5.8103,5.8103,5.8103,5.8103,5.8103,5.864,5.9098,5.8971,5.9569,6.005,6.005,6.005,6.0127,6.0358,6.0396,6.0748,6.1595,6.171,6.1941,6.2506,6.2775,6.3205,6.382,6.5166,6.6474,6.7583,6.8475,6.9283,7.0129,7.0744,7.1591,7.2699,7.1014,7.0898,7.2353,7.2622,7.2853,7.3129,7.3392,7.3507,7.3546,7.4353,7.47,7.4776,7.563,7.6361,7.6945,7.7215,7.8015,7.9131,7.9631,8.0208,8.0746,6.669,6.6791,6.6791,6.6791,6.6791,6.6791,6.6791,6.6791,6.7284,6.861,6.9314,7.0018,7.0842,7.1143,7.1087,7.0624,6.9559,6.8568,6.7737,6.6476,6.5999,6.6476,6.4751,6.404,6.4567,6.4567,6.4824,6.5288,6.5288,6.5031,6.4567,6.404,6.316,6.2034,6.1582,6.1006,6.0382,5.9893,5.9673,5.9636,5.9171,5.8767,5.8462,5.8462,5.829,5.7997,5.7997,5.7997,5.7997,5.7997,5.8439,5.9093,5.987,6.021,6.045,6.0728,6.0787,6.0787,6.0787,6.0787,6.0671,6.0165,5.9665,5.9281,5.9281,5.9281,5.9281,5.9281,5.9665,6.0012,6.0012,6.0435,6.0787,6.0787,6.0787,6.0787,6.0787,6.1095,6.1518,6.2056,6.2364,6.2781,6.3237,6.3929,6.4814,6.6006,6.7359,6.8513,6.9353,7.0206,7.1052,7.1898,7.2437,7.3129,7.3969,7.2937,7.2783,7.3507,7.3815,7.3969,7.4007,7.4315,7.4469,7.4514,7.5014,7.5207,7.5245,7.5784,7.6515,7.733,7.7638,7.8592,7.9854,8.0208,8.0669,8.1093,6.6893,6.6893,6.6927,6.6994,6.6927,6.6893,6.6893,6.6825,6.7495,6.9457,6.9743,7.0524,7.2395,7.1931,7.1527,7.1527,6.9986,6.8678,6.7847,6.699,6.6512,6.6586,6.5852,6.5435,6.5508,6.5435,6.5435,6.5508,6.5508,6.5508,6.5508,6.5435,6.4591,6.3123,6.305,6.2169,6.0713,6.0699,6.0614,6.0493,6.0479,5.9989,5.9306,5.9233,5.8756,5.8107,5.8107,5.8104,5.8099,5.8249,5.8933,5.977,6.0151,6.0578,6.0902,6.0825,6.0787,6.0825,6.0902,6.0864,6.0825,6.0902,6.0864,6.0787,6.0787,6.0864,6.0941,6.0941,6.0979,6.1018,6.1018,6.0979,6.0941,6.1018,6.0979,6.0941,6.1018,6.171,6.2249,6.2326,6.3051,6.3545,6.3622,6.5166,6.6782,6.8391,6.9321,7.0167,7.0975,7.1898,7.2822,7.3699,7.3738,7.4161,7.5014,7.4976,7.4546,7.3738,7.4469,7.4815,7.4853,7.563,7.6015,7.6015,7.6015,7.6053,7.6092,7.6015,7.6592,7.7592,7.8253,7.9092,8.0015,8.0823,8.1093,8.1093,6.7557,6.7658,6.7861,6.8504,6.8098,6.7658,6.7658,6.7184,6.7495,6.9457,7.0239,7.1345,7.3252,7.3266,7.3193,7.3193,7.1138,6.9486,6.8678,6.7283,6.6769,6.7407,6.6659,6.6512,6.7187,6.6549,6.6549,6.7187,6.7187,6.7187,6.7187,6.6512,6.6035,6.5668,6.5031,6.42,6.3283,6.3002,6.2304,6.1312,6.1111,6.0688,6.0077,5.9453,5.9086,5.8939,5.8939,5.877,5.8747,6.017,6.1221,6.1888,6.1728,6.1733,6.1672,6.1018,6.0787,6.0941,6.1633,6.1325,6.0979,6.1633,6.1287,6.0787,6.0787,6.1325,6.1826,6.1826,6.232,6.2775,6.2775,6.2243,6.2018,6.266,6.2243,6.2056,6.266,6.2929,6.3281,6.3974,6.482,6.559,6.6205,6.7244,6.8276,6.936,7.0167,7.1014,7.1867,7.3322,7.4553,7.5438,7.5476,7.6169,7.7676,7.7053,7.6322,7.5476,7.563,7.5707,7.5707,7.5899,7.6015,7.6015,7.6015,7.6399,7.6984,7.6284,7.7284,7.9208,7.8715,7.9438,8.0823,8.1016,8.1093,8.1093,6.7895,6.8199,6.8605,6.9045,6.8741,6.847,6.847,6.8166,6.859,7.0551,7.1177,7.2008,7.3545,7.3722,7.3377,7.2606,7.1394,7.033,6.9522,6.8678,6.8421,6.8839,6.8421,6.8421,6.8839,6.8421,6.8054,6.77,6.77,6.77,6.77,6.726,6.688,6.6476,6.6072,6.5567,6.5014,6.4427,6.3918,6.3455,6.2929,6.2317,6.1635,6.1225,6.0826,6.0491,6.0491,6.0377,6.0398,6.1597,6.2261,6.2626,6.2644,6.2666,6.2589,6.2127,6.1973,6.2089,6.2551,6.2358,6.2089,6.2551,6.232,6.1897,6.1518,6.1787,6.221,6.2589,6.3006,6.3314,6.3314,6.2974,6.282,6.3237,6.2935,6.2974,6.3814,6.3929,6.4397,6.5628,6.6211,6.6974,6.8205,6.909,6.9937,7.0821,7.1668,7.2514,7.336,7.463,7.5515,7.5976,7.6784,7.7445,7.7907,7.7907,7.7638,7.7169,7.7169,7.7169,7.7169,7.6791,7.663,7.6592,7.6169,7.6476,7.7253,7.683,7.7861,7.9738,7.9285,7.9939,8.1093,8.1093,8.1093,8.1093,6.8199,6.8639,6.918,6.9451,6.9485,6.9485,6.9485,6.9282,6.9696,7.1294,7.1806,7.2491,7.3764,7.3891,7.3266,7.1637,7.1527,7.1197,7.055,7.0257,7.011,7.011,7.011,7.011,7.011,7.011,6.9389,6.7921,6.7921,6.7847,6.77,6.77,6.7333,6.6696,6.6696,6.658,6.6273,6.5605,6.543,6.5568,6.4973,6.4161,6.3303,6.3152,6.2708,6.2113,6.2113,6.2242,6.2496,6.2834,6.3045,6.321,6.3463,6.3506,6.3506,6.3352,6.3314,6.3314,6.3468,6.3429,6.3352,6.3468,6.3429,6.316,6.2633,6.2518,6.271,6.3391,6.3622,6.3737,6.3737,6.3622,6.3622,6.3891,6.3814,6.4083,6.5122,6.5243,6.5782,6.7173,6.7596,6.8359,6.9975,7.086,7.1629,7.2367,7.336,7.4199,7.4892,7.5861,7.6515,7.663,7.7869,7.833,7.7946,7.8446,7.8792,7.8946,7.8946,7.8792,7.8484,7.7792,7.7445,7.7292,7.6669,7.6823,7.7522,7.7522,7.8515,8.0015,7.9854,8.0323,8.1093,8.1093,8.1093,8.1093,6.8707,6.9045,6.9519,7.0804,7.0985,7.0985,7.0985,6.9925,6.9187,6.9476,7.0985,7.2741,7.4555,7.472,7.4096,7.2496,7.2349,7.2312,7.2165,7.0881,7.011,7.011,7.011,7.011,7.011,7.011,6.9633,6.8752,6.8752,6.8385,6.77,6.77,6.7627,6.7554,6.7554,6.738,6.7179,6.7438,6.6791,6.5634,6.5973,6.5364,6.4124,6.3379,6.3039,6.2926,6.2926,6.3684,6.4633,6.4408,6.4834,6.534,6.4654,6.4436,6.4282,6.3506,6.3314,6.3468,6.4205,6.3852,6.3468,6.4243,6.3852,6.3468,6.4128,6.4243,6.4282,6.4397,6.5013,6.5551,6.5551,6.4936,6.4897,6.6365,6.6013,6.609,6.766,6.7891,6.7968,6.8199,6.9513,7.0783,7.179,7.2629,7.3199,7.3315,7.4784,7.5707,7.5822,7.733,7.8515,7.9238,7.8784,7.9177,8.0554,7.9939,8.0015,8.0746,8.0746,7.9939,7.8484,7.8407,7.7946,7.733,7.7907,7.8215,7.833,7.833,7.9369,8.0862,8.0085,8.0323,8.1093,8.1093,8.1093,8.1093,6.9147,6.9755,7.0511,7.1188,7.1289,7.1289,7.1289,7.077,7.0723,7.1868,7.2788,7.4083,7.6041,7.5454,7.4243,7.2642,7.2496,7.2496,7.2496,7.1835,7.1431,7.1431,7.1431,7.1431,7.1431,7.1431,7.1064,7.0243,6.8898,6.8068,6.77,6.77,6.77,6.77,6.77,6.7616,6.758,6.8566,6.8243,6.7038,6.708,6.6336,6.5184,6.481,6.4657,6.4734,6.5161,6.5725,6.619,6.6045,6.5942,6.582,6.5436,6.532,6.5243,6.4859,6.4743,6.4859,6.5205,6.5359,6.5513,6.5897,6.5705,6.5513,6.5897,6.5667,6.532,6.532,6.5974,6.6558,6.6558,6.6667,6.6968,6.7705,6.7513,6.7699,6.893,6.8699,6.8584,6.9084,7.0591,7.179,7.2175,7.3399,7.4353,7.4861,7.6015,7.6907,7.7369,7.8554,7.9169,7.9092,7.9631,8.0092,8.0362,8.0477,8.0708,8.1093,8.1093,8.0708,7.9939,7.9438,7.9015,7.8707,7.8561,7.8792,7.9246,7.9246,7.9977,8.1054,8.0669,8.0746,8.1093,8.1093,8.1093,8.1093]}]]